<?xml version="1.0" encoding="UTF-8" standalone="no" ?>
<gpx xmlns="http://www.topografix.com/GPX/1/1" xmlns:xsi="http://www.w3.org/2001/XMLSchema-instance" xsi:schemaLocation="http://www.topografix.com/GPX/1/1 http://www.topografix.com/GPX/1/1/gpx.xsd" version="1.1" creator="VisuGPX - https://www.visugpx.com">
  <metadata>
    <name>ASCR 2018_09 Marcheurs samedi</name>
    <desc><![CDATA[Circuit effectué le samedi par les marcheurs de l'ASCR lors du week end de l'association à Saint Leonard des Bois dans la Sarthe.
Départ du Gite de groupe de Vandoeuvre.]]></desc>
  </metadata>
  <trk>
    <name><![CDATA[20181017211411-Rilcn]]></name>
    <trkseg>
      <trkpt lat="48.35263" lon="-0.07606">
        <ele>59</ele>
        <time>2018-09-22T07:12:48Z</time>
      </trkpt>
      <trkpt lat="48.35262" lon="-0.07606">
        <ele>59</ele>
        <time>2018-09-22T07:12:49Z</time>
      </trkpt>
      <trkpt lat="48.3526" lon="-0.07607">
        <ele>59</ele>
        <time>2018-09-22T07:12:53Z</time>
      </trkpt>
      <trkpt lat="48.35258" lon="-0.07609">
        <ele>58</ele>
        <time>2018-09-22T07:13:06Z</time>
      </trkpt>
      <trkpt lat="48.35256" lon="-0.07609">
        <ele>57</ele>
        <time>2018-09-22T07:13:29Z</time>
      </trkpt>
      <trkpt lat="48.35256" lon="-0.07608">
        <ele>57</ele>
        <time>2018-09-22T07:14:29Z</time>
      </trkpt>
      <trkpt lat="48.35257" lon="-0.07608">
        <ele>57</ele>
        <time>2018-09-22T07:15:02Z</time>
      </trkpt>
      <trkpt lat="48.35258" lon="-0.07606">
        <ele>57</ele>
        <time>2018-09-22T07:15:39Z</time>
      </trkpt>
      <trkpt lat="48.35265" lon="-0.07606">
        <ele>57</ele>
        <time>2018-09-22T07:15:59Z</time>
      </trkpt>
      <trkpt lat="48.35265" lon="-0.07603">
        <ele>58</ele>
        <time>2018-09-22T07:16:05Z</time>
      </trkpt>
      <trkpt lat="48.35263" lon="-0.07602">
        <ele>58</ele>
        <time>2018-09-22T07:17:00Z</time>
      </trkpt>
      <trkpt lat="48.35262" lon="-0.07604">
        <ele>58</ele>
        <time>2018-09-22T07:17:03Z</time>
      </trkpt>
      <trkpt lat="48.35263" lon="-0.07605">
        <ele>57</ele>
        <time>2018-09-22T07:17:18Z</time>
      </trkpt>
      <trkpt lat="48.35265" lon="-0.07606">
        <ele>57</ele>
        <time>2018-09-22T07:17:26Z</time>
      </trkpt>
      <trkpt lat="48.35267" lon="-0.07606">
        <ele>57</ele>
        <time>2018-09-22T07:17:53Z</time>
      </trkpt>
      <trkpt lat="48.35268" lon="-0.07608">
        <ele>57</ele>
        <time>2018-09-22T07:17:57Z</time>
      </trkpt>
      <trkpt lat="48.35271" lon="-0.07618">
        <ele>57</ele>
        <time>2018-09-22T07:18:06Z</time>
      </trkpt>
      <trkpt lat="48.35271" lon="-0.0762">
        <ele>57</ele>
        <time>2018-09-22T07:18:15Z</time>
      </trkpt>
      <trkpt lat="48.35273" lon="-0.07621">
        <ele>57</ele>
        <time>2018-09-22T07:18:17Z</time>
      </trkpt>
      <trkpt lat="48.35273" lon="-0.07624">
        <ele>56</ele>
        <time>2018-09-22T07:18:20Z</time>
      </trkpt>
      <trkpt lat="48.35274" lon="-0.07629">
        <ele>58</ele>
        <time>2018-09-22T07:18:38Z</time>
      </trkpt>
      <trkpt lat="48.35274" lon="-0.07632">
        <ele>58</ele>
        <time>2018-09-22T07:18:40Z</time>
      </trkpt>
      <trkpt lat="48.35275" lon="-0.07682">
        <ele>46</ele>
        <time>2018-09-22T07:19:10Z</time>
      </trkpt>
      <trkpt lat="48.35275" lon="-0.07695">
        <ele>46</ele>
        <time>2018-09-22T07:19:18Z</time>
      </trkpt>
      <trkpt lat="48.35277" lon="-0.07699">
        <ele>47</ele>
        <time>2018-09-22T07:19:22Z</time>
      </trkpt>
      <trkpt lat="48.35281" lon="-0.07703">
        <ele>46</ele>
        <time>2018-09-22T07:19:27Z</time>
      </trkpt>
      <trkpt lat="48.3531" lon="-0.07715">
        <ele>55</ele>
        <time>2018-09-22T07:19:52Z</time>
      </trkpt>
      <trkpt lat="48.3532" lon="-0.07711">
        <ele>52</ele>
        <time>2018-09-22T07:20:03Z</time>
      </trkpt>
      <trkpt lat="48.35323" lon="-0.07711">
        <ele>52</ele>
        <time>2018-09-22T07:20:07Z</time>
      </trkpt>
      <trkpt lat="48.35326" lon="-0.07713">
        <ele>52</ele>
        <time>2018-09-22T07:20:10Z</time>
      </trkpt>
      <trkpt lat="48.35335" lon="-0.07722">
        <ele>52</ele>
        <time>2018-09-22T07:20:21Z</time>
      </trkpt>
      <trkpt lat="48.35342" lon="-0.07727">
        <ele>54</ele>
        <time>2018-09-22T07:20:29Z</time>
      </trkpt>
      <trkpt lat="48.35358" lon="-0.07729">
        <ele>57</ele>
        <time>2018-09-22T07:20:45Z</time>
      </trkpt>
      <trkpt lat="48.35374" lon="-0.07732">
        <ele>56</ele>
        <time>2018-09-22T07:21:00Z</time>
      </trkpt>
      <trkpt lat="48.35385" lon="-0.07734">
        <ele>56</ele>
        <time>2018-09-22T07:21:11Z</time>
      </trkpt>
      <trkpt lat="48.35388" lon="-0.07735">
        <ele>55</ele>
        <time>2018-09-22T07:21:14Z</time>
      </trkpt>
      <trkpt lat="48.35395" lon="-0.07736">
        <ele>55</ele>
        <time>2018-09-22T07:21:20Z</time>
      </trkpt>
      <trkpt lat="48.35409" lon="-0.07738">
        <ele>52</ele>
        <time>2018-09-22T07:21:33Z</time>
      </trkpt>
      <trkpt lat="48.35415" lon="-0.07738">
        <ele>51</ele>
        <time>2018-09-22T07:21:37Z</time>
      </trkpt>
      <trkpt lat="48.35423" lon="-0.07741">
        <ele>54</ele>
        <time>2018-09-22T07:21:45Z</time>
      </trkpt>
      <trkpt lat="48.35425" lon="-0.07741">
        <ele>54</ele>
        <time>2018-09-22T07:21:47Z</time>
      </trkpt>
      <trkpt lat="48.35427" lon="-0.07743">
        <ele>55</ele>
        <time>2018-09-22T07:21:50Z</time>
      </trkpt>
      <trkpt lat="48.35436" lon="-0.07746">
        <ele>59</ele>
        <time>2018-09-22T07:22:02Z</time>
      </trkpt>
      <trkpt lat="48.35437" lon="-0.07747">
        <ele>60</ele>
        <time>2018-09-22T07:22:10Z</time>
      </trkpt>
      <trkpt lat="48.35438" lon="-0.07744">
        <ele>60</ele>
        <time>2018-09-22T07:22:44Z</time>
      </trkpt>
      <trkpt lat="48.35437" lon="-0.07742">
        <ele>58</ele>
        <time>2018-09-22T07:22:49Z</time>
      </trkpt>
      <trkpt lat="48.35435" lon="-0.0774">
        <ele>57</ele>
        <time>2018-09-22T07:22:53Z</time>
      </trkpt>
      <trkpt lat="48.35435" lon="-0.07737">
        <ele>56</ele>
        <time>2018-09-22T07:22:58Z</time>
      </trkpt>
      <trkpt lat="48.35437" lon="-0.07715">
        <ele>50</ele>
        <time>2018-09-22T07:23:15Z</time>
      </trkpt>
      <trkpt lat="48.35439" lon="-0.07706">
        <ele>47</ele>
        <time>2018-09-22T07:23:22Z</time>
      </trkpt>
      <trkpt lat="48.35439" lon="-0.07689">
        <ele>45</ele>
        <time>2018-09-22T07:23:34Z</time>
      </trkpt>
      <trkpt lat="48.35438" lon="-0.07686">
        <ele>45</ele>
        <time>2018-09-22T07:23:38Z</time>
      </trkpt>
      <trkpt lat="48.3544" lon="-0.07674">
        <ele>45</ele>
        <time>2018-09-22T07:23:48Z</time>
      </trkpt>
      <trkpt lat="48.35441" lon="-0.07655">
        <ele>44</ele>
        <time>2018-09-22T07:24:01Z</time>
      </trkpt>
      <trkpt lat="48.35441" lon="-0.0765">
        <ele>44</ele>
        <time>2018-09-22T07:24:05Z</time>
      </trkpt>
      <trkpt lat="48.3544" lon="-0.07644">
        <ele>44</ele>
        <time>2018-09-22T07:24:07Z</time>
      </trkpt>
      <trkpt lat="48.35437" lon="-0.07628">
        <ele>47</ele>
        <time>2018-09-22T07:24:16Z</time>
      </trkpt>
      <trkpt lat="48.35437" lon="-0.07619">
        <ele>47</ele>
        <time>2018-09-22T07:24:21Z</time>
      </trkpt>
      <trkpt lat="48.3543" lon="-0.07572">
        <ele>49</ele>
        <time>2018-09-22T07:24:53Z</time>
      </trkpt>
      <trkpt lat="48.35431" lon="-0.07567">
        <ele>49</ele>
        <time>2018-09-22T07:24:58Z</time>
      </trkpt>
      <trkpt lat="48.35429" lon="-0.0756">
        <ele>49</ele>
        <time>2018-09-22T07:25:06Z</time>
      </trkpt>
      <trkpt lat="48.35429" lon="-0.07555">
        <ele>48</ele>
        <time>2018-09-22T07:25:11Z</time>
      </trkpt>
      <trkpt lat="48.35429" lon="-0.07546">
        <ele>47</ele>
        <time>2018-09-22T07:25:19Z</time>
      </trkpt>
      <trkpt lat="48.35428" lon="-0.07542">
        <ele>47</ele>
        <time>2018-09-22T07:25:22Z</time>
      </trkpt>
      <trkpt lat="48.35427" lon="-0.07538">
        <ele>47</ele>
        <time>2018-09-22T07:25:27Z</time>
      </trkpt>
      <trkpt lat="48.35426" lon="-0.07534">
        <ele>47</ele>
        <time>2018-09-22T07:25:31Z</time>
      </trkpt>
      <trkpt lat="48.35422" lon="-0.07516">
        <ele>47</ele>
        <time>2018-09-22T07:25:44Z</time>
      </trkpt>
      <trkpt lat="48.3542" lon="-0.07513">
        <ele>47</ele>
        <time>2018-09-22T07:25:46Z</time>
      </trkpt>
      <trkpt lat="48.35411" lon="-0.07475">
        <ele>47</ele>
        <time>2018-09-22T07:26:16Z</time>
      </trkpt>
      <trkpt lat="48.35396" lon="-0.07448">
        <ele>48</ele>
        <time>2018-09-22T07:26:43Z</time>
      </trkpt>
      <trkpt lat="48.35393" lon="-0.07441">
        <ele>47</ele>
        <time>2018-09-22T07:26:52Z</time>
      </trkpt>
      <trkpt lat="48.35376" lon="-0.07415">
        <ele>50</ele>
        <time>2018-09-22T07:27:24Z</time>
      </trkpt>
      <trkpt lat="48.35371" lon="-0.07406">
        <ele>51</ele>
        <time>2018-09-22T07:27:38Z</time>
      </trkpt>
      <trkpt lat="48.35368" lon="-0.07405">
        <ele>51</ele>
        <time>2018-09-22T07:27:41Z</time>
      </trkpt>
      <trkpt lat="48.35358" lon="-0.0739">
        <ele>51</ele>
        <time>2018-09-22T07:27:54Z</time>
      </trkpt>
      <trkpt lat="48.35346" lon="-0.07382">
        <ele>47</ele>
        <time>2018-09-22T07:28:10Z</time>
      </trkpt>
      <trkpt lat="48.35336" lon="-0.0737">
        <ele>47</ele>
        <time>2018-09-22T07:28:25Z</time>
      </trkpt>
      <trkpt lat="48.35329" lon="-0.07366">
        <ele>46</ele>
        <time>2018-09-22T07:28:31Z</time>
      </trkpt>
      <trkpt lat="48.35297" lon="-0.07353">
        <ele>48</ele>
        <time>2018-09-22T07:29:03Z</time>
      </trkpt>
      <trkpt lat="48.35277" lon="-0.0735">
        <ele>50</ele>
        <time>2018-09-22T07:29:23Z</time>
      </trkpt>
      <trkpt lat="48.35274" lon="-0.07352">
        <ele>51</ele>
        <time>2018-09-22T07:29:26Z</time>
      </trkpt>
      <trkpt lat="48.35269" lon="-0.07356">
        <ele>52</ele>
        <time>2018-09-22T07:29:35Z</time>
      </trkpt>
      <trkpt lat="48.35266" lon="-0.07355">
        <ele>53</ele>
        <time>2018-09-22T07:29:42Z</time>
      </trkpt>
      <trkpt lat="48.35263" lon="-0.07354">
        <ele>54</ele>
        <time>2018-09-22T07:29:47Z</time>
      </trkpt>
      <trkpt lat="48.35232" lon="-0.07351">
        <ele>54</ele>
        <time>2018-09-22T07:30:17Z</time>
      </trkpt>
      <trkpt lat="48.35203" lon="-0.07351">
        <ele>60</ele>
        <time>2018-09-22T07:30:51Z</time>
      </trkpt>
      <trkpt lat="48.35199" lon="-0.07351">
        <ele>60</ele>
        <time>2018-09-22T07:30:56Z</time>
      </trkpt>
      <trkpt lat="48.35195" lon="-0.07349">
        <ele>59</ele>
        <time>2018-09-22T07:30:59Z</time>
      </trkpt>
      <trkpt lat="48.35181" lon="-0.07351">
        <ele>58</ele>
        <time>2018-09-22T07:31:16Z</time>
      </trkpt>
      <trkpt lat="48.35178" lon="-0.07355">
        <ele>58</ele>
        <time>2018-09-22T07:31:19Z</time>
      </trkpt>
      <trkpt lat="48.35174" lon="-0.07357">
        <ele>58</ele>
        <time>2018-09-22T07:31:23Z</time>
      </trkpt>
      <trkpt lat="48.3517" lon="-0.0736">
        <ele>58</ele>
        <time>2018-09-22T07:31:27Z</time>
      </trkpt>
      <trkpt lat="48.35167" lon="-0.07363">
        <ele>58</ele>
        <time>2018-09-22T07:31:29Z</time>
      </trkpt>
      <trkpt lat="48.35164" lon="-0.07365">
        <ele>58</ele>
        <time>2018-09-22T07:31:33Z</time>
      </trkpt>
      <trkpt lat="48.35151" lon="-0.07368">
        <ele>56</ele>
        <time>2018-09-22T07:31:45Z</time>
      </trkpt>
      <trkpt lat="48.35148" lon="-0.0737">
        <ele>55</ele>
        <time>2018-09-22T07:31:48Z</time>
      </trkpt>
      <trkpt lat="48.35144" lon="-0.07371">
        <ele>55</ele>
        <time>2018-09-22T07:31:52Z</time>
      </trkpt>
      <trkpt lat="48.35141" lon="-0.07372">
        <ele>54</ele>
        <time>2018-09-22T07:31:58Z</time>
      </trkpt>
      <trkpt lat="48.35137" lon="-0.07371">
        <ele>54</ele>
        <time>2018-09-22T07:32:04Z</time>
      </trkpt>
      <trkpt lat="48.35129" lon="-0.07373">
        <ele>54</ele>
        <time>2018-09-22T07:32:12Z</time>
      </trkpt>
      <trkpt lat="48.35126" lon="-0.07377">
        <ele>55</ele>
        <time>2018-09-22T07:32:15Z</time>
      </trkpt>
      <trkpt lat="48.35122" lon="-0.07377">
        <ele>55</ele>
        <time>2018-09-22T07:32:18Z</time>
      </trkpt>
      <trkpt lat="48.35119" lon="-0.07379">
        <ele>55</ele>
        <time>2018-09-22T07:32:21Z</time>
      </trkpt>
      <trkpt lat="48.35116" lon="-0.07381">
        <ele>55</ele>
        <time>2018-09-22T07:32:24Z</time>
      </trkpt>
      <trkpt lat="48.35112" lon="-0.07384">
        <ele>55</ele>
        <time>2018-09-22T07:32:26Z</time>
      </trkpt>
      <trkpt lat="48.35109" lon="-0.07386">
        <ele>55</ele>
        <time>2018-09-22T07:32:29Z</time>
      </trkpt>
      <trkpt lat="48.35106" lon="-0.07389">
        <ele>54</ele>
        <time>2018-09-22T07:32:31Z</time>
      </trkpt>
      <trkpt lat="48.35104" lon="-0.07392">
        <ele>55</ele>
        <time>2018-09-22T07:32:35Z</time>
      </trkpt>
      <trkpt lat="48.35101" lon="-0.07396">
        <ele>55</ele>
        <time>2018-09-22T07:32:37Z</time>
      </trkpt>
      <trkpt lat="48.35098" lon="-0.07399">
        <ele>54</ele>
        <time>2018-09-22T07:32:41Z</time>
      </trkpt>
      <trkpt lat="48.35094" lon="-0.07402">
        <ele>54</ele>
        <time>2018-09-22T07:32:45Z</time>
      </trkpt>
      <trkpt lat="48.35083" lon="-0.07406">
        <ele>57</ele>
        <time>2018-09-22T07:32:57Z</time>
      </trkpt>
      <trkpt lat="48.3508" lon="-0.07407">
        <ele>57</ele>
        <time>2018-09-22T07:33:01Z</time>
      </trkpt>
      <trkpt lat="48.35076" lon="-0.07409">
        <ele>54</ele>
        <time>2018-09-22T07:33:04Z</time>
      </trkpt>
      <trkpt lat="48.35073" lon="-0.07412">
        <ele>53</ele>
        <time>2018-09-22T07:33:08Z</time>
      </trkpt>
      <trkpt lat="48.35047" lon="-0.07427">
        <ele>53</ele>
        <time>2018-09-22T07:33:38Z</time>
      </trkpt>
      <trkpt lat="48.35044" lon="-0.07431">
        <ele>53</ele>
        <time>2018-09-22T07:33:43Z</time>
      </trkpt>
      <trkpt lat="48.3504" lon="-0.07433">
        <ele>53</ele>
        <time>2018-09-22T07:33:47Z</time>
      </trkpt>
      <trkpt lat="48.35035" lon="-0.07436">
        <ele>51</ele>
        <time>2018-09-22T07:33:51Z</time>
      </trkpt>
      <trkpt lat="48.35033" lon="-0.0744">
        <ele>50</ele>
        <time>2018-09-22T07:33:53Z</time>
      </trkpt>
      <trkpt lat="48.35031" lon="-0.07444">
        <ele>49</ele>
        <time>2018-09-22T07:33:56Z</time>
      </trkpt>
      <trkpt lat="48.3503" lon="-0.07449">
        <ele>49</ele>
        <time>2018-09-22T07:34:00Z</time>
      </trkpt>
      <trkpt lat="48.35028" lon="-0.07454">
        <ele>51</ele>
        <time>2018-09-22T07:34:03Z</time>
      </trkpt>
      <trkpt lat="48.35027" lon="-0.0746">
        <ele>52</ele>
        <time>2018-09-22T07:34:06Z</time>
      </trkpt>
      <trkpt lat="48.35024" lon="-0.07464">
        <ele>53</ele>
        <time>2018-09-22T07:34:11Z</time>
      </trkpt>
      <trkpt lat="48.35023" lon="-0.07468">
        <ele>53</ele>
        <time>2018-09-22T07:34:15Z</time>
      </trkpt>
      <trkpt lat="48.35018" lon="-0.07482">
        <ele>57</ele>
        <time>2018-09-22T07:34:26Z</time>
      </trkpt>
      <trkpt lat="48.35016" lon="-0.07488">
        <ele>56</ele>
        <time>2018-09-22T07:34:30Z</time>
      </trkpt>
      <trkpt lat="48.35011" lon="-0.075">
        <ele>49</ele>
        <time>2018-09-22T07:34:37Z</time>
      </trkpt>
      <trkpt lat="48.35011" lon="-0.07506">
        <ele>50</ele>
        <time>2018-09-22T07:34:40Z</time>
      </trkpt>
      <trkpt lat="48.3501" lon="-0.07511">
        <ele>51</ele>
        <time>2018-09-22T07:34:43Z</time>
      </trkpt>
      <trkpt lat="48.3501" lon="-0.07516">
        <ele>53</ele>
        <time>2018-09-22T07:34:47Z</time>
      </trkpt>
      <trkpt lat="48.35009" lon="-0.07521">
        <ele>56</ele>
        <time>2018-09-22T07:34:51Z</time>
      </trkpt>
      <trkpt lat="48.35005" lon="-0.07525">
        <ele>55</ele>
        <time>2018-09-22T07:34:56Z</time>
      </trkpt>
      <trkpt lat="48.35004" lon="-0.0753">
        <ele>54</ele>
        <time>2018-09-22T07:35:00Z</time>
      </trkpt>
      <trkpt lat="48.35004" lon="-0.07535">
        <ele>54</ele>
        <time>2018-09-22T07:35:03Z</time>
      </trkpt>
      <trkpt lat="48.35" lon="-0.0754">
        <ele>55</ele>
        <time>2018-09-22T07:35:15Z</time>
      </trkpt>
      <trkpt lat="48.35" lon="-0.0755">
        <ele>58</ele>
        <time>2018-09-22T07:35:27Z</time>
      </trkpt>
      <trkpt lat="48.34999" lon="-0.07552">
        <ele>60</ele>
        <time>2018-09-22T07:35:35Z</time>
      </trkpt>
      <trkpt lat="48.34995" lon="-0.07555">
        <ele>63</ele>
        <time>2018-09-22T07:35:46Z</time>
      </trkpt>
      <trkpt lat="48.34995" lon="-0.07557">
        <ele>65</ele>
        <time>2018-09-22T07:35:53Z</time>
      </trkpt>
      <trkpt lat="48.34992" lon="-0.07561">
        <ele>66</ele>
        <time>2018-09-22T07:36:37Z</time>
      </trkpt>
      <trkpt lat="48.34988" lon="-0.07568">
        <ele>68</ele>
        <time>2018-09-22T07:36:45Z</time>
      </trkpt>
      <trkpt lat="48.34977" lon="-0.07597">
        <ele>61</ele>
        <time>2018-09-22T07:37:02Z</time>
      </trkpt>
      <trkpt lat="48.34975" lon="-0.07608">
        <ele>65</ele>
        <time>2018-09-22T07:37:09Z</time>
      </trkpt>
      <trkpt lat="48.34963" lon="-0.07631">
        <ele>66</ele>
        <time>2018-09-22T07:37:25Z</time>
      </trkpt>
      <trkpt lat="48.34954" lon="-0.07666">
        <ele>71</ele>
        <time>2018-09-22T07:37:47Z</time>
      </trkpt>
      <trkpt lat="48.34956" lon="-0.07678">
        <ele>74</ele>
        <time>2018-09-22T07:37:53Z</time>
      </trkpt>
      <trkpt lat="48.34954" lon="-0.07693">
        <ele>77</ele>
        <time>2018-09-22T07:38:03Z</time>
      </trkpt>
      <trkpt lat="48.34952" lon="-0.07697">
        <ele>78</ele>
        <time>2018-09-22T07:38:08Z</time>
      </trkpt>
      <trkpt lat="48.3495" lon="-0.07697">
        <ele>81</ele>
        <time>2018-09-22T07:38:30Z</time>
      </trkpt>
      <trkpt lat="48.3495" lon="-0.07696">
        <ele>78</ele>
        <time>2018-09-22T07:38:40Z</time>
      </trkpt>
      <trkpt lat="48.34946" lon="-0.07694">
        <ele>77</ele>
        <time>2018-09-22T07:39:16Z</time>
      </trkpt>
      <trkpt lat="48.34942" lon="-0.07689">
        <ele>76</ele>
        <time>2018-09-22T07:39:23Z</time>
      </trkpt>
      <trkpt lat="48.34941" lon="-0.07685">
        <ele>74</ele>
        <time>2018-09-22T07:39:28Z</time>
      </trkpt>
      <trkpt lat="48.34943" lon="-0.07682">
        <ele>73</ele>
        <time>2018-09-22T07:39:31Z</time>
      </trkpt>
      <trkpt lat="48.34942" lon="-0.07678">
        <ele>73</ele>
        <time>2018-09-22T07:39:34Z</time>
      </trkpt>
      <trkpt lat="48.34939" lon="-0.07672">
        <ele>74</ele>
        <time>2018-09-22T07:39:42Z</time>
      </trkpt>
      <trkpt lat="48.34939" lon="-0.07668">
        <ele>74</ele>
        <time>2018-09-22T07:39:46Z</time>
      </trkpt>
      <trkpt lat="48.34936" lon="-0.07652">
        <ele>73</ele>
        <time>2018-09-22T07:40:04Z</time>
      </trkpt>
      <trkpt lat="48.34934" lon="-0.0765">
        <ele>73</ele>
        <time>2018-09-22T07:40:07Z</time>
      </trkpt>
      <trkpt lat="48.34934" lon="-0.07646">
        <ele>73</ele>
        <time>2018-09-22T07:40:11Z</time>
      </trkpt>
      <trkpt lat="48.34934" lon="-0.07634">
        <ele>76</ele>
        <time>2018-09-22T07:40:27Z</time>
      </trkpt>
      <trkpt lat="48.34935" lon="-0.07612">
        <ele>79</ele>
        <time>2018-09-22T07:40:48Z</time>
      </trkpt>
      <trkpt lat="48.34939" lon="-0.07594">
        <ele>82</ele>
        <time>2018-09-22T07:41:06Z</time>
      </trkpt>
      <trkpt lat="48.34939" lon="-0.07589">
        <ele>82</ele>
        <time>2018-09-22T07:41:10Z</time>
      </trkpt>
      <trkpt lat="48.34939" lon="-0.07584">
        <ele>83</ele>
        <time>2018-09-22T07:41:14Z</time>
      </trkpt>
      <trkpt lat="48.34953" lon="-0.07543">
        <ele>86</ele>
        <time>2018-09-22T07:41:44Z</time>
      </trkpt>
      <trkpt lat="48.34958" lon="-0.0753">
        <ele>85</ele>
        <time>2018-09-22T07:41:53Z</time>
      </trkpt>
      <trkpt lat="48.34961" lon="-0.07521">
        <ele>86</ele>
        <time>2018-09-22T07:41:59Z</time>
      </trkpt>
      <trkpt lat="48.34972" lon="-0.07491">
        <ele>89</ele>
        <time>2018-09-22T07:42:20Z</time>
      </trkpt>
      <trkpt lat="48.34971" lon="-0.07476">
        <ele>92</ele>
        <time>2018-09-22T07:42:31Z</time>
      </trkpt>
      <trkpt lat="48.34973" lon="-0.07473">
        <ele>91</ele>
        <time>2018-09-22T07:42:34Z</time>
      </trkpt>
      <trkpt lat="48.34987" lon="-0.07449">
        <ele>90</ele>
        <time>2018-09-22T07:42:56Z</time>
      </trkpt>
      <trkpt lat="48.34999" lon="-0.07422">
        <ele>84</ele>
        <time>2018-09-22T07:43:18Z</time>
      </trkpt>
      <trkpt lat="48.35009" lon="-0.07403">
        <ele>86</ele>
        <time>2018-09-22T07:43:34Z</time>
      </trkpt>
      <trkpt lat="48.35023" lon="-0.07374">
        <ele>89</ele>
        <time>2018-09-22T07:43:54Z</time>
      </trkpt>
      <trkpt lat="48.35036" lon="-0.07349">
        <ele>92</ele>
        <time>2018-09-22T07:44:18Z</time>
      </trkpt>
      <trkpt lat="48.35037" lon="-0.07345">
        <ele>91</ele>
        <time>2018-09-22T07:44:21Z</time>
      </trkpt>
      <trkpt lat="48.35037" lon="-0.07341">
        <ele>91</ele>
        <time>2018-09-22T07:44:23Z</time>
      </trkpt>
      <trkpt lat="48.35035" lon="-0.07329">
        <ele>93</ele>
        <time>2018-09-22T07:44:29Z</time>
      </trkpt>
      <trkpt lat="48.35033" lon="-0.07325">
        <ele>95</ele>
        <time>2018-09-22T07:44:33Z</time>
      </trkpt>
      <trkpt lat="48.35029" lon="-0.07317">
        <ele>97</ele>
        <time>2018-09-22T07:44:40Z</time>
      </trkpt>
      <trkpt lat="48.35029" lon="-0.07312">
        <ele>98</ele>
        <time>2018-09-22T07:44:45Z</time>
      </trkpt>
      <trkpt lat="48.3503" lon="-0.07308">
        <ele>98</ele>
        <time>2018-09-22T07:44:48Z</time>
      </trkpt>
      <trkpt lat="48.35031" lon="-0.07305">
        <ele>99</ele>
        <time>2018-09-22T07:44:51Z</time>
      </trkpt>
      <trkpt lat="48.35038" lon="-0.07296">
        <ele>99</ele>
        <time>2018-09-22T07:45:00Z</time>
      </trkpt>
      <trkpt lat="48.35044" lon="-0.07291">
        <ele>100</ele>
        <time>2018-09-22T07:45:07Z</time>
      </trkpt>
      <trkpt lat="48.35046" lon="-0.07288">
        <ele>100</ele>
        <time>2018-09-22T07:45:10Z</time>
      </trkpt>
      <trkpt lat="48.35051" lon="-0.07283">
        <ele>101</ele>
        <time>2018-09-22T07:45:17Z</time>
      </trkpt>
      <trkpt lat="48.35061" lon="-0.07264">
        <ele>103</ele>
        <time>2018-09-22T07:45:40Z</time>
      </trkpt>
      <trkpt lat="48.35063" lon="-0.07259">
        <ele>103</ele>
        <time>2018-09-22T07:45:44Z</time>
      </trkpt>
      <trkpt lat="48.35081" lon="-0.07231">
        <ele>116</ele>
        <time>2018-09-22T07:46:16Z</time>
      </trkpt>
      <trkpt lat="48.35094" lon="-0.07215">
        <ele>121</ele>
        <time>2018-09-22T07:46:36Z</time>
      </trkpt>
      <trkpt lat="48.35105" lon="-0.07199">
        <ele>125</ele>
        <time>2018-09-22T07:46:53Z</time>
      </trkpt>
      <trkpt lat="48.35132" lon="-0.07177">
        <ele>133</ele>
        <time>2018-09-22T07:47:26Z</time>
      </trkpt>
      <trkpt lat="48.3515" lon="-0.07165">
        <ele>135</ele>
        <time>2018-09-22T07:47:50Z</time>
      </trkpt>
      <trkpt lat="48.35153" lon="-0.07163">
        <ele>135</ele>
        <time>2018-09-22T07:47:55Z</time>
      </trkpt>
      <trkpt lat="48.35154" lon="-0.07158">
        <ele>137</ele>
        <time>2018-09-22T07:47:58Z</time>
      </trkpt>
      <trkpt lat="48.35156" lon="-0.07157">
        <ele>139</ele>
        <time>2018-09-22T07:48:02Z</time>
      </trkpt>
      <trkpt lat="48.35165" lon="-0.07153">
        <ele>142</ele>
        <time>2018-09-22T07:48:15Z</time>
      </trkpt>
      <trkpt lat="48.35171" lon="-0.07148">
        <ele>145</ele>
        <time>2018-09-22T07:48:27Z</time>
      </trkpt>
      <trkpt lat="48.35178" lon="-0.07144">
        <ele>146</ele>
        <time>2018-09-22T07:48:37Z</time>
      </trkpt>
      <trkpt lat="48.35189" lon="-0.07139">
        <ele>150</ele>
        <time>2018-09-22T07:48:59Z</time>
      </trkpt>
      <trkpt lat="48.35195" lon="-0.07142">
        <ele>152</ele>
        <time>2018-09-22T07:49:11Z</time>
      </trkpt>
      <trkpt lat="48.35217" lon="-0.07132">
        <ele>150</ele>
        <time>2018-09-22T07:49:42Z</time>
      </trkpt>
      <trkpt lat="48.3522" lon="-0.07133">
        <ele>149</ele>
        <time>2018-09-22T07:49:47Z</time>
      </trkpt>
      <trkpt lat="48.35228" lon="-0.07138">
        <ele>145</ele>
        <time>2018-09-22T07:49:58Z</time>
      </trkpt>
      <trkpt lat="48.3523" lon="-0.0714">
        <ele>146</ele>
        <time>2018-09-22T07:50:02Z</time>
      </trkpt>
      <trkpt lat="48.35232" lon="-0.07141">
        <ele>147</ele>
        <time>2018-09-22T07:50:08Z</time>
      </trkpt>
      <trkpt lat="48.35235" lon="-0.07139">
        <ele>152</ele>
        <time>2018-09-22T07:55:12Z</time>
      </trkpt>
      <trkpt lat="48.35235" lon="-0.07135">
        <ele>155</ele>
        <time>2018-09-22T07:57:08Z</time>
      </trkpt>
      <trkpt lat="48.35236" lon="-0.07133">
        <ele>155</ele>
        <time>2018-09-22T07:57:11Z</time>
      </trkpt>
      <trkpt lat="48.3524" lon="-0.07128">
        <ele>159</ele>
        <time>2018-09-22T07:57:19Z</time>
      </trkpt>
      <trkpt lat="48.35245" lon="-0.07125">
        <ele>160</ele>
        <time>2018-09-22T07:57:25Z</time>
      </trkpt>
      <trkpt lat="48.35257" lon="-0.0712">
        <ele>160</ele>
        <time>2018-09-22T07:57:36Z</time>
      </trkpt>
      <trkpt lat="48.35293" lon="-0.07126">
        <ele>160</ele>
        <time>2018-09-22T07:58:07Z</time>
      </trkpt>
      <trkpt lat="48.35299" lon="-0.07126">
        <ele>159</ele>
        <time>2018-09-22T07:58:12Z</time>
      </trkpt>
      <trkpt lat="48.35307" lon="-0.07127">
        <ele>158</ele>
        <time>2018-09-22T07:58:20Z</time>
      </trkpt>
      <trkpt lat="48.35313" lon="-0.07128">
        <ele>159</ele>
        <time>2018-09-22T07:58:24Z</time>
      </trkpt>
      <trkpt lat="48.35318" lon="-0.0713">
        <ele>160</ele>
        <time>2018-09-22T07:58:28Z</time>
      </trkpt>
      <trkpt lat="48.35324" lon="-0.07131">
        <ele>159</ele>
        <time>2018-09-22T07:58:33Z</time>
      </trkpt>
      <trkpt lat="48.35326" lon="-0.07132">
        <ele>158</ele>
        <time>2018-09-22T07:58:35Z</time>
      </trkpt>
      <trkpt lat="48.35335" lon="-0.07135">
        <ele>157</ele>
        <time>2018-09-22T07:58:44Z</time>
      </trkpt>
      <trkpt lat="48.35339" lon="-0.07136">
        <ele>156</ele>
        <time>2018-09-22T07:58:47Z</time>
      </trkpt>
      <trkpt lat="48.35344" lon="-0.07138">
        <ele>157</ele>
        <time>2018-09-22T07:58:52Z</time>
      </trkpt>
      <trkpt lat="48.35355" lon="-0.0714">
        <ele>157</ele>
        <time>2018-09-22T07:59:01Z</time>
      </trkpt>
      <trkpt lat="48.3537" lon="-0.07146">
        <ele>160</ele>
        <time>2018-09-22T07:59:15Z</time>
      </trkpt>
      <trkpt lat="48.35371" lon="-0.0715">
        <ele>160</ele>
        <time>2018-09-22T07:59:18Z</time>
      </trkpt>
      <trkpt lat="48.35373" lon="-0.07159">
        <ele>160</ele>
        <time>2018-09-22T07:59:24Z</time>
      </trkpt>
      <trkpt lat="48.35373" lon="-0.07163">
        <ele>161</ele>
        <time>2018-09-22T07:59:28Z</time>
      </trkpt>
      <trkpt lat="48.35373" lon="-0.07167">
        <ele>161</ele>
        <time>2018-09-22T07:59:31Z</time>
      </trkpt>
      <trkpt lat="48.35371" lon="-0.07175">
        <ele>161</ele>
        <time>2018-09-22T07:59:37Z</time>
      </trkpt>
      <trkpt lat="48.35371" lon="-0.07183">
        <ele>160</ele>
        <time>2018-09-22T07:59:45Z</time>
      </trkpt>
      <trkpt lat="48.35373" lon="-0.07177">
        <ele>160</ele>
        <time>2018-09-22T08:00:23Z</time>
      </trkpt>
      <trkpt lat="48.35372" lon="-0.07174">
        <ele>160</ele>
        <time>2018-09-22T08:00:35Z</time>
      </trkpt>
      <trkpt lat="48.35372" lon="-0.07175">
        <ele>158</ele>
        <time>2018-09-22T08:01:59Z</time>
      </trkpt>
      <trkpt lat="48.35376" lon="-0.07166">
        <ele>158</ele>
        <time>2018-09-22T08:02:12Z</time>
      </trkpt>
      <trkpt lat="48.35379" lon="-0.07166">
        <ele>158</ele>
        <time>2018-09-22T08:02:21Z</time>
      </trkpt>
      <trkpt lat="48.35383" lon="-0.07163">
        <ele>158</ele>
        <time>2018-09-22T08:02:27Z</time>
      </trkpt>
      <trkpt lat="48.35386" lon="-0.07158">
        <ele>159</ele>
        <time>2018-09-22T08:02:38Z</time>
      </trkpt>
      <trkpt lat="48.35388" lon="-0.07155">
        <ele>159</ele>
        <time>2018-09-22T08:02:42Z</time>
      </trkpt>
      <trkpt lat="48.35396" lon="-0.07153">
        <ele>160</ele>
        <time>2018-09-22T08:02:51Z</time>
      </trkpt>
      <trkpt lat="48.35399" lon="-0.07153">
        <ele>160</ele>
        <time>2018-09-22T08:02:55Z</time>
      </trkpt>
      <trkpt lat="48.35401" lon="-0.07154">
        <ele>159</ele>
        <time>2018-09-22T08:02:59Z</time>
      </trkpt>
      <trkpt lat="48.35409" lon="-0.07156">
        <ele>161</ele>
        <time>2018-09-22T08:03:11Z</time>
      </trkpt>
      <trkpt lat="48.35414" lon="-0.07161">
        <ele>161</ele>
        <time>2018-09-22T08:03:19Z</time>
      </trkpt>
      <trkpt lat="48.35416" lon="-0.07164">
        <ele>160</ele>
        <time>2018-09-22T08:03:22Z</time>
      </trkpt>
      <trkpt lat="48.35426" lon="-0.0717">
        <ele>160</ele>
        <time>2018-09-22T08:03:34Z</time>
      </trkpt>
      <trkpt lat="48.35428" lon="-0.07173">
        <ele>161</ele>
        <time>2018-09-22T08:03:50Z</time>
      </trkpt>
      <trkpt lat="48.3543" lon="-0.07175">
        <ele>161</ele>
        <time>2018-09-22T08:03:55Z</time>
      </trkpt>
      <trkpt lat="48.35444" lon="-0.07189">
        <ele>158</ele>
        <time>2018-09-22T08:04:15Z</time>
      </trkpt>
      <trkpt lat="48.35452" lon="-0.07194">
        <ele>159</ele>
        <time>2018-09-22T08:04:22Z</time>
      </trkpt>
      <trkpt lat="48.35457" lon="-0.07199">
        <ele>157</ele>
        <time>2018-09-22T08:04:28Z</time>
      </trkpt>
      <trkpt lat="48.35466" lon="-0.07206">
        <ele>154</ele>
        <time>2018-09-22T08:04:35Z</time>
      </trkpt>
      <trkpt lat="48.35481" lon="-0.07222">
        <ele>151</ele>
        <time>2018-09-22T08:04:51Z</time>
      </trkpt>
      <trkpt lat="48.35498" lon="-0.07237">
        <ele>149</ele>
        <time>2018-09-22T08:05:11Z</time>
      </trkpt>
      <trkpt lat="48.35505" lon="-0.07245">
        <ele>148</ele>
        <time>2018-09-22T08:05:20Z</time>
      </trkpt>
      <trkpt lat="48.35508" lon="-0.07248">
        <ele>147</ele>
        <time>2018-09-22T08:05:23Z</time>
      </trkpt>
      <trkpt lat="48.35518" lon="-0.07264">
        <ele>146</ele>
        <time>2018-09-22T08:05:37Z</time>
      </trkpt>
      <trkpt lat="48.35522" lon="-0.0727">
        <ele>146</ele>
        <time>2018-09-22T08:05:42Z</time>
      </trkpt>
      <trkpt lat="48.35529" lon="-0.07278">
        <ele>147</ele>
        <time>2018-09-22T08:05:49Z</time>
      </trkpt>
      <trkpt lat="48.35532" lon="-0.07286">
        <ele>148</ele>
        <time>2018-09-22T08:05:54Z</time>
      </trkpt>
      <trkpt lat="48.35539" lon="-0.07317">
        <ele>151</ele>
        <time>2018-09-22T08:06:11Z</time>
      </trkpt>
      <trkpt lat="48.35544" lon="-0.07328">
        <ele>152</ele>
        <time>2018-09-22T08:06:18Z</time>
      </trkpt>
      <trkpt lat="48.35546" lon="-0.07328">
        <ele>153</ele>
        <time>2018-09-22T08:06:20Z</time>
      </trkpt>
      <trkpt lat="48.35555" lon="-0.07329">
        <ele>154</ele>
        <time>2018-09-22T08:06:26Z</time>
      </trkpt>
      <trkpt lat="48.35557" lon="-0.07328">
        <ele>154</ele>
        <time>2018-09-22T08:06:28Z</time>
      </trkpt>
      <trkpt lat="48.3556" lon="-0.07323">
        <ele>154</ele>
        <time>2018-09-22T08:06:41Z</time>
      </trkpt>
      <trkpt lat="48.35559" lon="-0.07328">
        <ele>156</ele>
        <time>2018-09-22T08:07:31Z</time>
      </trkpt>
      <trkpt lat="48.35557" lon="-0.07331">
        <ele>157</ele>
        <time>2018-09-22T08:07:33Z</time>
      </trkpt>
      <trkpt lat="48.35556" lon="-0.07331">
        <ele>156</ele>
        <time>2018-09-22T08:07:35Z</time>
      </trkpt>
      <trkpt lat="48.35552" lon="-0.07331">
        <ele>155</ele>
        <time>2018-09-22T08:07:39Z</time>
      </trkpt>
      <trkpt lat="48.3555" lon="-0.07332">
        <ele>155</ele>
        <time>2018-09-22T08:07:42Z</time>
      </trkpt>
      <trkpt lat="48.35548" lon="-0.07339">
        <ele>152</ele>
        <time>2018-09-22T08:07:46Z</time>
      </trkpt>
      <trkpt lat="48.35548" lon="-0.07346">
        <ele>150</ele>
        <time>2018-09-22T08:07:50Z</time>
      </trkpt>
      <trkpt lat="48.3555" lon="-0.07353">
        <ele>149</ele>
        <time>2018-09-22T08:07:54Z</time>
      </trkpt>
      <trkpt lat="48.3555" lon="-0.07359">
        <ele>148</ele>
        <time>2018-09-22T08:07:59Z</time>
      </trkpt>
      <trkpt lat="48.3555" lon="-0.07363">
        <ele>147</ele>
        <time>2018-09-22T08:08:02Z</time>
      </trkpt>
      <trkpt lat="48.3555" lon="-0.07374">
        <ele>146</ele>
        <time>2018-09-22T08:08:08Z</time>
      </trkpt>
      <trkpt lat="48.35548" lon="-0.07385">
        <ele>144</ele>
        <time>2018-09-22T08:08:16Z</time>
      </trkpt>
      <trkpt lat="48.35548" lon="-0.07393">
        <ele>143</ele>
        <time>2018-09-22T08:08:21Z</time>
      </trkpt>
      <trkpt lat="48.35549" lon="-0.07398">
        <ele>143</ele>
        <time>2018-09-22T08:08:24Z</time>
      </trkpt>
      <trkpt lat="48.35553" lon="-0.07423">
        <ele>142</ele>
        <time>2018-09-22T08:08:40Z</time>
      </trkpt>
      <trkpt lat="48.35553" lon="-0.07427">
        <ele>142</ele>
        <time>2018-09-22T08:08:43Z</time>
      </trkpt>
      <trkpt lat="48.35558" lon="-0.07464">
        <ele>140</ele>
        <time>2018-09-22T08:09:10Z</time>
      </trkpt>
      <trkpt lat="48.3556" lon="-0.0747">
        <ele>140</ele>
        <time>2018-09-22T08:09:15Z</time>
      </trkpt>
      <trkpt lat="48.35561" lon="-0.07478">
        <ele>139</ele>
        <time>2018-09-22T08:09:20Z</time>
      </trkpt>
      <trkpt lat="48.35562" lon="-0.07509">
        <ele>137</ele>
        <time>2018-09-22T08:09:49Z</time>
      </trkpt>
      <trkpt lat="48.35564" lon="-0.07513">
        <ele>137</ele>
        <time>2018-09-22T08:09:52Z</time>
      </trkpt>
      <trkpt lat="48.3557" lon="-0.07517">
        <ele>136</ele>
        <time>2018-09-22T08:09:57Z</time>
      </trkpt>
      <trkpt lat="48.35572" lon="-0.07519">
        <ele>136</ele>
        <time>2018-09-22T08:09:59Z</time>
      </trkpt>
      <trkpt lat="48.35582" lon="-0.07521">
        <ele>135</ele>
        <time>2018-09-22T08:10:10Z</time>
      </trkpt>
      <trkpt lat="48.35586" lon="-0.07519">
        <ele>134</ele>
        <time>2018-09-22T08:10:22Z</time>
      </trkpt>
      <trkpt lat="48.35581" lon="-0.07517">
        <ele>134</ele>
        <time>2018-09-22T08:10:31Z</time>
      </trkpt>
      <trkpt lat="48.35578" lon="-0.0752">
        <ele>134</ele>
        <time>2018-09-22T08:10:34Z</time>
      </trkpt>
      <trkpt lat="48.35577" lon="-0.07523">
        <ele>134</ele>
        <time>2018-09-22T08:10:37Z</time>
      </trkpt>
      <trkpt lat="48.35573" lon="-0.07529">
        <ele>134</ele>
        <time>2018-09-22T08:10:42Z</time>
      </trkpt>
      <trkpt lat="48.35571" lon="-0.07533">
        <ele>133</ele>
        <time>2018-09-22T08:10:45Z</time>
      </trkpt>
      <trkpt lat="48.35568" lon="-0.0755">
        <ele>129</ele>
        <time>2018-09-22T08:10:56Z</time>
      </trkpt>
      <trkpt lat="48.35571" lon="-0.0758">
        <ele>124</ele>
        <time>2018-09-22T08:11:16Z</time>
      </trkpt>
      <trkpt lat="48.35572" lon="-0.07583">
        <ele>124</ele>
        <time>2018-09-22T08:11:24Z</time>
      </trkpt>
      <trkpt lat="48.35574" lon="-0.07587">
        <ele>123</ele>
        <time>2018-09-22T08:11:31Z</time>
      </trkpt>
      <trkpt lat="48.35572" lon="-0.07598">
        <ele>118</ele>
        <time>2018-09-22T08:11:39Z</time>
      </trkpt>
      <trkpt lat="48.35572" lon="-0.07605">
        <ele>115</ele>
        <time>2018-09-22T08:11:45Z</time>
      </trkpt>
      <trkpt lat="48.35571" lon="-0.07608">
        <ele>114</ele>
        <time>2018-09-22T08:11:49Z</time>
      </trkpt>
      <trkpt lat="48.35572" lon="-0.07614">
        <ele>113</ele>
        <time>2018-09-22T08:12:00Z</time>
      </trkpt>
      <trkpt lat="48.35572" lon="-0.07618">
        <ele>111</ele>
        <time>2018-09-22T08:12:07Z</time>
      </trkpt>
      <trkpt lat="48.35571" lon="-0.07621">
        <ele>109</ele>
        <time>2018-09-22T08:12:11Z</time>
      </trkpt>
      <trkpt lat="48.35571" lon="-0.07623">
        <ele>108</ele>
        <time>2018-09-22T08:12:18Z</time>
      </trkpt>
      <trkpt lat="48.35574" lon="-0.07621">
        <ele>109</ele>
        <time>2018-09-22T08:13:02Z</time>
      </trkpt>
      <trkpt lat="48.35575" lon="-0.07618">
        <ele>113</ele>
        <time>2018-09-22T08:13:08Z</time>
      </trkpt>
      <trkpt lat="48.35577" lon="-0.07615">
        <ele>115</ele>
        <time>2018-09-22T08:13:12Z</time>
      </trkpt>
      <trkpt lat="48.35579" lon="-0.07608">
        <ele>120</ele>
        <time>2018-09-22T08:13:20Z</time>
      </trkpt>
      <trkpt lat="48.35578" lon="-0.07599">
        <ele>123</ele>
        <time>2018-09-22T08:13:28Z</time>
      </trkpt>
      <trkpt lat="48.35579" lon="-0.0759">
        <ele>126</ele>
        <time>2018-09-22T08:13:35Z</time>
      </trkpt>
      <trkpt lat="48.35577" lon="-0.07582">
        <ele>125</ele>
        <time>2018-09-22T08:13:40Z</time>
      </trkpt>
      <trkpt lat="48.35577" lon="-0.07574">
        <ele>125</ele>
        <time>2018-09-22T08:13:44Z</time>
      </trkpt>
      <trkpt lat="48.35577" lon="-0.07571">
        <ele>125</ele>
        <time>2018-09-22T08:13:46Z</time>
      </trkpt>
      <trkpt lat="48.35575" lon="-0.07567">
        <ele>126</ele>
        <time>2018-09-22T08:13:49Z</time>
      </trkpt>
      <trkpt lat="48.35574" lon="-0.07551">
        <ele>130</ele>
        <time>2018-09-22T08:14:02Z</time>
      </trkpt>
      <trkpt lat="48.35576" lon="-0.07531">
        <ele>135</ele>
        <time>2018-09-22T08:14:24Z</time>
      </trkpt>
      <trkpt lat="48.35577" lon="-0.07528">
        <ele>136</ele>
        <time>2018-09-22T08:14:27Z</time>
      </trkpt>
      <trkpt lat="48.35579" lon="-0.07525">
        <ele>136</ele>
        <time>2018-09-22T08:14:30Z</time>
      </trkpt>
      <trkpt lat="48.35584" lon="-0.07522">
        <ele>136</ele>
        <time>2018-09-22T08:14:38Z</time>
      </trkpt>
      <trkpt lat="48.35587" lon="-0.07521">
        <ele>136</ele>
        <time>2018-09-22T08:14:43Z</time>
      </trkpt>
      <trkpt lat="48.35589" lon="-0.07519">
        <ele>136</ele>
        <time>2018-09-22T08:14:48Z</time>
      </trkpt>
      <trkpt lat="48.35591" lon="-0.07519">
        <ele>136</ele>
        <time>2018-09-22T08:14:56Z</time>
      </trkpt>
      <trkpt lat="48.35593" lon="-0.07523">
        <ele>136</ele>
        <time>2018-09-22T08:16:08Z</time>
      </trkpt>
      <trkpt lat="48.35592" lon="-0.07522">
        <ele>136</ele>
        <time>2018-09-22T08:16:16Z</time>
      </trkpt>
      <trkpt lat="48.35594" lon="-0.07518">
        <ele>136</ele>
        <time>2018-09-22T08:17:26Z</time>
      </trkpt>
      <trkpt lat="48.35596" lon="-0.0752">
        <ele>135</ele>
        <time>2018-09-22T08:18:35Z</time>
      </trkpt>
      <trkpt lat="48.35598" lon="-0.07522">
        <ele>135</ele>
        <time>2018-09-22T08:18:38Z</time>
      </trkpt>
      <trkpt lat="48.35604" lon="-0.07542">
        <ele>125</ele>
        <time>2018-09-22T08:18:58Z</time>
      </trkpt>
      <trkpt lat="48.35605" lon="-0.07559">
        <ele>123</ele>
        <time>2018-09-22T08:19:11Z</time>
      </trkpt>
      <trkpt lat="48.35604" lon="-0.07563">
        <ele>122</ele>
        <time>2018-09-22T08:19:15Z</time>
      </trkpt>
      <trkpt lat="48.35605" lon="-0.0757">
        <ele>121</ele>
        <time>2018-09-22T08:19:23Z</time>
      </trkpt>
      <trkpt lat="48.35611" lon="-0.07588">
        <ele>120</ele>
        <time>2018-09-22T08:19:39Z</time>
      </trkpt>
      <trkpt lat="48.35613" lon="-0.07601">
        <ele>119</ele>
        <time>2018-09-22T08:19:49Z</time>
      </trkpt>
      <trkpt lat="48.35618" lon="-0.07613">
        <ele>119</ele>
        <time>2018-09-22T08:19:57Z</time>
      </trkpt>
      <trkpt lat="48.35622" lon="-0.0762">
        <ele>118</ele>
        <time>2018-09-22T08:20:03Z</time>
      </trkpt>
      <trkpt lat="48.35625" lon="-0.07628">
        <ele>118</ele>
        <time>2018-09-22T08:20:09Z</time>
      </trkpt>
      <trkpt lat="48.35631" lon="-0.07646">
        <ele>116</ele>
        <time>2018-09-22T08:20:22Z</time>
      </trkpt>
      <trkpt lat="48.35633" lon="-0.0766">
        <ele>115</ele>
        <time>2018-09-22T08:20:32Z</time>
      </trkpt>
      <trkpt lat="48.35636" lon="-0.07677">
        <ele>112</ele>
        <time>2018-09-22T08:20:45Z</time>
      </trkpt>
      <trkpt lat="48.3564" lon="-0.07699">
        <ele>108</ele>
        <time>2018-09-22T08:21:01Z</time>
      </trkpt>
      <trkpt lat="48.3564" lon="-0.07713">
        <ele>106</ele>
        <time>2018-09-22T08:21:10Z</time>
      </trkpt>
      <trkpt lat="48.35644" lon="-0.07729">
        <ele>104</ele>
        <time>2018-09-22T08:21:22Z</time>
      </trkpt>
      <trkpt lat="48.35644" lon="-0.07778">
        <ele>103</ele>
        <time>2018-09-22T08:21:53Z</time>
      </trkpt>
      <trkpt lat="48.35645" lon="-0.07781">
        <ele>103</ele>
        <time>2018-09-22T08:21:55Z</time>
      </trkpt>
      <trkpt lat="48.35649" lon="-0.07792">
        <ele>104</ele>
        <time>2018-09-22T08:22:04Z</time>
      </trkpt>
      <trkpt lat="48.35648" lon="-0.07796">
        <ele>104</ele>
        <time>2018-09-22T08:22:08Z</time>
      </trkpt>
      <trkpt lat="48.35649" lon="-0.078">
        <ele>103</ele>
        <time>2018-09-22T08:22:11Z</time>
      </trkpt>
      <trkpt lat="48.35649" lon="-0.07803">
        <ele>103</ele>
        <time>2018-09-22T08:22:14Z</time>
      </trkpt>
      <trkpt lat="48.3565" lon="-0.07806">
        <ele>103</ele>
        <time>2018-09-22T08:22:17Z</time>
      </trkpt>
      <trkpt lat="48.35649" lon="-0.07815">
        <ele>101</ele>
        <time>2018-09-22T08:22:30Z</time>
      </trkpt>
      <trkpt lat="48.35649" lon="-0.07819">
        <ele>100</ele>
        <time>2018-09-22T08:22:34Z</time>
      </trkpt>
      <trkpt lat="48.35651" lon="-0.07825">
        <ele>102</ele>
        <time>2018-09-22T08:22:55Z</time>
      </trkpt>
      <trkpt lat="48.35651" lon="-0.07828">
        <ele>102</ele>
        <time>2018-09-22T08:23:00Z</time>
      </trkpt>
      <trkpt lat="48.35651" lon="-0.07832">
        <ele>102</ele>
        <time>2018-09-22T08:23:03Z</time>
      </trkpt>
      <trkpt lat="48.35652" lon="-0.07835">
        <ele>102</ele>
        <time>2018-09-22T08:23:08Z</time>
      </trkpt>
      <trkpt lat="48.35652" lon="-0.0785">
        <ele>99</ele>
        <time>2018-09-22T08:23:20Z</time>
      </trkpt>
      <trkpt lat="48.35653" lon="-0.07855">
        <ele>98</ele>
        <time>2018-09-22T08:23:24Z</time>
      </trkpt>
      <trkpt lat="48.35651" lon="-0.07858">
        <ele>98</ele>
        <time>2018-09-22T08:23:27Z</time>
      </trkpt>
      <trkpt lat="48.35649" lon="-0.07868">
        <ele>95</ele>
        <time>2018-09-22T08:23:36Z</time>
      </trkpt>
      <trkpt lat="48.3565" lon="-0.07871">
        <ele>95</ele>
        <time>2018-09-22T08:23:39Z</time>
      </trkpt>
      <trkpt lat="48.35651" lon="-0.07876">
        <ele>94</ele>
        <time>2018-09-22T08:23:49Z</time>
      </trkpt>
      <trkpt lat="48.35651" lon="-0.07882">
        <ele>94</ele>
        <time>2018-09-22T08:23:55Z</time>
      </trkpt>
      <trkpt lat="48.35651" lon="-0.07885">
        <ele>94</ele>
        <time>2018-09-22T08:23:58Z</time>
      </trkpt>
      <trkpt lat="48.35652" lon="-0.07897">
        <ele>91</ele>
        <time>2018-09-22T08:24:08Z</time>
      </trkpt>
      <trkpt lat="48.35653" lon="-0.07901">
        <ele>91</ele>
        <time>2018-09-22T08:24:12Z</time>
      </trkpt>
      <trkpt lat="48.35656" lon="-0.07903">
        <ele>91</ele>
        <time>2018-09-22T08:24:18Z</time>
      </trkpt>
      <trkpt lat="48.35659" lon="-0.07902">
        <ele>92</ele>
        <time>2018-09-22T08:24:25Z</time>
      </trkpt>
      <trkpt lat="48.35662" lon="-0.07901">
        <ele>93</ele>
        <time>2018-09-22T08:24:29Z</time>
      </trkpt>
      <trkpt lat="48.35668" lon="-0.07906">
        <ele>95</ele>
        <time>2018-09-22T08:24:39Z</time>
      </trkpt>
      <trkpt lat="48.35673" lon="-0.0791">
        <ele>97</ele>
        <time>2018-09-22T08:24:50Z</time>
      </trkpt>
      <trkpt lat="48.35688" lon="-0.07908">
        <ele>99</ele>
        <time>2018-09-22T08:25:10Z</time>
      </trkpt>
      <trkpt lat="48.35696" lon="-0.07904">
        <ele>100</ele>
        <time>2018-09-22T08:25:17Z</time>
      </trkpt>
      <trkpt lat="48.35697" lon="-0.07902">
        <ele>101</ele>
        <time>2018-09-22T08:25:19Z</time>
      </trkpt>
      <trkpt lat="48.35705" lon="-0.079">
        <ele>101</ele>
        <time>2018-09-22T08:25:29Z</time>
      </trkpt>
      <trkpt lat="48.35711" lon="-0.07893">
        <ele>100</ele>
        <time>2018-09-22T08:25:38Z</time>
      </trkpt>
      <trkpt lat="48.35714" lon="-0.07892">
        <ele>101</ele>
        <time>2018-09-22T08:25:41Z</time>
      </trkpt>
      <trkpt lat="48.35717" lon="-0.07893">
        <ele>101</ele>
        <time>2018-09-22T08:25:45Z</time>
      </trkpt>
      <trkpt lat="48.35719" lon="-0.07893">
        <ele>101</ele>
        <time>2018-09-22T08:25:48Z</time>
      </trkpt>
      <trkpt lat="48.35725" lon="-0.0789">
        <ele>102</ele>
        <time>2018-09-22T08:25:54Z</time>
      </trkpt>
      <trkpt lat="48.35729" lon="-0.07887">
        <ele>103</ele>
        <time>2018-09-22T08:26:00Z</time>
      </trkpt>
      <trkpt lat="48.35731" lon="-0.07884">
        <ele>103</ele>
        <time>2018-09-22T08:26:04Z</time>
      </trkpt>
      <trkpt lat="48.35733" lon="-0.07884">
        <ele>103</ele>
        <time>2018-09-22T08:26:07Z</time>
      </trkpt>
      <trkpt lat="48.35738" lon="-0.07882">
        <ele>102</ele>
        <time>2018-09-22T08:26:13Z</time>
      </trkpt>
      <trkpt lat="48.35745" lon="-0.07881">
        <ele>103</ele>
        <time>2018-09-22T08:26:23Z</time>
      </trkpt>
      <trkpt lat="48.35758" lon="-0.07875">
        <ele>103</ele>
        <time>2018-09-22T08:26:38Z</time>
      </trkpt>
      <trkpt lat="48.35763" lon="-0.07874">
        <ele>103</ele>
        <time>2018-09-22T08:26:46Z</time>
      </trkpt>
      <trkpt lat="48.35764" lon="-0.07873">
        <ele>103</ele>
        <time>2018-09-22T08:26:54Z</time>
      </trkpt>
      <trkpt lat="48.35765" lon="-0.0787">
        <ele>103</ele>
        <time>2018-09-22T08:27:14Z</time>
      </trkpt>
      <trkpt lat="48.3577" lon="-0.07869">
        <ele>104</ele>
        <time>2018-09-22T08:27:21Z</time>
      </trkpt>
      <trkpt lat="48.35775" lon="-0.07866">
        <ele>103</ele>
        <time>2018-09-22T08:27:29Z</time>
      </trkpt>
      <trkpt lat="48.3578" lon="-0.07863">
        <ele>101</ele>
        <time>2018-09-22T08:27:35Z</time>
      </trkpt>
      <trkpt lat="48.35782" lon="-0.0786">
        <ele>100</ele>
        <time>2018-09-22T08:27:38Z</time>
      </trkpt>
      <trkpt lat="48.35783" lon="-0.07857">
        <ele>99</ele>
        <time>2018-09-22T08:27:40Z</time>
      </trkpt>
      <trkpt lat="48.35786" lon="-0.07855">
        <ele>97</ele>
        <time>2018-09-22T08:27:43Z</time>
      </trkpt>
      <trkpt lat="48.3579" lon="-0.0785">
        <ele>96</ele>
        <time>2018-09-22T08:27:50Z</time>
      </trkpt>
      <trkpt lat="48.35793" lon="-0.07848">
        <ele>96</ele>
        <time>2018-09-22T08:27:53Z</time>
      </trkpt>
      <trkpt lat="48.35796" lon="-0.07847">
        <ele>96</ele>
        <time>2018-09-22T08:27:56Z</time>
      </trkpt>
      <trkpt lat="48.35803" lon="-0.07845">
        <ele>96</ele>
        <time>2018-09-22T08:28:03Z</time>
      </trkpt>
      <trkpt lat="48.35805" lon="-0.07845">
        <ele>95</ele>
        <time>2018-09-22T08:28:07Z</time>
      </trkpt>
      <trkpt lat="48.3581" lon="-0.07841">
        <ele>97</ele>
        <time>2018-09-22T08:28:18Z</time>
      </trkpt>
      <trkpt lat="48.35812" lon="-0.07838">
        <ele>98</ele>
        <time>2018-09-22T08:28:22Z</time>
      </trkpt>
      <trkpt lat="48.35814" lon="-0.07846">
        <ele>98</ele>
        <time>2018-09-22T08:28:37Z</time>
      </trkpt>
      <trkpt lat="48.35812" lon="-0.07854">
        <ele>96</ele>
        <time>2018-09-22T08:28:45Z</time>
      </trkpt>
      <trkpt lat="48.35813" lon="-0.07858">
        <ele>95</ele>
        <time>2018-09-22T08:28:48Z</time>
      </trkpt>
      <trkpt lat="48.35812" lon="-0.07862">
        <ele>94</ele>
        <time>2018-09-22T08:28:52Z</time>
      </trkpt>
      <trkpt lat="48.35813" lon="-0.07878">
        <ele>92</ele>
        <time>2018-09-22T08:29:07Z</time>
      </trkpt>
      <trkpt lat="48.35815" lon="-0.07903">
        <ele>86</ele>
        <time>2018-09-22T08:29:24Z</time>
      </trkpt>
      <trkpt lat="48.35816" lon="-0.07907">
        <ele>85</ele>
        <time>2018-09-22T08:29:26Z</time>
      </trkpt>
      <trkpt lat="48.35817" lon="-0.07909">
        <ele>85</ele>
        <time>2018-09-22T08:29:28Z</time>
      </trkpt>
      <trkpt lat="48.35819" lon="-0.07911">
        <ele>85</ele>
        <time>2018-09-22T08:29:32Z</time>
      </trkpt>
      <trkpt lat="48.35822" lon="-0.07912">
        <ele>85</ele>
        <time>2018-09-22T08:29:35Z</time>
      </trkpt>
      <trkpt lat="48.35827" lon="-0.0791">
        <ele>84</ele>
        <time>2018-09-22T08:29:43Z</time>
      </trkpt>
      <trkpt lat="48.35838" lon="-0.07905">
        <ele>83</ele>
        <time>2018-09-22T08:29:54Z</time>
      </trkpt>
      <trkpt lat="48.35842" lon="-0.07902">
        <ele>83</ele>
        <time>2018-09-22T08:29:59Z</time>
      </trkpt>
      <trkpt lat="48.35855" lon="-0.07893">
        <ele>84</ele>
        <time>2018-09-22T08:30:11Z</time>
      </trkpt>
      <trkpt lat="48.35855" lon="-0.07891">
        <ele>86</ele>
        <time>2018-09-22T08:31:40Z</time>
      </trkpt>
      <trkpt lat="48.35861" lon="-0.07889">
        <ele>87</ele>
        <time>2018-09-22T08:31:48Z</time>
      </trkpt>
      <trkpt lat="48.35864" lon="-0.07887">
        <ele>87</ele>
        <time>2018-09-22T08:31:52Z</time>
      </trkpt>
      <trkpt lat="48.35865" lon="-0.07886">
        <ele>87</ele>
        <time>2018-09-22T08:31:54Z</time>
      </trkpt>
      <trkpt lat="48.35867" lon="-0.07884">
        <ele>87</ele>
        <time>2018-09-22T08:31:56Z</time>
      </trkpt>
      <trkpt lat="48.35869" lon="-0.07881">
        <ele>88</ele>
        <time>2018-09-22T08:32:00Z</time>
      </trkpt>
      <trkpt lat="48.3587" lon="-0.07879">
        <ele>89</ele>
        <time>2018-09-22T08:32:02Z</time>
      </trkpt>
      <trkpt lat="48.35872" lon="-0.07878">
        <ele>89</ele>
        <time>2018-09-22T08:32:04Z</time>
      </trkpt>
      <trkpt lat="48.35876" lon="-0.07873">
        <ele>89</ele>
        <time>2018-09-22T08:32:10Z</time>
      </trkpt>
      <trkpt lat="48.35877" lon="-0.07872">
        <ele>89</ele>
        <time>2018-09-22T08:32:18Z</time>
      </trkpt>
      <trkpt lat="48.3589" lon="-0.07862">
        <ele>88</ele>
        <time>2018-09-22T08:32:34Z</time>
      </trkpt>
      <trkpt lat="48.359" lon="-0.07854">
        <ele>88</ele>
        <time>2018-09-22T08:32:49Z</time>
      </trkpt>
      <trkpt lat="48.35906" lon="-0.07851">
        <ele>88</ele>
        <time>2018-09-22T08:32:55Z</time>
      </trkpt>
      <trkpt lat="48.35908" lon="-0.07849">
        <ele>88</ele>
        <time>2018-09-22T08:32:58Z</time>
      </trkpt>
      <trkpt lat="48.3591" lon="-0.07848">
        <ele>88</ele>
        <time>2018-09-22T08:33:01Z</time>
      </trkpt>
      <trkpt lat="48.35912" lon="-0.07847">
        <ele>87</ele>
        <time>2018-09-22T08:33:08Z</time>
      </trkpt>
      <trkpt lat="48.35921" lon="-0.07841">
        <ele>89</ele>
        <time>2018-09-22T08:33:28Z</time>
      </trkpt>
      <trkpt lat="48.35931" lon="-0.07832">
        <ele>84</ele>
        <time>2018-09-22T08:33:38Z</time>
      </trkpt>
      <trkpt lat="48.35941" lon="-0.07818">
        <ele>80</ele>
        <time>2018-09-22T08:33:49Z</time>
      </trkpt>
      <trkpt lat="48.35942" lon="-0.07816">
        <ele>80</ele>
        <time>2018-09-22T08:33:51Z</time>
      </trkpt>
      <trkpt lat="48.35967" lon="-0.07789">
        <ele>75</ele>
        <time>2018-09-22T08:34:21Z</time>
      </trkpt>
      <trkpt lat="48.35981" lon="-0.0778">
        <ele>74</ele>
        <time>2018-09-22T08:34:33Z</time>
      </trkpt>
      <trkpt lat="48.35986" lon="-0.07779">
        <ele>75</ele>
        <time>2018-09-22T08:34:37Z</time>
      </trkpt>
      <trkpt lat="48.3599" lon="-0.07776">
        <ele>75</ele>
        <time>2018-09-22T08:34:41Z</time>
      </trkpt>
      <trkpt lat="48.35992" lon="-0.07775">
        <ele>75</ele>
        <time>2018-09-22T08:34:43Z</time>
      </trkpt>
      <trkpt lat="48.35996" lon="-0.07777">
        <ele>73</ele>
        <time>2018-09-22T08:34:47Z</time>
      </trkpt>
      <trkpt lat="48.35999" lon="-0.07778">
        <ele>73</ele>
        <time>2018-09-22T08:34:49Z</time>
      </trkpt>
      <trkpt lat="48.36001" lon="-0.07779">
        <ele>73</ele>
        <time>2018-09-22T08:34:53Z</time>
      </trkpt>
      <trkpt lat="48.36003" lon="-0.07784">
        <ele>72</ele>
        <time>2018-09-22T08:34:57Z</time>
      </trkpt>
      <trkpt lat="48.36007" lon="-0.07797">
        <ele>73</ele>
        <time>2018-09-22T08:35:05Z</time>
      </trkpt>
      <trkpt lat="48.36009" lon="-0.07816">
        <ele>74</ele>
        <time>2018-09-22T08:35:19Z</time>
      </trkpt>
      <trkpt lat="48.3601" lon="-0.0782">
        <ele>74</ele>
        <time>2018-09-22T08:35:21Z</time>
      </trkpt>
      <trkpt lat="48.36009" lon="-0.07823">
        <ele>74</ele>
        <time>2018-09-22T08:35:23Z</time>
      </trkpt>
      <trkpt lat="48.36009" lon="-0.07827">
        <ele>74</ele>
        <time>2018-09-22T08:35:25Z</time>
      </trkpt>
      <trkpt lat="48.36011" lon="-0.07833">
        <ele>74</ele>
        <time>2018-09-22T08:35:29Z</time>
      </trkpt>
      <trkpt lat="48.36013" lon="-0.07836">
        <ele>74</ele>
        <time>2018-09-22T08:35:31Z</time>
      </trkpt>
      <trkpt lat="48.36017" lon="-0.0784">
        <ele>74</ele>
        <time>2018-09-22T08:35:35Z</time>
      </trkpt>
      <trkpt lat="48.36021" lon="-0.07841">
        <ele>75</ele>
        <time>2018-09-22T08:35:39Z</time>
      </trkpt>
      <trkpt lat="48.36023" lon="-0.07841">
        <ele>75</ele>
        <time>2018-09-22T08:35:41Z</time>
      </trkpt>
      <trkpt lat="48.3603" lon="-0.07838">
        <ele>75</ele>
        <time>2018-09-22T08:35:47Z</time>
      </trkpt>
      <trkpt lat="48.36036" lon="-0.07832">
        <ele>74</ele>
        <time>2018-09-22T08:35:55Z</time>
      </trkpt>
      <trkpt lat="48.36037" lon="-0.07829">
        <ele>73</ele>
        <time>2018-09-22T08:35:58Z</time>
      </trkpt>
      <trkpt lat="48.36041" lon="-0.07823">
        <ele>72</ele>
        <time>2018-09-22T08:36:04Z</time>
      </trkpt>
      <trkpt lat="48.36043" lon="-0.07819">
        <ele>72</ele>
        <time>2018-09-22T08:36:07Z</time>
      </trkpt>
      <trkpt lat="48.36045" lon="-0.07812">
        <ele>70</ele>
        <time>2018-09-22T08:36:13Z</time>
      </trkpt>
      <trkpt lat="48.36055" lon="-0.07802">
        <ele>70</ele>
        <time>2018-09-22T08:36:24Z</time>
      </trkpt>
      <trkpt lat="48.36056" lon="-0.07799">
        <ele>71</ele>
        <time>2018-09-22T08:36:26Z</time>
      </trkpt>
      <trkpt lat="48.36066" lon="-0.07772">
        <ele>70</ele>
        <time>2018-09-22T08:36:45Z</time>
      </trkpt>
      <trkpt lat="48.36069" lon="-0.0776">
        <ele>67</ele>
        <time>2018-09-22T08:36:53Z</time>
      </trkpt>
      <trkpt lat="48.3607" lon="-0.07756">
        <ele>67</ele>
        <time>2018-09-22T08:36:55Z</time>
      </trkpt>
      <trkpt lat="48.36075" lon="-0.07743">
        <ele>66</ele>
        <time>2018-09-22T08:37:03Z</time>
      </trkpt>
      <trkpt lat="48.36079" lon="-0.07725">
        <ele>67</ele>
        <time>2018-09-22T08:37:13Z</time>
      </trkpt>
      <trkpt lat="48.36083" lon="-0.07712">
        <ele>67</ele>
        <time>2018-09-22T08:37:21Z</time>
      </trkpt>
      <trkpt lat="48.36085" lon="-0.07709">
        <ele>68</ele>
        <time>2018-09-22T08:37:23Z</time>
      </trkpt>
      <trkpt lat="48.36091" lon="-0.07689">
        <ele>66</ele>
        <time>2018-09-22T08:37:36Z</time>
      </trkpt>
      <trkpt lat="48.36098" lon="-0.07673">
        <ele>63</ele>
        <time>2018-09-22T08:37:48Z</time>
      </trkpt>
      <trkpt lat="48.36101" lon="-0.07663">
        <ele>60</ele>
        <time>2018-09-22T08:37:56Z</time>
      </trkpt>
      <trkpt lat="48.36107" lon="-0.07654">
        <ele>60</ele>
        <time>2018-09-22T08:38:02Z</time>
      </trkpt>
      <trkpt lat="48.36108" lon="-0.0765">
        <ele>59</ele>
        <time>2018-09-22T08:38:05Z</time>
      </trkpt>
      <trkpt lat="48.36125" lon="-0.07618">
        <ele>58</ele>
        <time>2018-09-22T08:38:31Z</time>
      </trkpt>
      <trkpt lat="48.36128" lon="-0.07611">
        <ele>56</ele>
        <time>2018-09-22T08:38:37Z</time>
      </trkpt>
      <trkpt lat="48.3613" lon="-0.07607">
        <ele>55</ele>
        <time>2018-09-22T08:38:40Z</time>
      </trkpt>
      <trkpt lat="48.36159" lon="-0.07575">
        <ele>51</ele>
        <time>2018-09-22T08:39:12Z</time>
      </trkpt>
      <trkpt lat="48.36174" lon="-0.07566">
        <ele>51</ele>
        <time>2018-09-22T08:39:25Z</time>
      </trkpt>
      <trkpt lat="48.36209" lon="-0.07556">
        <ele>51</ele>
        <time>2018-09-22T08:39:53Z</time>
      </trkpt>
      <trkpt lat="48.36241" lon="-0.07555">
        <ele>53</ele>
        <time>2018-09-22T08:40:17Z</time>
      </trkpt>
      <trkpt lat="48.36244" lon="-0.07555">
        <ele>53</ele>
        <time>2018-09-22T08:40:19Z</time>
      </trkpt>
      <trkpt lat="48.36273" lon="-0.07552">
        <ele>56</ele>
        <time>2018-09-22T08:40:48Z</time>
      </trkpt>
      <trkpt lat="48.36276" lon="-0.07551">
        <ele>56</ele>
        <time>2018-09-22T08:41:08Z</time>
      </trkpt>
      <trkpt lat="48.36277" lon="-0.07553">
        <ele>53</ele>
        <time>2018-09-22T08:41:12Z</time>
      </trkpt>
      <trkpt lat="48.36278" lon="-0.07556">
        <ele>53</ele>
        <time>2018-09-22T08:41:16Z</time>
      </trkpt>
      <trkpt lat="48.3628" lon="-0.07559">
        <ele>51</ele>
        <time>2018-09-22T08:41:20Z</time>
      </trkpt>
      <trkpt lat="48.36282" lon="-0.07561">
        <ele>50</ele>
        <time>2018-09-22T08:41:23Z</time>
      </trkpt>
      <trkpt lat="48.36298" lon="-0.07571">
        <ele>48</ele>
        <time>2018-09-22T08:41:48Z</time>
      </trkpt>
      <trkpt lat="48.363" lon="-0.07573">
        <ele>48</ele>
        <time>2018-09-22T08:41:51Z</time>
      </trkpt>
      <trkpt lat="48.36307" lon="-0.07578">
        <ele>47</ele>
        <time>2018-09-22T08:42:00Z</time>
      </trkpt>
      <trkpt lat="48.36312" lon="-0.07581">
        <ele>49</ele>
        <time>2018-09-22T08:42:06Z</time>
      </trkpt>
      <trkpt lat="48.36316" lon="-0.07583">
        <ele>50</ele>
        <time>2018-09-22T08:42:11Z</time>
      </trkpt>
      <trkpt lat="48.36321" lon="-0.07585">
        <ele>51</ele>
        <time>2018-09-22T08:42:15Z</time>
      </trkpt>
      <trkpt lat="48.36324" lon="-0.07586">
        <ele>51</ele>
        <time>2018-09-22T08:42:17Z</time>
      </trkpt>
      <trkpt lat="48.36328" lon="-0.07589">
        <ele>52</ele>
        <time>2018-09-22T08:42:21Z</time>
      </trkpt>
      <trkpt lat="48.36331" lon="-0.07591">
        <ele>53</ele>
        <time>2018-09-22T08:42:23Z</time>
      </trkpt>
      <trkpt lat="48.36332" lon="-0.07593">
        <ele>53</ele>
        <time>2018-09-22T08:42:25Z</time>
      </trkpt>
      <trkpt lat="48.36335" lon="-0.07597">
        <ele>53</ele>
        <time>2018-09-22T08:42:29Z</time>
      </trkpt>
      <trkpt lat="48.36336" lon="-0.07599">
        <ele>53</ele>
        <time>2018-09-22T08:42:32Z</time>
      </trkpt>
      <trkpt lat="48.36338" lon="-0.07597">
        <ele>54</ele>
        <time>2018-09-22T08:42:58Z</time>
      </trkpt>
      <trkpt lat="48.36342" lon="-0.07598">
        <ele>53</ele>
        <time>2018-09-22T08:43:04Z</time>
      </trkpt>
      <trkpt lat="48.36346" lon="-0.07597">
        <ele>53</ele>
        <time>2018-09-22T08:43:10Z</time>
      </trkpt>
      <trkpt lat="48.36349" lon="-0.07599">
        <ele>53</ele>
        <time>2018-09-22T08:43:14Z</time>
      </trkpt>
      <trkpt lat="48.36355" lon="-0.07604">
        <ele>53</ele>
        <time>2018-09-22T08:43:20Z</time>
      </trkpt>
      <trkpt lat="48.36357" lon="-0.07606">
        <ele>53</ele>
        <time>2018-09-22T08:43:22Z</time>
      </trkpt>
      <trkpt lat="48.36362" lon="-0.07611">
        <ele>54</ele>
        <time>2018-09-22T08:43:28Z</time>
      </trkpt>
      <trkpt lat="48.36364" lon="-0.07612">
        <ele>54</ele>
        <time>2018-09-22T08:43:30Z</time>
      </trkpt>
      <trkpt lat="48.36367" lon="-0.07613">
        <ele>54</ele>
        <time>2018-09-22T08:43:32Z</time>
      </trkpt>
      <trkpt lat="48.36369" lon="-0.07614">
        <ele>54</ele>
        <time>2018-09-22T08:43:34Z</time>
      </trkpt>
      <trkpt lat="48.36371" lon="-0.07616">
        <ele>54</ele>
        <time>2018-09-22T08:43:36Z</time>
      </trkpt>
      <trkpt lat="48.36379" lon="-0.07624">
        <ele>53</ele>
        <time>2018-09-22T08:43:46Z</time>
      </trkpt>
      <trkpt lat="48.36382" lon="-0.07626">
        <ele>53</ele>
        <time>2018-09-22T08:43:49Z</time>
      </trkpt>
      <trkpt lat="48.36386" lon="-0.07629">
        <ele>54</ele>
        <time>2018-09-22T08:43:53Z</time>
      </trkpt>
      <trkpt lat="48.36388" lon="-0.07631">
        <ele>54</ele>
        <time>2018-09-22T08:43:55Z</time>
      </trkpt>
      <trkpt lat="48.36391" lon="-0.07632">
        <ele>55</ele>
        <time>2018-09-22T08:43:57Z</time>
      </trkpt>
      <trkpt lat="48.36395" lon="-0.07634">
        <ele>56</ele>
        <time>2018-09-22T08:44:01Z</time>
      </trkpt>
      <trkpt lat="48.36403" lon="-0.07638">
        <ele>55</ele>
        <time>2018-09-22T08:44:07Z</time>
      </trkpt>
      <trkpt lat="48.36405" lon="-0.07639">
        <ele>54</ele>
        <time>2018-09-22T08:44:09Z</time>
      </trkpt>
      <trkpt lat="48.36407" lon="-0.07641">
        <ele>54</ele>
        <time>2018-09-22T08:44:11Z</time>
      </trkpt>
      <trkpt lat="48.36413" lon="-0.07644">
        <ele>54</ele>
        <time>2018-09-22T08:44:17Z</time>
      </trkpt>
      <trkpt lat="48.36418" lon="-0.07648">
        <ele>54</ele>
        <time>2018-09-22T08:44:23Z</time>
      </trkpt>
      <trkpt lat="48.36423" lon="-0.0765">
        <ele>55</ele>
        <time>2018-09-22T08:44:27Z</time>
      </trkpt>
      <trkpt lat="48.36425" lon="-0.07652">
        <ele>55</ele>
        <time>2018-09-22T08:44:29Z</time>
      </trkpt>
      <trkpt lat="48.36429" lon="-0.07655">
        <ele>56</ele>
        <time>2018-09-22T08:44:33Z</time>
      </trkpt>
      <trkpt lat="48.36446" lon="-0.07671">
        <ele>55</ele>
        <time>2018-09-22T08:44:51Z</time>
      </trkpt>
      <trkpt lat="48.36456" lon="-0.07678">
        <ele>58</ele>
        <time>2018-09-22T08:45:01Z</time>
      </trkpt>
      <trkpt lat="48.36458" lon="-0.0768">
        <ele>59</ele>
        <time>2018-09-22T08:45:03Z</time>
      </trkpt>
      <trkpt lat="48.36461" lon="-0.07681">
        <ele>59</ele>
        <time>2018-09-22T08:45:05Z</time>
      </trkpt>
      <trkpt lat="48.36471" lon="-0.07685">
        <ele>58</ele>
        <time>2018-09-22T08:45:13Z</time>
      </trkpt>
      <trkpt lat="48.36474" lon="-0.07686">
        <ele>58</ele>
        <time>2018-09-22T08:45:15Z</time>
      </trkpt>
      <trkpt lat="48.36476" lon="-0.07687">
        <ele>58</ele>
        <time>2018-09-22T08:45:17Z</time>
      </trkpt>
      <trkpt lat="48.36482" lon="-0.07688">
        <ele>57</ele>
        <time>2018-09-22T08:45:21Z</time>
      </trkpt>
      <trkpt lat="48.36484" lon="-0.07689">
        <ele>57</ele>
        <time>2018-09-22T08:45:23Z</time>
      </trkpt>
      <trkpt lat="48.36487" lon="-0.0769">
        <ele>57</ele>
        <time>2018-09-22T08:45:25Z</time>
      </trkpt>
      <trkpt lat="48.36489" lon="-0.07692">
        <ele>58</ele>
        <time>2018-09-22T08:45:27Z</time>
      </trkpt>
      <trkpt lat="48.36492" lon="-0.07693">
        <ele>58</ele>
        <time>2018-09-22T08:45:29Z</time>
      </trkpt>
      <trkpt lat="48.36494" lon="-0.07694">
        <ele>58</ele>
        <time>2018-09-22T08:45:31Z</time>
      </trkpt>
      <trkpt lat="48.36495" lon="-0.07695">
        <ele>58</ele>
        <time>2018-09-22T08:45:33Z</time>
      </trkpt>
      <trkpt lat="48.365" lon="-0.07696">
        <ele>59</ele>
        <time>2018-09-22T08:45:37Z</time>
      </trkpt>
      <trkpt lat="48.36502" lon="-0.07698">
        <ele>59</ele>
        <time>2018-09-22T08:45:40Z</time>
      </trkpt>
      <trkpt lat="48.36503" lon="-0.07697">
        <ele>59</ele>
        <time>2018-09-22T08:45:53Z</time>
      </trkpt>
      <trkpt lat="48.36505" lon="-0.07698">
        <ele>59</ele>
        <time>2018-09-22T08:46:09Z</time>
      </trkpt>
      <trkpt lat="48.36506" lon="-0.07699">
        <ele>59</ele>
        <time>2018-09-22T08:46:25Z</time>
      </trkpt>
      <trkpt lat="48.36508" lon="-0.07701">
        <ele>59</ele>
        <time>2018-09-22T08:46:28Z</time>
      </trkpt>
      <trkpt lat="48.3651" lon="-0.07703">
        <ele>59</ele>
        <time>2018-09-22T08:46:30Z</time>
      </trkpt>
      <trkpt lat="48.36538" lon="-0.07721">
        <ele>58</ele>
        <time>2018-09-22T08:46:58Z</time>
      </trkpt>
      <trkpt lat="48.36542" lon="-0.07723">
        <ele>58</ele>
        <time>2018-09-22T08:47:02Z</time>
      </trkpt>
      <trkpt lat="48.36572" lon="-0.0774">
        <ele>59</ele>
        <time>2018-09-22T08:47:32Z</time>
      </trkpt>
      <trkpt lat="48.3658" lon="-0.07746">
        <ele>59</ele>
        <time>2018-09-22T08:47:40Z</time>
      </trkpt>
      <trkpt lat="48.36613" lon="-0.07754">
        <ele>55</ele>
        <time>2018-09-22T08:48:12Z</time>
      </trkpt>
      <trkpt lat="48.36648" lon="-0.0776">
        <ele>52</ele>
        <time>2018-09-22T08:48:43Z</time>
      </trkpt>
      <trkpt lat="48.36655" lon="-0.07761">
        <ele>54</ele>
        <time>2018-09-22T08:48:52Z</time>
      </trkpt>
      <trkpt lat="48.36658" lon="-0.0776">
        <ele>54</ele>
        <time>2018-09-22T08:48:58Z</time>
      </trkpt>
      <trkpt lat="48.3666" lon="-0.07756">
        <ele>54</ele>
        <time>2018-09-22T08:49:02Z</time>
      </trkpt>
      <trkpt lat="48.36661" lon="-0.07749">
        <ele>54</ele>
        <time>2018-09-22T08:49:06Z</time>
      </trkpt>
      <trkpt lat="48.36666" lon="-0.07703">
        <ele>58</ele>
        <time>2018-09-22T08:49:34Z</time>
      </trkpt>
      <trkpt lat="48.36667" lon="-0.077">
        <ele>58</ele>
        <time>2018-09-22T08:49:36Z</time>
      </trkpt>
      <trkpt lat="48.3667" lon="-0.07681">
        <ele>58</ele>
        <time>2018-09-22T08:49:50Z</time>
      </trkpt>
      <trkpt lat="48.36671" lon="-0.07673">
        <ele>59</ele>
        <time>2018-09-22T08:49:56Z</time>
      </trkpt>
      <trkpt lat="48.36671" lon="-0.07669">
        <ele>60</ele>
        <time>2018-09-22T08:49:59Z</time>
      </trkpt>
      <trkpt lat="48.36673" lon="-0.07667">
        <ele>60</ele>
        <time>2018-09-22T08:50:03Z</time>
      </trkpt>
      <trkpt lat="48.36675" lon="-0.07665">
        <ele>60</ele>
        <time>2018-09-22T08:50:06Z</time>
      </trkpt>
      <trkpt lat="48.36693" lon="-0.07666">
        <ele>60</ele>
        <time>2018-09-22T08:50:25Z</time>
      </trkpt>
      <trkpt lat="48.36696" lon="-0.07666">
        <ele>59</ele>
        <time>2018-09-22T08:50:27Z</time>
      </trkpt>
      <trkpt lat="48.3671" lon="-0.07671">
        <ele>57</ele>
        <time>2018-09-22T08:50:40Z</time>
      </trkpt>
      <trkpt lat="48.36724" lon="-0.07672">
        <ele>59</ele>
        <time>2018-09-22T08:50:52Z</time>
      </trkpt>
      <trkpt lat="48.36727" lon="-0.07673">
        <ele>58</ele>
        <time>2018-09-22T08:50:55Z</time>
      </trkpt>
      <trkpt lat="48.36739" lon="-0.07683">
        <ele>57</ele>
        <time>2018-09-22T08:51:08Z</time>
      </trkpt>
      <trkpt lat="48.3674" lon="-0.07685">
        <ele>57</ele>
        <time>2018-09-22T08:51:10Z</time>
      </trkpt>
      <trkpt lat="48.36743" lon="-0.07687">
        <ele>57</ele>
        <time>2018-09-22T08:51:12Z</time>
      </trkpt>
      <trkpt lat="48.36744" lon="-0.0769">
        <ele>57</ele>
        <time>2018-09-22T08:51:14Z</time>
      </trkpt>
      <trkpt lat="48.36757" lon="-0.07702">
        <ele>57</ele>
        <time>2018-09-22T08:51:28Z</time>
      </trkpt>
      <trkpt lat="48.36759" lon="-0.07704">
        <ele>57</ele>
        <time>2018-09-22T08:51:30Z</time>
      </trkpt>
      <trkpt lat="48.36763" lon="-0.07708">
        <ele>57</ele>
        <time>2018-09-22T08:51:34Z</time>
      </trkpt>
      <trkpt lat="48.36767" lon="-0.07714">
        <ele>56</ele>
        <time>2018-09-22T08:51:39Z</time>
      </trkpt>
      <trkpt lat="48.36768" lon="-0.07717">
        <ele>55</ele>
        <time>2018-09-22T08:51:42Z</time>
      </trkpt>
      <trkpt lat="48.36771" lon="-0.07726">
        <ele>55</ele>
        <time>2018-09-22T08:51:48Z</time>
      </trkpt>
      <trkpt lat="48.36772" lon="-0.07729">
        <ele>54</ele>
        <time>2018-09-22T08:51:51Z</time>
      </trkpt>
      <trkpt lat="48.36771" lon="-0.07732">
        <ele>54</ele>
        <time>2018-09-22T08:51:53Z</time>
      </trkpt>
      <trkpt lat="48.3677" lon="-0.07735">
        <ele>54</ele>
        <time>2018-09-22T08:51:56Z</time>
      </trkpt>
      <trkpt lat="48.36768" lon="-0.07736">
        <ele>54</ele>
        <time>2018-09-22T08:51:59Z</time>
      </trkpt>
      <trkpt lat="48.36769" lon="-0.07736">
        <ele>55</ele>
        <time>2018-09-22T08:52:34Z</time>
      </trkpt>
      <trkpt lat="48.36773" lon="-0.07737">
        <ele>56</ele>
        <time>2018-09-22T08:53:02Z</time>
      </trkpt>
      <trkpt lat="48.36775" lon="-0.07738">
        <ele>56</ele>
        <time>2018-09-22T08:53:04Z</time>
      </trkpt>
      <trkpt lat="48.36777" lon="-0.07739">
        <ele>56</ele>
        <time>2018-09-22T08:53:06Z</time>
      </trkpt>
      <trkpt lat="48.3678" lon="-0.0774">
        <ele>56</ele>
        <time>2018-09-22T08:53:10Z</time>
      </trkpt>
      <trkpt lat="48.36782" lon="-0.07741">
        <ele>57</ele>
        <time>2018-09-22T08:53:12Z</time>
      </trkpt>
      <trkpt lat="48.36786" lon="-0.07742">
        <ele>57</ele>
        <time>2018-09-22T08:53:17Z</time>
      </trkpt>
      <trkpt lat="48.36789" lon="-0.07742">
        <ele>58</ele>
        <time>2018-09-22T08:53:20Z</time>
      </trkpt>
      <trkpt lat="48.36811" lon="-0.07745">
        <ele>67</ele>
        <time>2018-09-22T08:53:50Z</time>
      </trkpt>
      <trkpt lat="48.36813" lon="-0.07746">
        <ele>67</ele>
        <time>2018-09-22T08:53:54Z</time>
      </trkpt>
      <trkpt lat="48.36823" lon="-0.07747">
        <ele>66</ele>
        <time>2018-09-22T08:54:05Z</time>
      </trkpt>
      <trkpt lat="48.36857" lon="-0.07749">
        <ele>64</ele>
        <time>2018-09-22T08:54:38Z</time>
      </trkpt>
      <trkpt lat="48.36888" lon="-0.07751">
        <ele>55</ele>
        <time>2018-09-22T08:55:07Z</time>
      </trkpt>
      <trkpt lat="48.36893" lon="-0.07753">
        <ele>51</ele>
        <time>2018-09-22T08:55:14Z</time>
      </trkpt>
      <trkpt lat="48.36902" lon="-0.07748">
        <ele>51</ele>
        <time>2018-09-22T08:55:59Z</time>
      </trkpt>
      <trkpt lat="48.36904" lon="-0.07744">
        <ele>54</ele>
        <time>2018-09-22T08:56:06Z</time>
      </trkpt>
      <trkpt lat="48.36906" lon="-0.07743">
        <ele>57</ele>
        <time>2018-09-22T08:56:46Z</time>
      </trkpt>
      <trkpt lat="48.3691" lon="-0.07742">
        <ele>55</ele>
        <time>2018-09-22T08:56:52Z</time>
      </trkpt>
      <trkpt lat="48.36912" lon="-0.07738">
        <ele>53</ele>
        <time>2018-09-22T08:56:56Z</time>
      </trkpt>
      <trkpt lat="48.36917" lon="-0.07732">
        <ele>48</ele>
        <time>2018-09-22T08:57:04Z</time>
      </trkpt>
      <trkpt lat="48.3692" lon="-0.0773">
        <ele>43</ele>
        <time>2018-09-22T08:57:12Z</time>
      </trkpt>
      <trkpt lat="48.36944" lon="-0.07706">
        <ele>43</ele>
        <time>2018-09-22T08:57:45Z</time>
      </trkpt>
      <trkpt lat="48.36967" lon="-0.07674">
        <ele>41</ele>
        <time>2018-09-22T08:58:12Z</time>
      </trkpt>
      <trkpt lat="48.36968" lon="-0.07668">
        <ele>40</ele>
        <time>2018-09-22T08:58:16Z</time>
      </trkpt>
      <trkpt lat="48.36974" lon="-0.07654">
        <ele>38</ele>
        <time>2018-09-22T08:58:27Z</time>
      </trkpt>
      <trkpt lat="48.36979" lon="-0.0764">
        <ele>39</ele>
        <time>2018-09-22T08:58:37Z</time>
      </trkpt>
      <trkpt lat="48.36982" lon="-0.07631">
        <ele>43</ele>
        <time>2018-09-22T08:58:45Z</time>
      </trkpt>
      <trkpt lat="48.36979" lon="-0.07595">
        <ele>54</ele>
        <time>2018-09-22T08:59:16Z</time>
      </trkpt>
      <trkpt lat="48.36978" lon="-0.07589">
        <ele>55</ele>
        <time>2018-09-22T08:59:22Z</time>
      </trkpt>
      <trkpt lat="48.36982" lon="-0.07579">
        <ele>58</ele>
        <time>2018-09-22T08:59:30Z</time>
      </trkpt>
      <trkpt lat="48.3699" lon="-0.07559">
        <ele>61</ele>
        <time>2018-09-22T08:59:47Z</time>
      </trkpt>
      <trkpt lat="48.36989" lon="-0.07555">
        <ele>64</ele>
        <time>2018-09-22T08:59:53Z</time>
      </trkpt>
      <trkpt lat="48.36991" lon="-0.07551">
        <ele>67</ele>
        <time>2018-09-22T09:00:04Z</time>
      </trkpt>
      <trkpt lat="48.36996" lon="-0.07538">
        <ele>77</ele>
        <time>2018-09-22T09:00:27Z</time>
      </trkpt>
      <trkpt lat="48.36992" lon="-0.07529">
        <ele>84</ele>
        <time>2018-09-22T09:00:50Z</time>
      </trkpt>
      <trkpt lat="48.36992" lon="-0.07526">
        <ele>83</ele>
        <time>2018-09-22T09:00:54Z</time>
      </trkpt>
      <trkpt lat="48.36989" lon="-0.07511">
        <ele>82</ele>
        <time>2018-09-22T09:01:20Z</time>
      </trkpt>
      <trkpt lat="48.3699" lon="-0.07507">
        <ele>80</ele>
        <time>2018-09-22T09:01:23Z</time>
      </trkpt>
      <trkpt lat="48.3699" lon="-0.07503">
        <ele>80</ele>
        <time>2018-09-22T09:01:32Z</time>
      </trkpt>
      <trkpt lat="48.36991" lon="-0.07495">
        <ele>82</ele>
        <time>2018-09-22T09:01:43Z</time>
      </trkpt>
      <trkpt lat="48.36993" lon="-0.07492">
        <ele>84</ele>
        <time>2018-09-22T09:01:50Z</time>
      </trkpt>
      <trkpt lat="48.36996" lon="-0.0749">
        <ele>84</ele>
        <time>2018-09-22T09:01:56Z</time>
      </trkpt>
      <trkpt lat="48.37002" lon="-0.0748">
        <ele>87</ele>
        <time>2018-09-22T09:02:11Z</time>
      </trkpt>
      <trkpt lat="48.37009" lon="-0.07477">
        <ele>88</ele>
        <time>2018-09-22T09:02:17Z</time>
      </trkpt>
      <trkpt lat="48.37012" lon="-0.07476">
        <ele>89</ele>
        <time>2018-09-22T09:02:21Z</time>
      </trkpt>
      <trkpt lat="48.37014" lon="-0.07472">
        <ele>91</ele>
        <time>2018-09-22T09:02:25Z</time>
      </trkpt>
      <trkpt lat="48.37016" lon="-0.07469">
        <ele>91</ele>
        <time>2018-09-22T09:02:32Z</time>
      </trkpt>
      <trkpt lat="48.37045" lon="-0.0746">
        <ele>93</ele>
        <time>2018-09-22T09:03:04Z</time>
      </trkpt>
      <trkpt lat="48.37062" lon="-0.07451">
        <ele>97</ele>
        <time>2018-09-22T09:03:23Z</time>
      </trkpt>
      <trkpt lat="48.37082" lon="-0.07432">
        <ele>100</ele>
        <time>2018-09-22T09:03:54Z</time>
      </trkpt>
      <trkpt lat="48.371" lon="-0.07415">
        <ele>102</ele>
        <time>2018-09-22T09:04:17Z</time>
      </trkpt>
      <trkpt lat="48.37121" lon="-0.07389">
        <ele>98</ele>
        <time>2018-09-22T09:04:48Z</time>
      </trkpt>
      <trkpt lat="48.37124" lon="-0.07386">
        <ele>97</ele>
        <time>2018-09-22T09:04:52Z</time>
      </trkpt>
      <trkpt lat="48.37126" lon="-0.07377">
        <ele>94</ele>
        <time>2018-09-22T09:04:58Z</time>
      </trkpt>
      <trkpt lat="48.37122" lon="-0.07344">
        <ele>92</ele>
        <time>2018-09-22T09:05:28Z</time>
      </trkpt>
      <trkpt lat="48.37115" lon="-0.07313">
        <ele>87</ele>
        <time>2018-09-22T09:06:02Z</time>
      </trkpt>
      <trkpt lat="48.3711" lon="-0.07305">
        <ele>87</ele>
        <time>2018-09-22T09:06:14Z</time>
      </trkpt>
      <trkpt lat="48.37106" lon="-0.0728">
        <ele>92</ele>
        <time>2018-09-22T09:06:37Z</time>
      </trkpt>
      <trkpt lat="48.37104" lon="-0.07277">
        <ele>92</ele>
        <time>2018-09-22T09:06:40Z</time>
      </trkpt>
      <trkpt lat="48.37098" lon="-0.07262">
        <ele>99</ele>
        <time>2018-09-22T09:06:51Z</time>
      </trkpt>
      <trkpt lat="48.37096" lon="-0.07248">
        <ele>102</ele>
        <time>2018-09-22T09:07:03Z</time>
      </trkpt>
      <trkpt lat="48.37095" lon="-0.0724">
        <ele>103</ele>
        <time>2018-09-22T09:07:11Z</time>
      </trkpt>
      <trkpt lat="48.37095" lon="-0.0723">
        <ele>103</ele>
        <time>2018-09-22T09:07:21Z</time>
      </trkpt>
      <trkpt lat="48.37096" lon="-0.07217">
        <ele>103</ele>
        <time>2018-09-22T09:08:44Z</time>
      </trkpt>
      <trkpt lat="48.37092" lon="-0.07216">
        <ele>103</ele>
        <time>2018-09-22T09:09:55Z</time>
      </trkpt>
      <trkpt lat="48.37094" lon="-0.07212">
        <ele>103</ele>
        <time>2018-09-22T09:10:33Z</time>
      </trkpt>
      <trkpt lat="48.37096" lon="-0.07207">
        <ele>103</ele>
        <time>2018-09-22T09:10:45Z</time>
      </trkpt>
      <trkpt lat="48.37118" lon="-0.07197">
        <ele>90</ele>
        <time>2018-09-22T09:11:16Z</time>
      </trkpt>
      <trkpt lat="48.37121" lon="-0.07197">
        <ele>87</ele>
        <time>2018-09-22T09:11:28Z</time>
      </trkpt>
      <trkpt lat="48.37132" lon="-0.07196">
        <ele>87</ele>
        <time>2018-09-22T09:11:40Z</time>
      </trkpt>
      <trkpt lat="48.37152" lon="-0.07198">
        <ele>99</ele>
        <time>2018-09-22T09:12:04Z</time>
      </trkpt>
      <trkpt lat="48.37155" lon="-0.07201">
        <ele>99</ele>
        <time>2018-09-22T09:12:08Z</time>
      </trkpt>
      <trkpt lat="48.37158" lon="-0.07205">
        <ele>99</ele>
        <time>2018-09-22T09:12:13Z</time>
      </trkpt>
      <trkpt lat="48.37168" lon="-0.07217">
        <ele>99</ele>
        <time>2018-09-22T09:12:24Z</time>
      </trkpt>
      <trkpt lat="48.3717" lon="-0.0722">
        <ele>99</ele>
        <time>2018-09-22T09:12:27Z</time>
      </trkpt>
      <trkpt lat="48.37178" lon="-0.07223">
        <ele>99</ele>
        <time>2018-09-22T09:12:32Z</time>
      </trkpt>
      <trkpt lat="48.37186" lon="-0.07223">
        <ele>99</ele>
        <time>2018-09-22T09:12:38Z</time>
      </trkpt>
      <trkpt lat="48.37222" lon="-0.07214">
        <ele>101</ele>
        <time>2018-09-22T09:13:08Z</time>
      </trkpt>
      <trkpt lat="48.37261" lon="-0.07204">
        <ele>100</ele>
        <time>2018-09-22T09:13:40Z</time>
      </trkpt>
      <trkpt lat="48.37282" lon="-0.0719">
        <ele>102</ele>
        <time>2018-09-22T09:13:58Z</time>
      </trkpt>
      <trkpt lat="48.37299" lon="-0.07169">
        <ele>104</ele>
        <time>2018-09-22T09:14:18Z</time>
      </trkpt>
      <trkpt lat="48.37317" lon="-0.07126">
        <ele>112</ele>
        <time>2018-09-22T09:14:50Z</time>
      </trkpt>
      <trkpt lat="48.37342" lon="-0.07093">
        <ele>115</ele>
        <time>2018-09-22T09:15:20Z</time>
      </trkpt>
      <trkpt lat="48.37377" lon="-0.07066">
        <ele>114</ele>
        <time>2018-09-22T09:15:50Z</time>
      </trkpt>
      <trkpt lat="48.37388" lon="-0.07048">
        <ele>114</ele>
        <time>2018-09-22T09:16:05Z</time>
      </trkpt>
      <trkpt lat="48.37401" lon="-0.07032">
        <ele>113</ele>
        <time>2018-09-22T09:16:20Z</time>
      </trkpt>
      <trkpt lat="48.37429" lon="-0.07009">
        <ele>107</ele>
        <time>2018-09-22T09:16:52Z</time>
      </trkpt>
      <trkpt lat="48.37451" lon="-0.06994">
        <ele>111</ele>
        <time>2018-09-22T09:17:14Z</time>
      </trkpt>
      <trkpt lat="48.37455" lon="-0.06977">
        <ele>114</ele>
        <time>2018-09-22T09:17:22Z</time>
      </trkpt>
      <trkpt lat="48.37458" lon="-0.06967">
        <ele>115</ele>
        <time>2018-09-22T09:17:26Z</time>
      </trkpt>
      <trkpt lat="48.37463" lon="-0.06934">
        <ele>118</ele>
        <time>2018-09-22T09:17:45Z</time>
      </trkpt>
      <trkpt lat="48.37463" lon="-0.06924">
        <ele>118</ele>
        <time>2018-09-22T09:17:53Z</time>
      </trkpt>
      <trkpt lat="48.37463" lon="-0.0692">
        <ele>119</ele>
        <time>2018-09-22T09:17:56Z</time>
      </trkpt>
      <trkpt lat="48.37464" lon="-0.06915">
        <ele>120</ele>
        <time>2018-09-22T09:18:00Z</time>
      </trkpt>
      <trkpt lat="48.37467" lon="-0.06907">
        <ele>121</ele>
        <time>2018-09-22T09:18:06Z</time>
      </trkpt>
      <trkpt lat="48.37468" lon="-0.06903">
        <ele>121</ele>
        <time>2018-09-22T09:18:09Z</time>
      </trkpt>
      <trkpt lat="48.37469" lon="-0.069">
        <ele>122</ele>
        <time>2018-09-22T09:18:14Z</time>
      </trkpt>
      <trkpt lat="48.37479" lon="-0.06851">
        <ele>121</ele>
        <time>2018-09-22T09:18:44Z</time>
      </trkpt>
      <trkpt lat="48.37489" lon="-0.068">
        <ele>129</ele>
        <time>2018-09-22T09:19:14Z</time>
      </trkpt>
      <trkpt lat="48.37497" lon="-0.06768">
        <ele>130</ele>
        <time>2018-09-22T09:19:36Z</time>
      </trkpt>
      <trkpt lat="48.37502" lon="-0.06757">
        <ele>129</ele>
        <time>2018-09-22T09:19:45Z</time>
      </trkpt>
      <trkpt lat="48.37507" lon="-0.06751">
        <ele>127</ele>
        <time>2018-09-22T09:19:53Z</time>
      </trkpt>
      <trkpt lat="48.37506" lon="-0.06749">
        <ele>127</ele>
        <time>2018-09-22T09:20:21Z</time>
      </trkpt>
      <trkpt lat="48.37509" lon="-0.0674">
        <ele>127</ele>
        <time>2018-09-22T09:21:59Z</time>
      </trkpt>
      <trkpt lat="48.37512" lon="-0.06738">
        <ele>127</ele>
        <time>2018-09-22T09:22:05Z</time>
      </trkpt>
      <trkpt lat="48.37518" lon="-0.06738">
        <ele>123</ele>
        <time>2018-09-22T09:22:17Z</time>
      </trkpt>
      <trkpt lat="48.37543" lon="-0.0673">
        <ele>114</ele>
        <time>2018-09-22T09:22:43Z</time>
      </trkpt>
      <trkpt lat="48.37546" lon="-0.0673">
        <ele>112</ele>
        <time>2018-09-22T09:22:47Z</time>
      </trkpt>
      <trkpt lat="48.3755" lon="-0.0673">
        <ele>112</ele>
        <time>2018-09-22T09:22:49Z</time>
      </trkpt>
      <trkpt lat="48.37554" lon="-0.06728">
        <ele>113</ele>
        <time>2018-09-22T09:22:52Z</time>
      </trkpt>
      <trkpt lat="48.37557" lon="-0.06726">
        <ele>113</ele>
        <time>2018-09-22T09:22:55Z</time>
      </trkpt>
      <trkpt lat="48.3756" lon="-0.06723">
        <ele>113</ele>
        <time>2018-09-22T09:22:58Z</time>
      </trkpt>
      <trkpt lat="48.37562" lon="-0.06719">
        <ele>113</ele>
        <time>2018-09-22T09:23:01Z</time>
      </trkpt>
      <trkpt lat="48.37562" lon="-0.06714">
        <ele>112</ele>
        <time>2018-09-22T09:23:03Z</time>
      </trkpt>
      <trkpt lat="48.37561" lon="-0.06698">
        <ele>114</ele>
        <time>2018-09-22T09:23:10Z</time>
      </trkpt>
      <trkpt lat="48.37541" lon="-0.06654">
        <ele>120</ele>
        <time>2018-09-22T09:23:40Z</time>
      </trkpt>
      <trkpt lat="48.37537" lon="-0.06646">
        <ele>120</ele>
        <time>2018-09-22T09:23:45Z</time>
      </trkpt>
      <trkpt lat="48.37527" lon="-0.0662">
        <ele>120</ele>
        <time>2018-09-22T09:24:03Z</time>
      </trkpt>
      <trkpt lat="48.37526" lon="-0.06615">
        <ele>120</ele>
        <time>2018-09-22T09:24:06Z</time>
      </trkpt>
      <trkpt lat="48.37516" lon="-0.06589">
        <ele>124</ele>
        <time>2018-09-22T09:24:23Z</time>
      </trkpt>
      <trkpt lat="48.37515" lon="-0.06585">
        <ele>124</ele>
        <time>2018-09-22T09:24:26Z</time>
      </trkpt>
      <trkpt lat="48.37512" lon="-0.06581">
        <ele>124</ele>
        <time>2018-09-22T09:24:29Z</time>
      </trkpt>
      <trkpt lat="48.3751" lon="-0.06579">
        <ele>125</ele>
        <time>2018-09-22T09:24:32Z</time>
      </trkpt>
      <trkpt lat="48.37494" lon="-0.06555">
        <ele>135</ele>
        <time>2018-09-22T09:25:03Z</time>
      </trkpt>
      <trkpt lat="48.37487" lon="-0.06541">
        <ele>137</ele>
        <time>2018-09-22T09:25:17Z</time>
      </trkpt>
      <trkpt lat="48.37473" lon="-0.06497">
        <ele>141</ele>
        <time>2018-09-22T09:25:47Z</time>
      </trkpt>
      <trkpt lat="48.37466" lon="-0.06471">
        <ele>141</ele>
        <time>2018-09-22T09:26:05Z</time>
      </trkpt>
      <trkpt lat="48.37465" lon="-0.06461">
        <ele>141</ele>
        <time>2018-09-22T09:26:11Z</time>
      </trkpt>
      <trkpt lat="48.37462" lon="-0.06433">
        <ele>135</ele>
        <time>2018-09-22T09:26:26Z</time>
      </trkpt>
      <trkpt lat="48.37462" lon="-0.06428">
        <ele>135</ele>
        <time>2018-09-22T09:26:29Z</time>
      </trkpt>
      <trkpt lat="48.3746" lon="-0.06412">
        <ele>134</ele>
        <time>2018-09-22T09:26:37Z</time>
      </trkpt>
      <trkpt lat="48.37459" lon="-0.06407">
        <ele>133</ele>
        <time>2018-09-22T09:26:39Z</time>
      </trkpt>
      <trkpt lat="48.3746" lon="-0.06396">
        <ele>132</ele>
        <time>2018-09-22T09:26:45Z</time>
      </trkpt>
      <trkpt lat="48.37459" lon="-0.06391">
        <ele>132</ele>
        <time>2018-09-22T09:26:48Z</time>
      </trkpt>
      <trkpt lat="48.37457" lon="-0.06372">
        <ele>133</ele>
        <time>2018-09-22T09:27:02Z</time>
      </trkpt>
      <trkpt lat="48.37457" lon="-0.06367">
        <ele>134</ele>
        <time>2018-09-22T09:27:06Z</time>
      </trkpt>
      <trkpt lat="48.37459" lon="-0.06347">
        <ele>133</ele>
        <time>2018-09-22T09:27:19Z</time>
      </trkpt>
      <trkpt lat="48.3746" lon="-0.06323">
        <ele>134</ele>
        <time>2018-09-22T09:27:32Z</time>
      </trkpt>
      <trkpt lat="48.37461" lon="-0.06319">
        <ele>135</ele>
        <time>2018-09-22T09:27:35Z</time>
      </trkpt>
      <trkpt lat="48.37455" lon="-0.06288">
        <ele>140</ele>
        <time>2018-09-22T09:27:52Z</time>
      </trkpt>
      <trkpt lat="48.37455" lon="-0.06283">
        <ele>141</ele>
        <time>2018-09-22T09:27:55Z</time>
      </trkpt>
      <trkpt lat="48.37452" lon="-0.06267">
        <ele>143</ele>
        <time>2018-09-22T09:28:07Z</time>
      </trkpt>
      <trkpt lat="48.37451" lon="-0.06263">
        <ele>143</ele>
        <time>2018-09-22T09:28:10Z</time>
      </trkpt>
      <trkpt lat="48.3745" lon="-0.06252">
        <ele>144</ele>
        <time>2018-09-22T09:28:18Z</time>
      </trkpt>
      <trkpt lat="48.37448" lon="-0.06247">
        <ele>146</ele>
        <time>2018-09-22T09:28:22Z</time>
      </trkpt>
      <trkpt lat="48.37449" lon="-0.06234">
        <ele>146</ele>
        <time>2018-09-22T09:28:30Z</time>
      </trkpt>
      <trkpt lat="48.37455" lon="-0.06213">
        <ele>140</ele>
        <time>2018-09-22T09:28:46Z</time>
      </trkpt>
      <trkpt lat="48.37465" lon="-0.06198">
        <ele>137</ele>
        <time>2018-09-22T09:28:58Z</time>
      </trkpt>
      <trkpt lat="48.37472" lon="-0.06184">
        <ele>137</ele>
        <time>2018-09-22T09:29:08Z</time>
      </trkpt>
      <trkpt lat="48.37473" lon="-0.06179">
        <ele>136</ele>
        <time>2018-09-22T09:29:10Z</time>
      </trkpt>
      <trkpt lat="48.37482" lon="-0.0616">
        <ele>136</ele>
        <time>2018-09-22T09:29:23Z</time>
      </trkpt>
      <trkpt lat="48.37482" lon="-0.06155">
        <ele>135</ele>
        <time>2018-09-22T09:29:25Z</time>
      </trkpt>
      <trkpt lat="48.37483" lon="-0.0615">
        <ele>135</ele>
        <time>2018-09-22T09:29:28Z</time>
      </trkpt>
      <trkpt lat="48.37495" lon="-0.06127">
        <ele>132</ele>
        <time>2018-09-22T09:29:46Z</time>
      </trkpt>
      <trkpt lat="48.37496" lon="-0.06114">
        <ele>130</ele>
        <time>2018-09-22T09:29:52Z</time>
      </trkpt>
      <trkpt lat="48.37505" lon="-0.06099">
        <ele>129</ele>
        <time>2018-09-22T09:30:03Z</time>
      </trkpt>
      <trkpt lat="48.37506" lon="-0.06092">
        <ele>130</ele>
        <time>2018-09-22T09:30:06Z</time>
      </trkpt>
      <trkpt lat="48.37509" lon="-0.06086">
        <ele>128</ele>
        <time>2018-09-22T09:30:10Z</time>
      </trkpt>
      <trkpt lat="48.37511" lon="-0.06081">
        <ele>127</ele>
        <time>2018-09-22T09:30:16Z</time>
      </trkpt>
      <trkpt lat="48.37512" lon="-0.06072">
        <ele>124</ele>
        <time>2018-09-22T09:30:22Z</time>
      </trkpt>
      <trkpt lat="48.37516" lon="-0.06069">
        <ele>123</ele>
        <time>2018-09-22T09:30:25Z</time>
      </trkpt>
      <trkpt lat="48.37523" lon="-0.06059">
        <ele>123</ele>
        <time>2018-09-22T09:30:31Z</time>
      </trkpt>
      <trkpt lat="48.37524" lon="-0.06054">
        <ele>123</ele>
        <time>2018-09-22T09:30:33Z</time>
      </trkpt>
      <trkpt lat="48.37528" lon="-0.06044">
        <ele>122</ele>
        <time>2018-09-22T09:30:40Z</time>
      </trkpt>
      <trkpt lat="48.3753" lon="-0.06019">
        <ele>123</ele>
        <time>2018-09-22T09:30:49Z</time>
      </trkpt>
      <trkpt lat="48.37533" lon="-0.05992">
        <ele>126</ele>
        <time>2018-09-22T09:31:04Z</time>
      </trkpt>
      <trkpt lat="48.37533" lon="-0.05986">
        <ele>124</ele>
        <time>2018-09-22T09:31:08Z</time>
      </trkpt>
      <trkpt lat="48.37542" lon="-0.05974">
        <ele>123</ele>
        <time>2018-09-22T09:31:22Z</time>
      </trkpt>
      <trkpt lat="48.37567" lon="-0.05958">
        <ele>123</ele>
        <time>2018-09-22T09:31:40Z</time>
      </trkpt>
      <trkpt lat="48.3757" lon="-0.05954">
        <ele>122</ele>
        <time>2018-09-22T09:31:43Z</time>
      </trkpt>
      <trkpt lat="48.37572" lon="-0.05951">
        <ele>121</ele>
        <time>2018-09-22T09:31:46Z</time>
      </trkpt>
      <trkpt lat="48.37574" lon="-0.05946">
        <ele>121</ele>
        <time>2018-09-22T09:31:49Z</time>
      </trkpt>
      <trkpt lat="48.37577" lon="-0.05942">
        <ele>121</ele>
        <time>2018-09-22T09:31:52Z</time>
      </trkpt>
      <trkpt lat="48.37578" lon="-0.05937">
        <ele>122</ele>
        <time>2018-09-22T09:31:55Z</time>
      </trkpt>
      <trkpt lat="48.37587" lon="-0.05914">
        <ele>120</ele>
        <time>2018-09-22T09:32:11Z</time>
      </trkpt>
      <trkpt lat="48.3759" lon="-0.0591">
        <ele>119</ele>
        <time>2018-09-22T09:32:14Z</time>
      </trkpt>
      <trkpt lat="48.37596" lon="-0.05902">
        <ele>119</ele>
        <time>2018-09-22T09:32:20Z</time>
      </trkpt>
      <trkpt lat="48.37603" lon="-0.0589">
        <ele>118</ele>
        <time>2018-09-22T09:32:28Z</time>
      </trkpt>
      <trkpt lat="48.37605" lon="-0.05885">
        <ele>117</ele>
        <time>2018-09-22T09:32:32Z</time>
      </trkpt>
      <trkpt lat="48.37614" lon="-0.05875">
        <ele>112</ele>
        <time>2018-09-22T09:32:43Z</time>
      </trkpt>
      <trkpt lat="48.37617" lon="-0.05869">
        <ele>112</ele>
        <time>2018-09-22T09:32:46Z</time>
      </trkpt>
      <trkpt lat="48.37621" lon="-0.0586">
        <ele>113</ele>
        <time>2018-09-22T09:32:53Z</time>
      </trkpt>
      <trkpt lat="48.37624" lon="-0.05855">
        <ele>113</ele>
        <time>2018-09-22T09:32:56Z</time>
      </trkpt>
      <trkpt lat="48.3763" lon="-0.05848">
        <ele>113</ele>
        <time>2018-09-22T09:33:01Z</time>
      </trkpt>
      <trkpt lat="48.37638" lon="-0.05843">
        <ele>112</ele>
        <time>2018-09-22T09:33:08Z</time>
      </trkpt>
      <trkpt lat="48.37641" lon="-0.05841">
        <ele>111</ele>
        <time>2018-09-22T09:33:12Z</time>
      </trkpt>
      <trkpt lat="48.37676" lon="-0.05824">
        <ele>106</ele>
        <time>2018-09-22T09:33:42Z</time>
      </trkpt>
      <trkpt lat="48.37684" lon="-0.05823">
        <ele>106</ele>
        <time>2018-09-22T09:33:48Z</time>
      </trkpt>
      <trkpt lat="48.37687" lon="-0.05822">
        <ele>105</ele>
        <time>2018-09-22T09:33:51Z</time>
      </trkpt>
      <trkpt lat="48.3769" lon="-0.05821">
        <ele>105</ele>
        <time>2018-09-22T09:33:54Z</time>
      </trkpt>
      <trkpt lat="48.37692" lon="-0.05825">
        <ele>102</ele>
        <time>2018-09-22T09:34:15Z</time>
      </trkpt>
      <trkpt lat="48.37694" lon="-0.05828">
        <ele>100</ele>
        <time>2018-09-22T09:34:29Z</time>
      </trkpt>
      <trkpt lat="48.37697" lon="-0.05826">
        <ele>102</ele>
        <time>2018-09-22T09:35:08Z</time>
      </trkpt>
      <trkpt lat="48.37695" lon="-0.05821">
        <ele>103</ele>
        <time>2018-09-22T09:35:13Z</time>
      </trkpt>
      <trkpt lat="48.37704" lon="-0.05813">
        <ele>108</ele>
        <time>2018-09-22T09:35:24Z</time>
      </trkpt>
      <trkpt lat="48.3771" lon="-0.05807">
        <ele>107</ele>
        <time>2018-09-22T09:35:30Z</time>
      </trkpt>
      <trkpt lat="48.37719" lon="-0.05791">
        <ele>104</ele>
        <time>2018-09-22T09:35:44Z</time>
      </trkpt>
      <trkpt lat="48.37733" lon="-0.05774">
        <ele>100</ele>
        <time>2018-09-22T09:35:57Z</time>
      </trkpt>
      <trkpt lat="48.37736" lon="-0.05765">
        <ele>99</ele>
        <time>2018-09-22T09:36:03Z</time>
      </trkpt>
      <trkpt lat="48.37737" lon="-0.0576">
        <ele>98</ele>
        <time>2018-09-22T09:36:06Z</time>
      </trkpt>
      <trkpt lat="48.37738" lon="-0.05754">
        <ele>97</ele>
        <time>2018-09-22T09:36:09Z</time>
      </trkpt>
      <trkpt lat="48.3774" lon="-0.05737">
        <ele>95</ele>
        <time>2018-09-22T09:36:17Z</time>
      </trkpt>
      <trkpt lat="48.37742" lon="-0.05727">
        <ele>95</ele>
        <time>2018-09-22T09:36:21Z</time>
      </trkpt>
      <trkpt lat="48.37751" lon="-0.05692">
        <ele>95</ele>
        <time>2018-09-22T09:36:41Z</time>
      </trkpt>
      <trkpt lat="48.37752" lon="-0.0568">
        <ele>91</ele>
        <time>2018-09-22T09:36:49Z</time>
      </trkpt>
      <trkpt lat="48.37752" lon="-0.05675">
        <ele>89</ele>
        <time>2018-09-22T09:36:51Z</time>
      </trkpt>
      <trkpt lat="48.37752" lon="-0.05667">
        <ele>91</ele>
        <time>2018-09-22T09:37:00Z</time>
      </trkpt>
      <trkpt lat="48.37748" lon="-0.05654">
        <ele>94</ele>
        <time>2018-09-22T09:37:37Z</time>
      </trkpt>
      <trkpt lat="48.37745" lon="-0.05653">
        <ele>95</ele>
        <time>2018-09-22T09:37:40Z</time>
      </trkpt>
      <trkpt lat="48.37745" lon="-0.05648">
        <ele>95</ele>
        <time>2018-09-22T09:37:55Z</time>
      </trkpt>
      <trkpt lat="48.37748" lon="-0.0565">
        <ele>97</ele>
        <time>2018-09-22T09:38:46Z</time>
      </trkpt>
      <trkpt lat="48.37747" lon="-0.05654">
        <ele>97</ele>
        <time>2018-09-22T09:38:50Z</time>
      </trkpt>
      <trkpt lat="48.37749" lon="-0.05658">
        <ele>100</ele>
        <time>2018-09-22T09:38:56Z</time>
      </trkpt>
      <trkpt lat="48.3777" lon="-0.05668">
        <ele>103</ele>
        <time>2018-09-22T09:39:20Z</time>
      </trkpt>
      <trkpt lat="48.37795" lon="-0.05684">
        <ele>99</ele>
        <time>2018-09-22T09:39:42Z</time>
      </trkpt>
      <trkpt lat="48.37816" lon="-0.05698">
        <ele>85</ele>
        <time>2018-09-22T09:40:03Z</time>
      </trkpt>
      <trkpt lat="48.37824" lon="-0.05703">
        <ele>83</ele>
        <time>2018-09-22T09:40:11Z</time>
      </trkpt>
      <trkpt lat="48.37854" lon="-0.05734">
        <ele>81</ele>
        <time>2018-09-22T09:40:42Z</time>
      </trkpt>
      <trkpt lat="48.37885" lon="-0.05745">
        <ele>75</ele>
        <time>2018-09-22T09:41:14Z</time>
      </trkpt>
      <trkpt lat="48.37892" lon="-0.05747">
        <ele>65</ele>
        <time>2018-09-22T09:41:26Z</time>
      </trkpt>
      <trkpt lat="48.37927" lon="-0.05776">
        <ele>67</ele>
        <time>2018-09-22T09:41:58Z</time>
      </trkpt>
      <trkpt lat="48.37932" lon="-0.05778">
        <ele>68</ele>
        <time>2018-09-22T09:42:01Z</time>
      </trkpt>
      <trkpt lat="48.37941" lon="-0.05783">
        <ele>67</ele>
        <time>2018-09-22T09:42:13Z</time>
      </trkpt>
      <trkpt lat="48.37945" lon="-0.05789">
        <ele>67</ele>
        <time>2018-09-22T09:42:22Z</time>
      </trkpt>
      <trkpt lat="48.37978" lon="-0.05808">
        <ele>61</ele>
        <time>2018-09-22T09:42:51Z</time>
      </trkpt>
      <trkpt lat="48.37995" lon="-0.05814">
        <ele>60</ele>
        <time>2018-09-22T09:43:03Z</time>
      </trkpt>
      <trkpt lat="48.37999" lon="-0.05814">
        <ele>59</ele>
        <time>2018-09-22T09:43:08Z</time>
      </trkpt>
      <trkpt lat="48.38022" lon="-0.05811">
        <ele>53</ele>
        <time>2018-09-22T09:43:28Z</time>
      </trkpt>
      <trkpt lat="48.38032" lon="-0.05812">
        <ele>57</ele>
        <time>2018-09-22T09:43:33Z</time>
      </trkpt>
      <trkpt lat="48.38035" lon="-0.05814">
        <ele>58</ele>
        <time>2018-09-22T09:43:39Z</time>
      </trkpt>
      <trkpt lat="48.38038" lon="-0.05818">
        <ele>58</ele>
        <time>2018-09-22T09:43:46Z</time>
      </trkpt>
      <trkpt lat="48.38041" lon="-0.05822">
        <ele>57</ele>
        <time>2018-09-22T09:43:50Z</time>
      </trkpt>
      <trkpt lat="48.38043" lon="-0.05827">
        <ele>54</ele>
        <time>2018-09-22T09:43:54Z</time>
      </trkpt>
      <trkpt lat="48.38042" lon="-0.05833">
        <ele>53</ele>
        <time>2018-09-22T09:43:59Z</time>
      </trkpt>
      <trkpt lat="48.38046" lon="-0.0585">
        <ele>51</ele>
        <time>2018-09-22T09:44:10Z</time>
      </trkpt>
      <trkpt lat="48.38045" lon="-0.05855">
        <ele>50</ele>
        <time>2018-09-22T09:44:13Z</time>
      </trkpt>
      <trkpt lat="48.38046" lon="-0.05862">
        <ele>49</ele>
        <time>2018-09-22T09:44:17Z</time>
      </trkpt>
      <trkpt lat="48.3804" lon="-0.05869">
        <ele>49</ele>
        <time>2018-09-22T09:44:24Z</time>
      </trkpt>
      <trkpt lat="48.38039" lon="-0.05874">
        <ele>49</ele>
        <time>2018-09-22T09:44:29Z</time>
      </trkpt>
      <trkpt lat="48.38037" lon="-0.05879">
        <ele>50</ele>
        <time>2018-09-22T09:44:39Z</time>
      </trkpt>
      <trkpt lat="48.38041" lon="-0.05883">
        <ele>53</ele>
        <time>2018-09-22T09:44:49Z</time>
      </trkpt>
      <trkpt lat="48.38045" lon="-0.05886">
        <ele>56</ele>
        <time>2018-09-22T09:44:53Z</time>
      </trkpt>
      <trkpt lat="48.38051" lon="-0.05893">
        <ele>58</ele>
        <time>2018-09-22T09:45:00Z</time>
      </trkpt>
      <trkpt lat="48.38057" lon="-0.059">
        <ele>60</ele>
        <time>2018-09-22T09:45:07Z</time>
      </trkpt>
      <trkpt lat="48.3806" lon="-0.05903">
        <ele>60</ele>
        <time>2018-09-22T09:45:11Z</time>
      </trkpt>
      <trkpt lat="48.38074" lon="-0.0591">
        <ele>61</ele>
        <time>2018-09-22T09:45:30Z</time>
      </trkpt>
      <trkpt lat="48.38078" lon="-0.05912">
        <ele>61</ele>
        <time>2018-09-22T09:45:34Z</time>
      </trkpt>
      <trkpt lat="48.38085" lon="-0.05913">
        <ele>60</ele>
        <time>2018-09-22T09:45:41Z</time>
      </trkpt>
      <trkpt lat="48.38089" lon="-0.05914">
        <ele>59</ele>
        <time>2018-09-22T09:46:07Z</time>
      </trkpt>
      <trkpt lat="48.38098" lon="-0.05918">
        <ele>50</ele>
        <time>2018-09-22T09:46:19Z</time>
      </trkpt>
      <trkpt lat="48.38096" lon="-0.05914">
        <ele>43</ele>
        <time>2018-09-22T09:47:27Z</time>
      </trkpt>
      <trkpt lat="48.381" lon="-0.05916">
        <ele>45</ele>
        <time>2018-09-22T09:47:34Z</time>
      </trkpt>
      <trkpt lat="48.38108" lon="-0.0592">
        <ele>57</ele>
        <time>2018-09-22T09:48:18Z</time>
      </trkpt>
      <trkpt lat="48.38098" lon="-0.05924">
        <ele>61</ele>
        <time>2018-09-22T09:48:35Z</time>
      </trkpt>
      <trkpt lat="48.38095" lon="-0.05923">
        <ele>60</ele>
        <time>2018-09-22T09:48:37Z</time>
      </trkpt>
      <trkpt lat="48.38093" lon="-0.05916">
        <ele>60</ele>
        <time>2018-09-22T09:49:04Z</time>
      </trkpt>
      <trkpt lat="48.38089" lon="-0.05916">
        <ele>53</ele>
        <time>2018-09-22T09:49:30Z</time>
      </trkpt>
      <trkpt lat="48.38075" lon="-0.05913">
        <ele>48</ele>
        <time>2018-09-22T09:49:52Z</time>
      </trkpt>
      <trkpt lat="48.38072" lon="-0.05914">
        <ele>48</ele>
        <time>2018-09-22T09:49:56Z</time>
      </trkpt>
      <trkpt lat="48.38055" lon="-0.05915">
        <ele>60</ele>
        <time>2018-09-22T09:50:08Z</time>
      </trkpt>
      <trkpt lat="48.38049" lon="-0.05918">
        <ele>63</ele>
        <time>2018-09-22T09:50:15Z</time>
      </trkpt>
      <trkpt lat="48.38043" lon="-0.05921">
        <ele>62</ele>
        <time>2018-09-22T09:50:24Z</time>
      </trkpt>
      <trkpt lat="48.38029" lon="-0.05921">
        <ele>59</ele>
        <time>2018-09-22T09:50:38Z</time>
      </trkpt>
      <trkpt lat="48.38025" lon="-0.05925">
        <ele>59</ele>
        <time>2018-09-22T09:50:52Z</time>
      </trkpt>
      <trkpt lat="48.37995" lon="-0.05923">
        <ele>58</ele>
        <time>2018-09-22T09:51:23Z</time>
      </trkpt>
      <trkpt lat="48.37991" lon="-0.05922">
        <ele>55</ele>
        <time>2018-09-22T09:51:29Z</time>
      </trkpt>
      <trkpt lat="48.37987" lon="-0.05924">
        <ele>53</ele>
        <time>2018-09-22T09:51:33Z</time>
      </trkpt>
      <trkpt lat="48.37986" lon="-0.05928">
        <ele>51</ele>
        <time>2018-09-22T09:51:38Z</time>
      </trkpt>
      <trkpt lat="48.37986" lon="-0.0593">
        <ele>50</ele>
        <time>2018-09-22T09:52:04Z</time>
      </trkpt>
      <trkpt lat="48.37987" lon="-0.0594">
        <ele>47</ele>
        <time>2018-09-22T09:52:12Z</time>
      </trkpt>
      <trkpt lat="48.37986" lon="-0.05945">
        <ele>46</ele>
        <time>2018-09-22T09:52:49Z</time>
      </trkpt>
      <trkpt lat="48.37987" lon="-0.05957">
        <ele>59</ele>
        <time>2018-09-22T09:53:01Z</time>
      </trkpt>
      <trkpt lat="48.3799" lon="-0.05962">
        <ele>62</ele>
        <time>2018-09-22T09:53:07Z</time>
      </trkpt>
      <trkpt lat="48.37993" lon="-0.05964">
        <ele>60</ele>
        <time>2018-09-22T09:53:11Z</time>
      </trkpt>
      <trkpt lat="48.38004" lon="-0.05965">
        <ele>53</ele>
        <time>2018-09-22T09:53:24Z</time>
      </trkpt>
      <trkpt lat="48.38008" lon="-0.05964">
        <ele>52</ele>
        <time>2018-09-22T09:53:28Z</time>
      </trkpt>
      <trkpt lat="48.38014" lon="-0.05967">
        <ele>53</ele>
        <time>2018-09-22T09:53:46Z</time>
      </trkpt>
      <trkpt lat="48.38017" lon="-0.05968">
        <ele>55</ele>
        <time>2018-09-22T09:53:54Z</time>
      </trkpt>
      <trkpt lat="48.38018" lon="-0.05963">
        <ele>56</ele>
        <time>2018-09-22T09:54:00Z</time>
      </trkpt>
      <trkpt lat="48.3802" lon="-0.05958">
        <ele>56</ele>
        <time>2018-09-22T09:54:08Z</time>
      </trkpt>
      <trkpt lat="48.38022" lon="-0.05963">
        <ele>55</ele>
        <time>2018-09-22T09:54:20Z</time>
      </trkpt>
      <trkpt lat="48.38025" lon="-0.05964">
        <ele>55</ele>
        <time>2018-09-22T09:54:24Z</time>
      </trkpt>
      <trkpt lat="48.38026" lon="-0.05968">
        <ele>56</ele>
        <time>2018-09-22T09:54:46Z</time>
      </trkpt>
      <trkpt lat="48.38029" lon="-0.0597">
        <ele>56</ele>
        <time>2018-09-22T09:54:49Z</time>
      </trkpt>
      <trkpt lat="48.38051" lon="-0.05975">
        <ele>56</ele>
        <time>2018-09-22T09:55:18Z</time>
      </trkpt>
      <trkpt lat="48.38058" lon="-0.05979">
        <ele>56</ele>
        <time>2018-09-22T09:55:32Z</time>
      </trkpt>
      <trkpt lat="48.38062" lon="-0.0598">
        <ele>57</ele>
        <time>2018-09-22T09:55:41Z</time>
      </trkpt>
      <trkpt lat="48.38073" lon="-0.05984">
        <ele>62</ele>
        <time>2018-09-22T09:55:55Z</time>
      </trkpt>
      <trkpt lat="48.38087" lon="-0.05988">
        <ele>66</ele>
        <time>2018-09-22T09:56:08Z</time>
      </trkpt>
      <trkpt lat="48.38091" lon="-0.05988">
        <ele>65</ele>
        <time>2018-09-22T09:56:12Z</time>
      </trkpt>
      <trkpt lat="48.38101" lon="-0.05986">
        <ele>61</ele>
        <time>2018-09-22T09:56:25Z</time>
      </trkpt>
      <trkpt lat="48.38109" lon="-0.05986">
        <ele>57</ele>
        <time>2018-09-22T09:56:33Z</time>
      </trkpt>
      <trkpt lat="48.38112" lon="-0.05983">
        <ele>56</ele>
        <time>2018-09-22T09:56:37Z</time>
      </trkpt>
      <trkpt lat="48.38118" lon="-0.05976">
        <ele>56</ele>
        <time>2018-09-22T09:56:43Z</time>
      </trkpt>
      <trkpt lat="48.38123" lon="-0.05967">
        <ele>57</ele>
        <time>2018-09-22T09:56:51Z</time>
      </trkpt>
      <trkpt lat="48.38124" lon="-0.05962">
        <ele>57</ele>
        <time>2018-09-22T09:56:54Z</time>
      </trkpt>
      <trkpt lat="48.3812" lon="-0.05934">
        <ele>60</ele>
        <time>2018-09-22T09:57:12Z</time>
      </trkpt>
      <trkpt lat="48.38136" lon="-0.05923">
        <ele>59</ele>
        <time>2018-09-22T09:57:28Z</time>
      </trkpt>
      <trkpt lat="48.38139" lon="-0.0592">
        <ele>60</ele>
        <time>2018-09-22T09:57:31Z</time>
      </trkpt>
      <trkpt lat="48.38142" lon="-0.05917">
        <ele>59</ele>
        <time>2018-09-22T09:57:34Z</time>
      </trkpt>
      <trkpt lat="48.38154" lon="-0.05882">
        <ele>58</ele>
        <time>2018-09-22T09:58:00Z</time>
      </trkpt>
      <trkpt lat="48.38161" lon="-0.05871">
        <ele>56</ele>
        <time>2018-09-22T09:58:09Z</time>
      </trkpt>
      <trkpt lat="48.38166" lon="-0.05848">
        <ele>54</ele>
        <time>2018-09-22T09:58:23Z</time>
      </trkpt>
      <trkpt lat="48.38178" lon="-0.05816">
        <ele>56</ele>
        <time>2018-09-22T09:58:44Z</time>
      </trkpt>
      <trkpt lat="48.38189" lon="-0.05789">
        <ele>60</ele>
        <time>2018-09-22T09:59:17Z</time>
      </trkpt>
      <trkpt lat="48.38193" lon="-0.05775">
        <ele>56</ele>
        <time>2018-09-22T09:59:37Z</time>
      </trkpt>
      <trkpt lat="48.38199" lon="-0.05768">
        <ele>55</ele>
        <time>2018-09-22T10:00:04Z</time>
      </trkpt>
      <trkpt lat="48.38199" lon="-0.05759">
        <ele>57</ele>
        <time>2018-09-22T10:00:36Z</time>
      </trkpt>
      <trkpt lat="48.38204" lon="-0.05752">
        <ele>59</ele>
        <time>2018-09-22T10:00:45Z</time>
      </trkpt>
      <trkpt lat="48.38207" lon="-0.05754">
        <ele>59</ele>
        <time>2018-09-22T10:01:14Z</time>
      </trkpt>
      <trkpt lat="48.38228" lon="-0.05738">
        <ele>58</ele>
        <time>2018-09-22T10:01:38Z</time>
      </trkpt>
      <trkpt lat="48.38244" lon="-0.05731">
        <ele>62</ele>
        <time>2018-09-22T10:01:52Z</time>
      </trkpt>
      <trkpt lat="48.38247" lon="-0.05729">
        <ele>62</ele>
        <time>2018-09-22T10:01:55Z</time>
      </trkpt>
      <trkpt lat="48.38249" lon="-0.05727">
        <ele>63</ele>
        <time>2018-09-22T10:02:00Z</time>
      </trkpt>
      <trkpt lat="48.38252" lon="-0.05724">
        <ele>63</ele>
        <time>2018-09-22T10:02:23Z</time>
      </trkpt>
      <trkpt lat="48.38253" lon="-0.05712">
        <ele>64</ele>
        <time>2018-09-22T10:02:37Z</time>
      </trkpt>
      <trkpt lat="48.38262" lon="-0.0571">
        <ele>67</ele>
        <time>2018-09-22T10:02:59Z</time>
      </trkpt>
      <trkpt lat="48.38267" lon="-0.05709">
        <ele>67</ele>
        <time>2018-09-22T10:03:06Z</time>
      </trkpt>
      <trkpt lat="48.38275" lon="-0.05701">
        <ele>66</ele>
        <time>2018-09-22T10:03:16Z</time>
      </trkpt>
      <trkpt lat="48.3828" lon="-0.05696">
        <ele>63</ele>
        <time>2018-09-22T10:03:24Z</time>
      </trkpt>
      <trkpt lat="48.38284" lon="-0.05694">
        <ele>59</ele>
        <time>2018-09-22T10:03:28Z</time>
      </trkpt>
      <trkpt lat="48.38287" lon="-0.05692">
        <ele>57</ele>
        <time>2018-09-22T10:03:32Z</time>
      </trkpt>
      <trkpt lat="48.38289" lon="-0.05688">
        <ele>53</ele>
        <time>2018-09-22T10:03:36Z</time>
      </trkpt>
      <trkpt lat="48.38291" lon="-0.05684">
        <ele>53</ele>
        <time>2018-09-22T10:03:41Z</time>
      </trkpt>
      <trkpt lat="48.38293" lon="-0.05681">
        <ele>52</ele>
        <time>2018-09-22T10:03:45Z</time>
      </trkpt>
      <trkpt lat="48.38298" lon="-0.05672">
        <ele>57</ele>
        <time>2018-09-22T10:03:56Z</time>
      </trkpt>
      <trkpt lat="48.383" lon="-0.05663">
        <ele>58</ele>
        <time>2018-09-22T10:04:02Z</time>
      </trkpt>
      <trkpt lat="48.38299" lon="-0.05654">
        <ele>58</ele>
        <time>2018-09-22T10:04:08Z</time>
      </trkpt>
      <trkpt lat="48.38304" lon="-0.05606">
        <ele>56</ele>
        <time>2018-09-22T10:04:38Z</time>
      </trkpt>
      <trkpt lat="48.38306" lon="-0.05596">
        <ele>55</ele>
        <time>2018-09-22T10:04:44Z</time>
      </trkpt>
      <trkpt lat="48.38314" lon="-0.05573">
        <ele>55</ele>
        <time>2018-09-22T10:05:00Z</time>
      </trkpt>
      <trkpt lat="48.38316" lon="-0.05569">
        <ele>54</ele>
        <time>2018-09-22T10:05:03Z</time>
      </trkpt>
      <trkpt lat="48.38324" lon="-0.05552">
        <ele>55</ele>
        <time>2018-09-22T10:05:15Z</time>
      </trkpt>
      <trkpt lat="48.38326" lon="-0.05542">
        <ele>54</ele>
        <time>2018-09-22T10:05:22Z</time>
      </trkpt>
      <trkpt lat="48.38327" lon="-0.05523">
        <ele>55</ele>
        <time>2018-09-22T10:05:39Z</time>
      </trkpt>
      <trkpt lat="48.38329" lon="-0.05521">
        <ele>56</ele>
        <time>2018-09-22T10:05:49Z</time>
      </trkpt>
      <trkpt lat="48.38331" lon="-0.05518">
        <ele>56</ele>
        <time>2018-09-22T10:06:32Z</time>
      </trkpt>
      <trkpt lat="48.38325" lon="-0.05511">
        <ele>60</ele>
        <time>2018-09-22T10:06:53Z</time>
      </trkpt>
      <trkpt lat="48.3831" lon="-0.0547">
        <ele>59</ele>
        <time>2018-09-22T10:07:24Z</time>
      </trkpt>
      <trkpt lat="48.38307" lon="-0.05466">
        <ele>58</ele>
        <time>2018-09-22T10:07:27Z</time>
      </trkpt>
      <trkpt lat="48.38303" lon="-0.05457">
        <ele>56</ele>
        <time>2018-09-22T10:07:34Z</time>
      </trkpt>
      <trkpt lat="48.38279" lon="-0.05423">
        <ele>58</ele>
        <time>2018-09-22T10:08:01Z</time>
      </trkpt>
      <trkpt lat="48.38274" lon="-0.05415">
        <ele>59</ele>
        <time>2018-09-22T10:08:07Z</time>
      </trkpt>
      <trkpt lat="48.38271" lon="-0.05415">
        <ele>59</ele>
        <time>2018-09-22T10:08:10Z</time>
      </trkpt>
      <trkpt lat="48.38267" lon="-0.05416">
        <ele>62</ele>
        <time>2018-09-22T10:08:13Z</time>
      </trkpt>
      <trkpt lat="48.38257" lon="-0.05397">
        <ele>67</ele>
        <time>2018-09-22T10:08:41Z</time>
      </trkpt>
      <trkpt lat="48.38255" lon="-0.05394">
        <ele>68</ele>
        <time>2018-09-22T10:08:44Z</time>
      </trkpt>
      <trkpt lat="48.3824" lon="-0.05351">
        <ele>68</ele>
        <time>2018-09-22T10:09:15Z</time>
      </trkpt>
      <trkpt lat="48.38232" lon="-0.05336">
        <ele>68</ele>
        <time>2018-09-22T10:09:27Z</time>
      </trkpt>
      <trkpt lat="48.38231" lon="-0.05331">
        <ele>67</ele>
        <time>2018-09-22T10:09:29Z</time>
      </trkpt>
      <trkpt lat="48.38223" lon="-0.05319">
        <ele>71</ele>
        <time>2018-09-22T10:09:39Z</time>
      </trkpt>
      <trkpt lat="48.38203" lon="-0.0528">
        <ele>66</ele>
        <time>2018-09-22T10:10:10Z</time>
      </trkpt>
      <trkpt lat="48.38188" lon="-0.05261">
        <ele>65</ele>
        <time>2018-09-22T10:10:28Z</time>
      </trkpt>
      <trkpt lat="48.38178" lon="-0.05254">
        <ele>66</ele>
        <time>2018-09-22T10:10:36Z</time>
      </trkpt>
      <trkpt lat="48.38172" lon="-0.0525">
        <ele>67</ele>
        <time>2018-09-22T10:10:41Z</time>
      </trkpt>
      <trkpt lat="48.38159" lon="-0.05245">
        <ele>66</ele>
        <time>2018-09-22T10:10:53Z</time>
      </trkpt>
      <trkpt lat="48.38153" lon="-0.05244">
        <ele>65</ele>
        <time>2018-09-22T10:10:59Z</time>
      </trkpt>
      <trkpt lat="48.3815" lon="-0.05244">
        <ele>64</ele>
        <time>2018-09-22T10:11:02Z</time>
      </trkpt>
      <trkpt lat="48.38148" lon="-0.05245">
        <ele>64</ele>
        <time>2018-09-22T10:11:05Z</time>
      </trkpt>
      <trkpt lat="48.38142" lon="-0.05246">
        <ele>64</ele>
        <time>2018-09-22T10:11:12Z</time>
      </trkpt>
      <trkpt lat="48.38139" lon="-0.05248">
        <ele>64</ele>
        <time>2018-09-22T10:11:15Z</time>
      </trkpt>
      <trkpt lat="48.38125" lon="-0.05255">
        <ele>65</ele>
        <time>2018-09-22T10:11:26Z</time>
      </trkpt>
      <trkpt lat="48.38122" lon="-0.05257">
        <ele>66</ele>
        <time>2018-09-22T10:11:28Z</time>
      </trkpt>
      <trkpt lat="48.3812" lon="-0.05259">
        <ele>66</ele>
        <time>2018-09-22T10:11:30Z</time>
      </trkpt>
      <trkpt lat="48.381" lon="-0.0527">
        <ele>68</ele>
        <time>2018-09-22T10:11:49Z</time>
      </trkpt>
      <trkpt lat="48.38095" lon="-0.05272">
        <ele>67</ele>
        <time>2018-09-22T10:11:53Z</time>
      </trkpt>
      <trkpt lat="48.38077" lon="-0.05284">
        <ele>68</ele>
        <time>2018-09-22T10:12:11Z</time>
      </trkpt>
      <trkpt lat="48.38074" lon="-0.05286">
        <ele>68</ele>
        <time>2018-09-22T10:12:14Z</time>
      </trkpt>
      <trkpt lat="48.38072" lon="-0.05288">
        <ele>67</ele>
        <time>2018-09-22T10:12:16Z</time>
      </trkpt>
      <trkpt lat="48.38069" lon="-0.05293">
        <ele>67</ele>
        <time>2018-09-22T10:12:20Z</time>
      </trkpt>
      <trkpt lat="48.38065" lon="-0.0531">
        <ele>67</ele>
        <time>2018-09-22T10:12:31Z</time>
      </trkpt>
      <trkpt lat="48.38063" lon="-0.05317">
        <ele>68</ele>
        <time>2018-09-22T10:12:35Z</time>
      </trkpt>
      <trkpt lat="48.38063" lon="-0.0532">
        <ele>68</ele>
        <time>2018-09-22T10:12:37Z</time>
      </trkpt>
      <trkpt lat="48.38063" lon="-0.05323">
        <ele>69</ele>
        <time>2018-09-22T10:12:39Z</time>
      </trkpt>
      <trkpt lat="48.38062" lon="-0.05327">
        <ele>69</ele>
        <time>2018-09-22T10:12:41Z</time>
      </trkpt>
      <trkpt lat="48.38061" lon="-0.0533">
        <ele>69</ele>
        <time>2018-09-22T10:12:43Z</time>
      </trkpt>
      <trkpt lat="48.3806" lon="-0.05333">
        <ele>70</ele>
        <time>2018-09-22T10:12:45Z</time>
      </trkpt>
      <trkpt lat="48.38058" lon="-0.05336">
        <ele>70</ele>
        <time>2018-09-22T10:12:47Z</time>
      </trkpt>
      <trkpt lat="48.38056" lon="-0.05339">
        <ele>70</ele>
        <time>2018-09-22T10:12:49Z</time>
      </trkpt>
      <trkpt lat="48.3805" lon="-0.05346">
        <ele>70</ele>
        <time>2018-09-22T10:12:55Z</time>
      </trkpt>
      <trkpt lat="48.38042" lon="-0.05351">
        <ele>67</ele>
        <time>2018-09-22T10:14:14Z</time>
      </trkpt>
      <trkpt lat="48.38041" lon="-0.05352">
        <ele>67</ele>
        <time>2018-09-22T10:14:16Z</time>
      </trkpt>
      <trkpt lat="48.3804" lon="-0.05353">
        <ele>67</ele>
        <time>2018-09-22T10:14:18Z</time>
      </trkpt>
      <trkpt lat="48.38036" lon="-0.05353">
        <ele>67</ele>
        <time>2018-09-22T10:14:22Z</time>
      </trkpt>
      <trkpt lat="48.38035" lon="-0.05354">
        <ele>67</ele>
        <time>2018-09-22T10:14:25Z</time>
      </trkpt>
      <trkpt lat="48.38029" lon="-0.05356">
        <ele>66</ele>
        <time>2018-09-22T10:14:38Z</time>
      </trkpt>
      <trkpt lat="48.38027" lon="-0.05356">
        <ele>66</ele>
        <time>2018-09-22T10:14:41Z</time>
      </trkpt>
      <trkpt lat="48.38022" lon="-0.05357">
        <ele>66</ele>
        <time>2018-09-22T10:14:46Z</time>
      </trkpt>
      <trkpt lat="48.3802" lon="-0.05357">
        <ele>65</ele>
        <time>2018-09-22T10:14:49Z</time>
      </trkpt>
      <trkpt lat="48.38017" lon="-0.05356">
        <ele>64</ele>
        <time>2018-09-22T10:14:52Z</time>
      </trkpt>
      <trkpt lat="48.38015" lon="-0.05356">
        <ele>64</ele>
        <time>2018-09-22T10:14:55Z</time>
      </trkpt>
      <trkpt lat="48.38003" lon="-0.05358">
        <ele>63</ele>
        <time>2018-09-22T10:15:07Z</time>
      </trkpt>
      <trkpt lat="48.38001" lon="-0.05359">
        <ele>63</ele>
        <time>2018-09-22T10:15:09Z</time>
      </trkpt>
      <trkpt lat="48.37998" lon="-0.0536">
        <ele>63</ele>
        <time>2018-09-22T10:15:11Z</time>
      </trkpt>
      <trkpt lat="48.37984" lon="-0.05373">
        <ele>63</ele>
        <time>2018-09-22T10:15:43Z</time>
      </trkpt>
      <trkpt lat="48.37979" lon="-0.05377">
        <ele>63</ele>
        <time>2018-09-22T10:15:50Z</time>
      </trkpt>
      <trkpt lat="48.37978" lon="-0.05378">
        <ele>63</ele>
        <time>2018-09-22T10:15:53Z</time>
      </trkpt>
      <trkpt lat="48.37974" lon="-0.05382">
        <ele>64</ele>
        <time>2018-09-22T10:15:59Z</time>
      </trkpt>
      <trkpt lat="48.37968" lon="-0.05393">
        <ele>63</ele>
        <time>2018-09-22T10:16:11Z</time>
      </trkpt>
      <trkpt lat="48.37967" lon="-0.05396">
        <ele>63</ele>
        <time>2018-09-22T10:16:13Z</time>
      </trkpt>
      <trkpt lat="48.37965" lon="-0.05399">
        <ele>63</ele>
        <time>2018-09-22T10:16:16Z</time>
      </trkpt>
      <trkpt lat="48.37963" lon="-0.05401">
        <ele>63</ele>
        <time>2018-09-22T10:16:19Z</time>
      </trkpt>
      <trkpt lat="48.37961" lon="-0.05402">
        <ele>63</ele>
        <time>2018-09-22T10:16:21Z</time>
      </trkpt>
      <trkpt lat="48.3796" lon="-0.05403">
        <ele>63</ele>
        <time>2018-09-22T10:16:23Z</time>
      </trkpt>
      <trkpt lat="48.37957" lon="-0.05403">
        <ele>63</ele>
        <time>2018-09-22T10:16:26Z</time>
      </trkpt>
      <trkpt lat="48.37951" lon="-0.05405">
        <ele>62</ele>
        <time>2018-09-22T10:16:36Z</time>
      </trkpt>
      <trkpt lat="48.37949" lon="-0.05406">
        <ele>62</ele>
        <time>2018-09-22T10:16:38Z</time>
      </trkpt>
      <trkpt lat="48.37934" lon="-0.05414">
        <ele>63</ele>
        <time>2018-09-22T10:16:54Z</time>
      </trkpt>
      <trkpt lat="48.37928" lon="-0.0542">
        <ele>63</ele>
        <time>2018-09-22T10:17:03Z</time>
      </trkpt>
      <trkpt lat="48.3792" lon="-0.05424">
        <ele>62</ele>
        <time>2018-09-22T10:17:12Z</time>
      </trkpt>
      <trkpt lat="48.37919" lon="-0.05425">
        <ele>62</ele>
        <time>2018-09-22T10:17:14Z</time>
      </trkpt>
      <trkpt lat="48.3791" lon="-0.0543">
        <ele>62</ele>
        <time>2018-09-22T10:17:24Z</time>
      </trkpt>
    </trkseg>
  </trk>
  <trk>
    <name><![CDATA[20181017211411-Rilcn]]></name>
    <trkseg>
      <trkpt lat="48.37906" lon="-0.05436">
        <ele>69</ele>
        <time>2018-09-22T11:50:49Z</time>
      </trkpt>
      <trkpt lat="48.37906" lon="-0.05436">
        <ele>69</ele>
        <time>2018-09-22T11:50:50Z</time>
      </trkpt>
      <trkpt lat="48.37905" lon="-0.05433">
        <ele>69</ele>
        <time>2018-09-22T11:51:29Z</time>
      </trkpt>
      <trkpt lat="48.37907" lon="-0.05433">
        <ele>69</ele>
        <time>2018-09-22T11:52:48Z</time>
      </trkpt>
      <trkpt lat="48.37911" lon="-0.0543">
        <ele>69</ele>
        <time>2018-09-22T11:52:58Z</time>
      </trkpt>
      <trkpt lat="48.37914" lon="-0.05428">
        <ele>70</ele>
        <time>2018-09-22T11:53:00Z</time>
      </trkpt>
      <trkpt lat="48.37916" lon="-0.05423">
        <ele>70</ele>
        <time>2018-09-22T11:53:04Z</time>
      </trkpt>
      <trkpt lat="48.37928" lon="-0.05402">
        <ele>71</ele>
        <time>2018-09-22T11:53:19Z</time>
      </trkpt>
      <trkpt lat="48.3794" lon="-0.05395">
        <ele>72</ele>
        <time>2018-09-22T11:53:31Z</time>
      </trkpt>
      <trkpt lat="48.37942" lon="-0.05394">
        <ele>71</ele>
        <time>2018-09-22T11:53:33Z</time>
      </trkpt>
      <trkpt lat="48.37945" lon="-0.05392">
        <ele>71</ele>
        <time>2018-09-22T11:53:35Z</time>
      </trkpt>
      <trkpt lat="48.37949" lon="-0.05365">
        <ele>70</ele>
        <time>2018-09-22T11:53:49Z</time>
      </trkpt>
      <trkpt lat="48.37948" lon="-0.05355">
        <ele>72</ele>
        <time>2018-09-22T11:53:55Z</time>
      </trkpt>
      <trkpt lat="48.37947" lon="-0.05352">
        <ele>73</ele>
        <time>2018-09-22T11:53:57Z</time>
      </trkpt>
      <trkpt lat="48.37946" lon="-0.0535">
        <ele>73</ele>
        <time>2018-09-22T11:54:00Z</time>
      </trkpt>
      <trkpt lat="48.37945" lon="-0.05348">
        <ele>73</ele>
        <time>2018-09-22T11:54:03Z</time>
      </trkpt>
      <trkpt lat="48.37945" lon="-0.05349">
        <ele>72</ele>
        <time>2018-09-22T11:54:18Z</time>
      </trkpt>
      <trkpt lat="48.37945" lon="-0.0535">
        <ele>72</ele>
        <time>2018-09-22T11:54:20Z</time>
      </trkpt>
      <trkpt lat="48.37946" lon="-0.05352">
        <ele>72</ele>
        <time>2018-09-22T11:54:22Z</time>
      </trkpt>
      <trkpt lat="48.37946" lon="-0.05354">
        <ele>71</ele>
        <time>2018-09-22T11:54:24Z</time>
      </trkpt>
      <trkpt lat="48.37947" lon="-0.05356">
        <ele>71</ele>
        <time>2018-09-22T11:54:26Z</time>
      </trkpt>
      <trkpt lat="48.37948" lon="-0.05367">
        <ele>67</ele>
        <time>2018-09-22T11:54:34Z</time>
      </trkpt>
      <trkpt lat="48.37947" lon="-0.05379">
        <ele>65</ele>
        <time>2018-09-22T11:54:42Z</time>
      </trkpt>
      <trkpt lat="48.37947" lon="-0.05388">
        <ele>65</ele>
        <time>2018-09-22T11:54:48Z</time>
      </trkpt>
      <trkpt lat="48.37947" lon="-0.05391">
        <ele>65</ele>
        <time>2018-09-22T11:54:50Z</time>
      </trkpt>
      <trkpt lat="48.37945" lon="-0.05393">
        <ele>65</ele>
        <time>2018-09-22T11:54:53Z</time>
      </trkpt>
      <trkpt lat="48.37936" lon="-0.05395">
        <ele>64</ele>
        <time>2018-09-22T11:55:01Z</time>
      </trkpt>
      <trkpt lat="48.37934" lon="-0.05397">
        <ele>65</ele>
        <time>2018-09-22T11:55:03Z</time>
      </trkpt>
      <trkpt lat="48.37928" lon="-0.05408">
        <ele>65</ele>
        <time>2018-09-22T11:55:11Z</time>
      </trkpt>
      <trkpt lat="48.37924" lon="-0.05415">
        <ele>65</ele>
        <time>2018-09-22T11:55:17Z</time>
      </trkpt>
      <trkpt lat="48.37923" lon="-0.05418">
        <ele>65</ele>
        <time>2018-09-22T11:55:19Z</time>
      </trkpt>
      <trkpt lat="48.37921" lon="-0.0542">
        <ele>65</ele>
        <time>2018-09-22T11:55:22Z</time>
      </trkpt>
      <trkpt lat="48.37919" lon="-0.05425">
        <ele>64</ele>
        <time>2018-09-22T11:55:47Z</time>
      </trkpt>
      <trkpt lat="48.37919" lon="-0.05426">
        <ele>63</ele>
        <time>2018-09-22T11:55:58Z</time>
      </trkpt>
      <trkpt lat="48.37915" lon="-0.05429">
        <ele>62</ele>
        <time>2018-09-22T11:56:32Z</time>
      </trkpt>
      <trkpt lat="48.37914" lon="-0.05431">
        <ele>61</ele>
        <time>2018-09-22T11:56:42Z</time>
      </trkpt>
      <trkpt lat="48.37916" lon="-0.05429">
        <ele>61</ele>
        <time>2018-09-22T11:57:14Z</time>
      </trkpt>
      <trkpt lat="48.37917" lon="-0.05429">
        <ele>60</ele>
        <time>2018-09-22T11:57:25Z</time>
      </trkpt>
      <trkpt lat="48.37919" lon="-0.05428">
        <ele>59</ele>
        <time>2018-09-22T11:57:42Z</time>
      </trkpt>
      <trkpt lat="48.37919" lon="-0.05426">
        <ele>58</ele>
        <time>2018-09-22T11:59:16Z</time>
      </trkpt>
      <trkpt lat="48.37918" lon="-0.05426">
        <ele>58</ele>
        <time>2018-09-22T11:59:31Z</time>
      </trkpt>
      <trkpt lat="48.3792" lon="-0.05437">
        <ele>56</ele>
        <time>2018-09-22T12:00:24Z</time>
      </trkpt>
      <trkpt lat="48.37914" lon="-0.05438">
        <ele>56</ele>
        <time>2018-09-22T12:00:30Z</time>
      </trkpt>
      <trkpt lat="48.37912" lon="-0.05442">
        <ele>56</ele>
        <time>2018-09-22T12:00:33Z</time>
      </trkpt>
      <trkpt lat="48.37911" lon="-0.05442">
        <ele>57</ele>
        <time>2018-09-22T12:00:48Z</time>
      </trkpt>
      <trkpt lat="48.37909" lon="-0.05442">
        <ele>57</ele>
        <time>2018-09-22T12:01:09Z</time>
      </trkpt>
      <trkpt lat="48.3791" lon="-0.05448">
        <ele>56</ele>
        <time>2018-09-22T12:01:28Z</time>
      </trkpt>
      <trkpt lat="48.3791" lon="-0.05468">
        <ele>53</ele>
        <time>2018-09-22T12:01:42Z</time>
      </trkpt>
      <trkpt lat="48.37909" lon="-0.05478">
        <ele>54</ele>
        <time>2018-09-22T12:01:49Z</time>
      </trkpt>
      <trkpt lat="48.37907" lon="-0.0549">
        <ele>54</ele>
        <time>2018-09-22T12:01:57Z</time>
      </trkpt>
      <trkpt lat="48.37906" lon="-0.05493">
        <ele>55</ele>
        <time>2018-09-22T12:01:59Z</time>
      </trkpt>
      <trkpt lat="48.37896" lon="-0.05494">
        <ele>58</ele>
        <time>2018-09-22T12:02:09Z</time>
      </trkpt>
      <trkpt lat="48.37892" lon="-0.05492">
        <ele>58</ele>
        <time>2018-09-22T12:02:12Z</time>
      </trkpt>
      <trkpt lat="48.37867" lon="-0.0548">
        <ele>63</ele>
        <time>2018-09-22T12:02:36Z</time>
      </trkpt>
      <trkpt lat="48.37838" lon="-0.05462">
        <ele>61</ele>
        <time>2018-09-22T12:03:07Z</time>
      </trkpt>
      <trkpt lat="48.37813" lon="-0.05442">
        <ele>61</ele>
        <time>2018-09-22T12:03:32Z</time>
      </trkpt>
      <trkpt lat="48.37804" lon="-0.05436">
        <ele>61</ele>
        <time>2018-09-22T12:03:40Z</time>
      </trkpt>
      <trkpt lat="48.37802" lon="-0.05434">
        <ele>61</ele>
        <time>2018-09-22T12:03:42Z</time>
      </trkpt>
      <trkpt lat="48.37787" lon="-0.05415">
        <ele>61</ele>
        <time>2018-09-22T12:04:00Z</time>
      </trkpt>
      <trkpt lat="48.37785" lon="-0.05412">
        <ele>61</ele>
        <time>2018-09-22T12:04:02Z</time>
      </trkpt>
      <trkpt lat="48.37775" lon="-0.05399">
        <ele>62</ele>
        <time>2018-09-22T12:04:13Z</time>
      </trkpt>
      <trkpt lat="48.37767" lon="-0.05392">
        <ele>65</ele>
        <time>2018-09-22T12:04:19Z</time>
      </trkpt>
      <trkpt lat="48.3776" lon="-0.05384">
        <ele>64</ele>
        <time>2018-09-22T12:04:33Z</time>
      </trkpt>
      <trkpt lat="48.37758" lon="-0.05382">
        <ele>64</ele>
        <time>2018-09-22T12:04:36Z</time>
      </trkpt>
      <trkpt lat="48.37744" lon="-0.05376">
        <ele>64</ele>
        <time>2018-09-22T12:04:53Z</time>
      </trkpt>
      <trkpt lat="48.37739" lon="-0.05371">
        <ele>64</ele>
        <time>2018-09-22T12:04:59Z</time>
      </trkpt>
      <trkpt lat="48.37728" lon="-0.05358">
        <ele>66</ele>
        <time>2018-09-22T12:05:13Z</time>
      </trkpt>
      <trkpt lat="48.37726" lon="-0.05356">
        <ele>67</ele>
        <time>2018-09-22T12:05:15Z</time>
      </trkpt>
      <trkpt lat="48.3772" lon="-0.05352">
        <ele>68</ele>
        <time>2018-09-22T12:05:21Z</time>
      </trkpt>
      <trkpt lat="48.37718" lon="-0.0535">
        <ele>68</ele>
        <time>2018-09-22T12:05:23Z</time>
      </trkpt>
      <trkpt lat="48.37715" lon="-0.05348">
        <ele>68</ele>
        <time>2018-09-22T12:05:25Z</time>
      </trkpt>
      <trkpt lat="48.37713" lon="-0.05347">
        <ele>68</ele>
        <time>2018-09-22T12:05:27Z</time>
      </trkpt>
      <trkpt lat="48.37712" lon="-0.05345">
        <ele>68</ele>
        <time>2018-09-22T12:05:29Z</time>
      </trkpt>
      <trkpt lat="48.3771" lon="-0.05342">
        <ele>68</ele>
        <time>2018-09-22T12:05:31Z</time>
      </trkpt>
      <trkpt lat="48.37708" lon="-0.05341">
        <ele>68</ele>
        <time>2018-09-22T12:05:33Z</time>
      </trkpt>
      <trkpt lat="48.37704" lon="-0.05336">
        <ele>68</ele>
        <time>2018-09-22T12:05:37Z</time>
      </trkpt>
      <trkpt lat="48.37702" lon="-0.05334">
        <ele>68</ele>
        <time>2018-09-22T12:05:39Z</time>
      </trkpt>
      <trkpt lat="48.37697" lon="-0.05328">
        <ele>68</ele>
        <time>2018-09-22T12:05:45Z</time>
      </trkpt>
      <trkpt lat="48.37684" lon="-0.05309">
        <ele>64</ele>
        <time>2018-09-22T12:06:02Z</time>
      </trkpt>
      <trkpt lat="48.37672" lon="-0.05293">
        <ele>61</ele>
        <time>2018-09-22T12:06:17Z</time>
      </trkpt>
      <trkpt lat="48.37665" lon="-0.05281">
        <ele>61</ele>
        <time>2018-09-22T12:06:25Z</time>
      </trkpt>
      <trkpt lat="48.37663" lon="-0.05279">
        <ele>62</ele>
        <time>2018-09-22T12:06:27Z</time>
      </trkpt>
      <trkpt lat="48.3764" lon="-0.05248">
        <ele>63</ele>
        <time>2018-09-22T12:06:58Z</time>
      </trkpt>
      <trkpt lat="48.37629" lon="-0.05234">
        <ele>65</ele>
        <time>2018-09-22T12:07:11Z</time>
      </trkpt>
      <trkpt lat="48.37623" lon="-0.05224">
        <ele>66</ele>
        <time>2018-09-22T12:07:20Z</time>
      </trkpt>
      <trkpt lat="48.37622" lon="-0.05222">
        <ele>66</ele>
        <time>2018-09-22T12:07:22Z</time>
      </trkpt>
      <trkpt lat="48.37607" lon="-0.05181">
        <ele>68</ele>
        <time>2018-09-22T12:07:49Z</time>
      </trkpt>
      <trkpt lat="48.37602" lon="-0.05148">
        <ele>66</ele>
        <time>2018-09-22T12:08:09Z</time>
      </trkpt>
      <trkpt lat="48.37601" lon="-0.05141">
        <ele>66</ele>
        <time>2018-09-22T12:08:13Z</time>
      </trkpt>
      <trkpt lat="48.37599" lon="-0.05125">
        <ele>67</ele>
        <time>2018-09-22T12:08:22Z</time>
      </trkpt>
      <trkpt lat="48.37598" lon="-0.05122">
        <ele>67</ele>
        <time>2018-09-22T12:08:24Z</time>
      </trkpt>
      <trkpt lat="48.37597" lon="-0.05118">
        <ele>67</ele>
        <time>2018-09-22T12:08:26Z</time>
      </trkpt>
      <trkpt lat="48.37595" lon="-0.05104">
        <ele>68</ele>
        <time>2018-09-22T12:08:35Z</time>
      </trkpt>
      <trkpt lat="48.37594" lon="-0.05094">
        <ele>69</ele>
        <time>2018-09-22T12:08:41Z</time>
      </trkpt>
      <trkpt lat="48.37593" lon="-0.05091">
        <ele>70</ele>
        <time>2018-09-22T12:08:43Z</time>
      </trkpt>
      <trkpt lat="48.37593" lon="-0.05075">
        <ele>70</ele>
        <time>2018-09-22T12:08:52Z</time>
      </trkpt>
      <trkpt lat="48.37592" lon="-0.0507">
        <ele>70</ele>
        <time>2018-09-22T12:08:55Z</time>
      </trkpt>
      <trkpt lat="48.3759" lon="-0.05059">
        <ele>68</ele>
        <time>2018-09-22T12:09:05Z</time>
      </trkpt>
      <trkpt lat="48.37589" lon="-0.05057">
        <ele>67</ele>
        <time>2018-09-22T12:09:41Z</time>
      </trkpt>
      <trkpt lat="48.37592" lon="-0.05052">
        <ele>64</ele>
        <time>2018-09-22T12:10:47Z</time>
      </trkpt>
      <trkpt lat="48.37593" lon="-0.05051">
        <ele>62</ele>
        <time>2018-09-22T12:10:59Z</time>
      </trkpt>
      <trkpt lat="48.37596" lon="-0.05055">
        <ele>63</ele>
        <time>2018-09-22T12:11:25Z</time>
      </trkpt>
      <trkpt lat="48.37595" lon="-0.05056">
        <ele>62</ele>
        <time>2018-09-22T12:12:03Z</time>
      </trkpt>
      <trkpt lat="48.37591" lon="-0.05055">
        <ele>64</ele>
        <time>2018-09-22T12:12:34Z</time>
      </trkpt>
      <trkpt lat="48.37593" lon="-0.05054">
        <ele>66</ele>
        <time>2018-09-22T12:13:41Z</time>
      </trkpt>
      <trkpt lat="48.37592" lon="-0.05055">
        <ele>67</ele>
        <time>2018-09-22T12:14:31Z</time>
      </trkpt>
      <trkpt lat="48.37596" lon="-0.05056">
        <ele>67</ele>
        <time>2018-09-22T12:14:46Z</time>
      </trkpt>
      <trkpt lat="48.37597" lon="-0.05057">
        <ele>67</ele>
        <time>2018-09-22T12:14:49Z</time>
      </trkpt>
      <trkpt lat="48.37598" lon="-0.05055">
        <ele>68</ele>
        <time>2018-09-22T12:15:06Z</time>
      </trkpt>
      <trkpt lat="48.37599" lon="-0.05053">
        <ele>68</ele>
        <time>2018-09-22T12:15:09Z</time>
      </trkpt>
      <trkpt lat="48.37598" lon="-0.05051">
        <ele>69</ele>
        <time>2018-09-22T12:15:13Z</time>
      </trkpt>
      <trkpt lat="48.37597" lon="-0.0505">
        <ele>68</ele>
        <time>2018-09-22T12:15:40Z</time>
      </trkpt>
      <trkpt lat="48.37596" lon="-0.0505">
        <ele>68</ele>
        <time>2018-09-22T12:15:43Z</time>
      </trkpt>
      <trkpt lat="48.37595" lon="-0.0505">
        <ele>68</ele>
        <time>2018-09-22T12:15:50Z</time>
      </trkpt>
      <trkpt lat="48.37594" lon="-0.05052">
        <ele>68</ele>
        <time>2018-09-22T12:16:05Z</time>
      </trkpt>
      <trkpt lat="48.37597" lon="-0.05055">
        <ele>68</ele>
        <time>2018-09-22T12:16:22Z</time>
      </trkpt>
      <trkpt lat="48.37598" lon="-0.05057">
        <ele>68</ele>
        <time>2018-09-22T12:16:24Z</time>
      </trkpt>
      <trkpt lat="48.37601" lon="-0.05059">
        <ele>69</ele>
        <time>2018-09-22T12:16:27Z</time>
      </trkpt>
      <trkpt lat="48.37604" lon="-0.05063">
        <ele>70</ele>
        <time>2018-09-22T12:16:31Z</time>
      </trkpt>
      <trkpt lat="48.3761" lon="-0.05067">
        <ele>71</ele>
        <time>2018-09-22T12:16:37Z</time>
      </trkpt>
      <trkpt lat="48.37612" lon="-0.05069">
        <ele>71</ele>
        <time>2018-09-22T12:16:40Z</time>
      </trkpt>
      <trkpt lat="48.37637" lon="-0.05087">
        <ele>72</ele>
        <time>2018-09-22T12:17:05Z</time>
      </trkpt>
      <trkpt lat="48.37643" lon="-0.05093">
        <ele>72</ele>
        <time>2018-09-22T12:17:13Z</time>
      </trkpt>
      <trkpt lat="48.37657" lon="-0.05106">
        <ele>72</ele>
        <time>2018-09-22T12:17:29Z</time>
      </trkpt>
      <trkpt lat="48.37659" lon="-0.05107">
        <ele>72</ele>
        <time>2018-09-22T12:17:31Z</time>
      </trkpt>
      <trkpt lat="48.3769" lon="-0.05131">
        <ele>75</ele>
        <time>2018-09-22T12:18:02Z</time>
      </trkpt>
      <trkpt lat="48.37695" lon="-0.05136">
        <ele>76</ele>
        <time>2018-09-22T12:18:08Z</time>
      </trkpt>
      <trkpt lat="48.37697" lon="-0.05137">
        <ele>76</ele>
        <time>2018-09-22T12:18:10Z</time>
      </trkpt>
      <trkpt lat="48.377" lon="-0.05138">
        <ele>77</ele>
        <time>2018-09-22T12:18:13Z</time>
      </trkpt>
      <trkpt lat="48.37704" lon="-0.0514">
        <ele>77</ele>
        <time>2018-09-22T12:18:17Z</time>
      </trkpt>
      <trkpt lat="48.37706" lon="-0.05142">
        <ele>77</ele>
        <time>2018-09-22T12:18:20Z</time>
      </trkpt>
      <trkpt lat="48.3771" lon="-0.05146">
        <ele>78</ele>
        <time>2018-09-22T12:18:38Z</time>
      </trkpt>
      <trkpt lat="48.37715" lon="-0.05153">
        <ele>78</ele>
        <time>2018-09-22T12:19:02Z</time>
      </trkpt>
      <trkpt lat="48.37723" lon="-0.05159">
        <ele>78</ele>
        <time>2018-09-22T12:19:15Z</time>
      </trkpt>
      <trkpt lat="48.37737" lon="-0.05168">
        <ele>78</ele>
        <time>2018-09-22T12:19:32Z</time>
      </trkpt>
      <trkpt lat="48.37739" lon="-0.05167">
        <ele>79</ele>
        <time>2018-09-22T12:19:36Z</time>
      </trkpt>
      <trkpt lat="48.37742" lon="-0.05168">
        <ele>81</ele>
        <time>2018-09-22T12:20:12Z</time>
      </trkpt>
      <trkpt lat="48.37744" lon="-0.0517">
        <ele>81</ele>
        <time>2018-09-22T12:20:15Z</time>
      </trkpt>
      <trkpt lat="48.37763" lon="-0.05191">
        <ele>80</ele>
        <time>2018-09-22T12:20:45Z</time>
      </trkpt>
      <trkpt lat="48.37792" lon="-0.05213">
        <ele>84</ele>
        <time>2018-09-22T12:21:13Z</time>
      </trkpt>
      <trkpt lat="48.37794" lon="-0.05215">
        <ele>83</ele>
        <time>2018-09-22T12:21:16Z</time>
      </trkpt>
      <trkpt lat="48.37806" lon="-0.05225">
        <ele>82</ele>
        <time>2018-09-22T12:21:29Z</time>
      </trkpt>
      <trkpt lat="48.37808" lon="-0.05225">
        <ele>82</ele>
        <time>2018-09-22T12:21:32Z</time>
      </trkpt>
      <trkpt lat="48.37811" lon="-0.05226">
        <ele>83</ele>
        <time>2018-09-22T12:21:42Z</time>
      </trkpt>
      <trkpt lat="48.37815" lon="-0.05207">
        <ele>87</ele>
        <time>2018-09-22T12:22:16Z</time>
      </trkpt>
      <trkpt lat="48.37818" lon="-0.05191">
        <ele>82</ele>
        <time>2018-09-22T12:23:01Z</time>
      </trkpt>
      <trkpt lat="48.37824" lon="-0.05198">
        <ele>81</ele>
        <time>2018-09-22T12:23:33Z</time>
      </trkpt>
      <trkpt lat="48.37817" lon="-0.05201">
        <ele>82</ele>
        <time>2018-09-22T12:23:53Z</time>
      </trkpt>
      <trkpt lat="48.37815" lon="-0.05203">
        <ele>76</ele>
        <time>2018-09-22T12:24:25Z</time>
      </trkpt>
      <trkpt lat="48.37816" lon="-0.05217">
        <ele>74</ele>
        <time>2018-09-22T12:24:49Z</time>
      </trkpt>
      <trkpt lat="48.37819" lon="-0.05222">
        <ele>72</ele>
        <time>2018-09-22T12:25:43Z</time>
      </trkpt>
      <trkpt lat="48.37817" lon="-0.05225">
        <ele>79</ele>
        <time>2018-09-22T12:25:48Z</time>
      </trkpt>
      <trkpt lat="48.37819" lon="-0.05228">
        <ele>83</ele>
        <time>2018-09-22T12:25:53Z</time>
      </trkpt>
      <trkpt lat="48.37823" lon="-0.05222">
        <ele>87</ele>
        <time>2018-09-22T12:26:01Z</time>
      </trkpt>
      <trkpt lat="48.37825" lon="-0.05214">
        <ele>88</ele>
        <time>2018-09-22T12:26:09Z</time>
      </trkpt>
      <trkpt lat="48.37826" lon="-0.05209">
        <ele>88</ele>
        <time>2018-09-22T12:26:13Z</time>
      </trkpt>
      <trkpt lat="48.37825" lon="-0.05205">
        <ele>87</ele>
        <time>2018-09-22T12:26:17Z</time>
      </trkpt>
      <trkpt lat="48.37823" lon="-0.05197">
        <ele>87</ele>
        <time>2018-09-22T12:26:24Z</time>
      </trkpt>
      <trkpt lat="48.37823" lon="-0.05194">
        <ele>85</ele>
        <time>2018-09-22T12:26:38Z</time>
      </trkpt>
      <trkpt lat="48.37821" lon="-0.05191">
        <ele>85</ele>
        <time>2018-09-22T12:26:47Z</time>
      </trkpt>
      <trkpt lat="48.37819" lon="-0.05188">
        <ele>83</ele>
        <time>2018-09-22T12:26:52Z</time>
      </trkpt>
      <trkpt lat="48.37818" lon="-0.05185">
        <ele>83</ele>
        <time>2018-09-22T12:26:56Z</time>
      </trkpt>
      <trkpt lat="48.37816" lon="-0.05184">
        <ele>83</ele>
        <time>2018-09-22T12:27:02Z</time>
      </trkpt>
      <trkpt lat="48.37813" lon="-0.05183">
        <ele>83</ele>
        <time>2018-09-22T12:27:08Z</time>
      </trkpt>
      <trkpt lat="48.37811" lon="-0.05185">
        <ele>84</ele>
        <time>2018-09-22T12:27:16Z</time>
      </trkpt>
      <trkpt lat="48.3781" lon="-0.05183">
        <ele>85</ele>
        <time>2018-09-22T12:27:35Z</time>
      </trkpt>
      <trkpt lat="48.37803" lon="-0.0518">
        <ele>80</ele>
        <time>2018-09-22T12:27:46Z</time>
      </trkpt>
      <trkpt lat="48.37802" lon="-0.05172">
        <ele>79</ele>
        <time>2018-09-22T12:27:51Z</time>
      </trkpt>
      <trkpt lat="48.37801" lon="-0.05165">
        <ele>81</ele>
        <time>2018-09-22T12:27:56Z</time>
      </trkpt>
      <trkpt lat="48.37798" lon="-0.0516">
        <ele>82</ele>
        <time>2018-09-22T12:28:03Z</time>
      </trkpt>
      <trkpt lat="48.37794" lon="-0.05158">
        <ele>82</ele>
        <time>2018-09-22T12:28:14Z</time>
      </trkpt>
      <trkpt lat="48.3779" lon="-0.0516">
        <ele>81</ele>
        <time>2018-09-22T12:28:31Z</time>
      </trkpt>
      <trkpt lat="48.37789" lon="-0.05162">
        <ele>80</ele>
        <time>2018-09-22T12:28:35Z</time>
      </trkpt>
      <trkpt lat="48.37789" lon="-0.05164">
        <ele>80</ele>
        <time>2018-09-22T12:28:45Z</time>
      </trkpt>
      <trkpt lat="48.37793" lon="-0.0517">
        <ele>80</ele>
        <time>2018-09-22T12:29:00Z</time>
      </trkpt>
      <trkpt lat="48.37797" lon="-0.05172">
        <ele>82</ele>
        <time>2018-09-22T12:29:08Z</time>
      </trkpt>
      <trkpt lat="48.37799" lon="-0.05174">
        <ele>82</ele>
        <time>2018-09-22T12:29:18Z</time>
      </trkpt>
      <trkpt lat="48.37799" lon="-0.05175">
        <ele>82</ele>
        <time>2018-09-22T12:30:02Z</time>
      </trkpt>
      <trkpt lat="48.37802" lon="-0.05174">
        <ele>82</ele>
        <time>2018-09-22T12:30:22Z</time>
      </trkpt>
      <trkpt lat="48.37807" lon="-0.05179">
        <ele>84</ele>
        <time>2018-09-22T12:30:30Z</time>
      </trkpt>
      <trkpt lat="48.37809" lon="-0.0518">
        <ele>83</ele>
        <time>2018-09-22T12:30:33Z</time>
      </trkpt>
      <trkpt lat="48.37811" lon="-0.05181">
        <ele>85</ele>
        <time>2018-09-22T12:30:50Z</time>
      </trkpt>
      <trkpt lat="48.37813" lon="-0.05183">
        <ele>85</ele>
        <time>2018-09-22T12:31:50Z</time>
      </trkpt>
      <trkpt lat="48.37817" lon="-0.05181">
        <ele>89</ele>
        <time>2018-09-22T12:32:07Z</time>
      </trkpt>
      <trkpt lat="48.37819" lon="-0.05183">
        <ele>89</ele>
        <time>2018-09-22T12:32:11Z</time>
      </trkpt>
      <trkpt lat="48.3782" lon="-0.05185">
        <ele>89</ele>
        <time>2018-09-22T12:32:15Z</time>
      </trkpt>
      <trkpt lat="48.37822" lon="-0.05192">
        <ele>87</ele>
        <time>2018-09-22T12:32:22Z</time>
      </trkpt>
      <trkpt lat="48.37821" lon="-0.05197">
        <ele>85</ele>
        <time>2018-09-22T12:32:26Z</time>
      </trkpt>
      <trkpt lat="48.3782" lon="-0.05205">
        <ele>84</ele>
        <time>2018-09-22T12:32:32Z</time>
      </trkpt>
      <trkpt lat="48.37815" lon="-0.05219">
        <ele>83</ele>
        <time>2018-09-22T12:32:46Z</time>
      </trkpt>
      <trkpt lat="48.37815" lon="-0.05224">
        <ele>82</ele>
        <time>2018-09-22T12:32:49Z</time>
      </trkpt>
      <trkpt lat="48.37817" lon="-0.05227">
        <ele>82</ele>
        <time>2018-09-22T12:32:52Z</time>
      </trkpt>
      <trkpt lat="48.37819" lon="-0.05229">
        <ele>83</ele>
        <time>2018-09-22T12:32:53Z</time>
      </trkpt>
      <trkpt lat="48.37827" lon="-0.05234">
        <ele>87</ele>
        <time>2018-09-22T12:32:59Z</time>
      </trkpt>
      <trkpt lat="48.3784" lon="-0.05238">
        <ele>88</ele>
        <time>2018-09-22T12:33:11Z</time>
      </trkpt>
      <trkpt lat="48.37842" lon="-0.0524">
        <ele>88</ele>
        <time>2018-09-22T12:33:14Z</time>
      </trkpt>
      <trkpt lat="48.37844" lon="-0.0524">
        <ele>87</ele>
        <time>2018-09-22T12:33:42Z</time>
      </trkpt>
      <trkpt lat="48.37873" lon="-0.05256">
        <ele>86</ele>
        <time>2018-09-22T12:34:12Z</time>
      </trkpt>
      <trkpt lat="48.37882" lon="-0.0526">
        <ele>85</ele>
        <time>2018-09-22T12:34:21Z</time>
      </trkpt>
      <trkpt lat="48.37887" lon="-0.05262">
        <ele>83</ele>
        <time>2018-09-22T12:34:28Z</time>
      </trkpt>
      <trkpt lat="48.3789" lon="-0.05264">
        <ele>83</ele>
        <time>2018-09-22T12:34:31Z</time>
      </trkpt>
      <trkpt lat="48.37918" lon="-0.0528">
        <ele>80</ele>
        <time>2018-09-22T12:35:04Z</time>
      </trkpt>
      <trkpt lat="48.37931" lon="-0.05279">
        <ele>79</ele>
        <time>2018-09-22T12:35:25Z</time>
      </trkpt>
      <trkpt lat="48.37932" lon="-0.05282">
        <ele>79</ele>
        <time>2018-09-22T12:35:31Z</time>
      </trkpt>
      <trkpt lat="48.37934" lon="-0.05284">
        <ele>80</ele>
        <time>2018-09-22T12:35:35Z</time>
      </trkpt>
      <trkpt lat="48.37937" lon="-0.05284">
        <ele>80</ele>
        <time>2018-09-22T12:35:45Z</time>
      </trkpt>
      <trkpt lat="48.37938" lon="-0.05281">
        <ele>80</ele>
        <time>2018-09-22T12:35:49Z</time>
      </trkpt>
      <trkpt lat="48.37941" lon="-0.05281">
        <ele>79</ele>
        <time>2018-09-22T12:35:55Z</time>
      </trkpt>
      <trkpt lat="48.37946" lon="-0.05284">
        <ele>80</ele>
        <time>2018-09-22T12:36:07Z</time>
      </trkpt>
      <trkpt lat="48.37949" lon="-0.05283">
        <ele>81</ele>
        <time>2018-09-22T12:36:11Z</time>
      </trkpt>
      <trkpt lat="48.37954" lon="-0.05281">
        <ele>81</ele>
        <time>2018-09-22T12:36:22Z</time>
      </trkpt>
      <trkpt lat="48.37953" lon="-0.05283">
        <ele>80</ele>
        <time>2018-09-22T12:38:10Z</time>
      </trkpt>
      <trkpt lat="48.37953" lon="-0.05282">
        <ele>79</ele>
        <time>2018-09-22T12:38:35Z</time>
      </trkpt>
      <trkpt lat="48.37951" lon="-0.05281">
        <ele>79</ele>
        <time>2018-09-22T12:38:38Z</time>
      </trkpt>
      <trkpt lat="48.37946" lon="-0.05279">
        <ele>77</ele>
        <time>2018-09-22T12:38:44Z</time>
      </trkpt>
      <trkpt lat="48.37944" lon="-0.05277">
        <ele>76</ele>
        <time>2018-09-22T12:38:48Z</time>
      </trkpt>
      <trkpt lat="48.37942" lon="-0.05277">
        <ele>76</ele>
        <time>2018-09-22T12:38:51Z</time>
      </trkpt>
      <trkpt lat="48.3794" lon="-0.05275">
        <ele>76</ele>
        <time>2018-09-22T12:39:02Z</time>
      </trkpt>
      <trkpt lat="48.3794" lon="-0.0528">
        <ele>74</ele>
        <time>2018-09-22T12:39:13Z</time>
      </trkpt>
      <trkpt lat="48.37942" lon="-0.05283">
        <ele>72</ele>
        <time>2018-09-22T12:39:29Z</time>
      </trkpt>
      <trkpt lat="48.37953" lon="-0.05286">
        <ele>72</ele>
        <time>2018-09-22T12:39:42Z</time>
      </trkpt>
      <trkpt lat="48.37955" lon="-0.05286">
        <ele>73</ele>
        <time>2018-09-22T12:39:54Z</time>
      </trkpt>
      <trkpt lat="48.37955" lon="-0.05289">
        <ele>73</ele>
        <time>2018-09-22T12:40:38Z</time>
      </trkpt>
      <trkpt lat="48.37954" lon="-0.05292">
        <ele>73</ele>
        <time>2018-09-22T12:40:41Z</time>
      </trkpt>
      <trkpt lat="48.37954" lon="-0.05287">
        <ele>71</ele>
        <time>2018-09-22T12:41:22Z</time>
      </trkpt>
      <trkpt lat="48.37947" lon="-0.0528">
        <ele>71</ele>
        <time>2018-09-22T12:41:32Z</time>
      </trkpt>
      <trkpt lat="48.37943" lon="-0.05275">
        <ele>71</ele>
        <time>2018-09-22T12:41:40Z</time>
      </trkpt>
      <trkpt lat="48.3794" lon="-0.05259">
        <ele>72</ele>
        <time>2018-09-22T12:41:54Z</time>
      </trkpt>
      <trkpt lat="48.37939" lon="-0.05255">
        <ele>72</ele>
        <time>2018-09-22T12:41:57Z</time>
      </trkpt>
      <trkpt lat="48.37933" lon="-0.05248">
        <ele>72</ele>
        <time>2018-09-22T12:42:07Z</time>
      </trkpt>
      <trkpt lat="48.3793" lon="-0.05246">
        <ele>72</ele>
        <time>2018-09-22T12:42:10Z</time>
      </trkpt>
      <trkpt lat="48.37926" lon="-0.05233">
        <ele>71</ele>
        <time>2018-09-22T12:42:19Z</time>
      </trkpt>
      <trkpt lat="48.37923" lon="-0.0523">
        <ele>71</ele>
        <time>2018-09-22T12:42:22Z</time>
      </trkpt>
      <trkpt lat="48.37921" lon="-0.05229">
        <ele>71</ele>
        <time>2018-09-22T12:42:24Z</time>
      </trkpt>
      <trkpt lat="48.37919" lon="-0.05226">
        <ele>71</ele>
        <time>2018-09-22T12:42:27Z</time>
      </trkpt>
      <trkpt lat="48.37914" lon="-0.05215">
        <ele>71</ele>
        <time>2018-09-22T12:42:36Z</time>
      </trkpt>
      <trkpt lat="48.37913" lon="-0.05211">
        <ele>70</ele>
        <time>2018-09-22T12:42:40Z</time>
      </trkpt>
      <trkpt lat="48.37913" lon="-0.05208">
        <ele>69</ele>
        <time>2018-09-22T12:42:44Z</time>
      </trkpt>
      <trkpt lat="48.37913" lon="-0.05198">
        <ele>70</ele>
        <time>2018-09-22T12:43:02Z</time>
      </trkpt>
      <trkpt lat="48.37911" lon="-0.05201">
        <ele>71</ele>
        <time>2018-09-22T12:43:20Z</time>
      </trkpt>
      <trkpt lat="48.37909" lon="-0.05193">
        <ele>71</ele>
        <time>2018-09-22T12:43:37Z</time>
      </trkpt>
      <trkpt lat="48.37908" lon="-0.0519">
        <ele>72</ele>
        <time>2018-09-22T12:43:40Z</time>
      </trkpt>
      <trkpt lat="48.37907" lon="-0.05189">
        <ele>71</ele>
        <time>2018-09-22T12:43:54Z</time>
      </trkpt>
      <trkpt lat="48.37906" lon="-0.05188">
        <ele>71</ele>
        <time>2018-09-22T12:43:59Z</time>
      </trkpt>
      <trkpt lat="48.37905" lon="-0.05186">
        <ele>71</ele>
        <time>2018-09-22T12:44:03Z</time>
      </trkpt>
      <trkpt lat="48.37907" lon="-0.05186">
        <ele>69</ele>
        <time>2018-09-22T12:44:14Z</time>
      </trkpt>
      <trkpt lat="48.37907" lon="-0.05183">
        <ele>69</ele>
        <time>2018-09-22T12:44:45Z</time>
      </trkpt>
      <trkpt lat="48.37905" lon="-0.05177">
        <ele>69</ele>
        <time>2018-09-22T12:44:54Z</time>
      </trkpt>
      <trkpt lat="48.37905" lon="-0.05174">
        <ele>67</ele>
        <time>2018-09-22T12:45:26Z</time>
      </trkpt>
      <trkpt lat="48.37905" lon="-0.05172">
        <ele>67</ele>
        <time>2018-09-22T12:45:29Z</time>
      </trkpt>
      <trkpt lat="48.37905" lon="-0.05168">
        <ele>67</ele>
        <time>2018-09-22T12:45:32Z</time>
      </trkpt>
      <trkpt lat="48.37904" lon="-0.05159">
        <ele>67</ele>
        <time>2018-09-22T12:45:42Z</time>
      </trkpt>
      <trkpt lat="48.37895" lon="-0.05125">
        <ele>64</ele>
        <time>2018-09-22T12:46:07Z</time>
      </trkpt>
      <trkpt lat="48.37895" lon="-0.05121">
        <ele>65</ele>
        <time>2018-09-22T12:46:10Z</time>
      </trkpt>
      <trkpt lat="48.37895" lon="-0.05117">
        <ele>65</ele>
        <time>2018-09-22T12:46:13Z</time>
      </trkpt>
      <trkpt lat="48.37892" lon="-0.051">
        <ele>67</ele>
        <time>2018-09-22T12:46:56Z</time>
      </trkpt>
      <trkpt lat="48.37892" lon="-0.05096">
        <ele>67</ele>
        <time>2018-09-22T12:47:00Z</time>
      </trkpt>
      <trkpt lat="48.37894" lon="-0.05056">
        <ele>71</ele>
        <time>2018-09-22T12:47:30Z</time>
      </trkpt>
      <trkpt lat="48.37894" lon="-0.05047">
        <ele>71</ele>
        <time>2018-09-22T12:47:36Z</time>
      </trkpt>
      <trkpt lat="48.3789" lon="-0.0502">
        <ele>71</ele>
        <time>2018-09-22T12:47:53Z</time>
      </trkpt>
      <trkpt lat="48.3789" lon="-0.05017">
        <ele>72</ele>
        <time>2018-09-22T12:47:55Z</time>
      </trkpt>
      <trkpt lat="48.37889" lon="-0.04998">
        <ele>72</ele>
        <time>2018-09-22T12:48:07Z</time>
      </trkpt>
      <trkpt lat="48.37889" lon="-0.04994">
        <ele>73</ele>
        <time>2018-09-22T12:48:09Z</time>
      </trkpt>
      <trkpt lat="48.3789" lon="-0.04991">
        <ele>73</ele>
        <time>2018-09-22T12:48:11Z</time>
      </trkpt>
      <trkpt lat="48.37889" lon="-0.04988">
        <ele>73</ele>
        <time>2018-09-22T12:48:13Z</time>
      </trkpt>
      <trkpt lat="48.37889" lon="-0.04985">
        <ele>73</ele>
        <time>2018-09-22T12:48:15Z</time>
      </trkpt>
      <trkpt lat="48.37889" lon="-0.0498">
        <ele>73</ele>
        <time>2018-09-22T12:48:18Z</time>
      </trkpt>
      <trkpt lat="48.37889" lon="-0.04973">
        <ele>74</ele>
        <time>2018-09-22T12:48:22Z</time>
      </trkpt>
      <trkpt lat="48.37889" lon="-0.0497">
        <ele>75</ele>
        <time>2018-09-22T12:48:24Z</time>
      </trkpt>
      <trkpt lat="48.37889" lon="-0.04967">
        <ele>75</ele>
        <time>2018-09-22T12:48:26Z</time>
      </trkpt>
      <trkpt lat="48.37888" lon="-0.04964">
        <ele>75</ele>
        <time>2018-09-22T12:48:28Z</time>
      </trkpt>
      <trkpt lat="48.37888" lon="-0.0496">
        <ele>76</ele>
        <time>2018-09-22T12:48:30Z</time>
      </trkpt>
      <trkpt lat="48.3789" lon="-0.04945">
        <ele>76</ele>
        <time>2018-09-22T12:48:40Z</time>
      </trkpt>
      <trkpt lat="48.37889" lon="-0.04935">
        <ele>75</ele>
        <time>2018-09-22T12:48:46Z</time>
      </trkpt>
      <trkpt lat="48.37889" lon="-0.04932">
        <ele>75</ele>
        <time>2018-09-22T12:48:48Z</time>
      </trkpt>
      <trkpt lat="48.37889" lon="-0.04928">
        <ele>75</ele>
        <time>2018-09-22T12:48:50Z</time>
      </trkpt>
      <trkpt lat="48.37888" lon="-0.04895">
        <ele>75</ele>
        <time>2018-09-22T12:49:11Z</time>
      </trkpt>
      <trkpt lat="48.37887" lon="-0.04888">
        <ele>76</ele>
        <time>2018-09-22T12:49:15Z</time>
      </trkpt>
      <trkpt lat="48.37887" lon="-0.04884">
        <ele>76</ele>
        <time>2018-09-22T12:49:17Z</time>
      </trkpt>
      <trkpt lat="48.37882" lon="-0.04868">
        <ele>78</ele>
        <time>2018-09-22T12:49:28Z</time>
      </trkpt>
      <trkpt lat="48.37881" lon="-0.04864">
        <ele>79</ele>
        <time>2018-09-22T12:49:31Z</time>
      </trkpt>
      <trkpt lat="48.37879" lon="-0.04861">
        <ele>79</ele>
        <time>2018-09-22T12:49:34Z</time>
      </trkpt>
      <trkpt lat="48.37877" lon="-0.04858">
        <ele>79</ele>
        <time>2018-09-22T12:49:37Z</time>
      </trkpt>
      <trkpt lat="48.37874" lon="-0.04851">
        <ele>80</ele>
        <time>2018-09-22T12:49:43Z</time>
      </trkpt>
      <trkpt lat="48.37869" lon="-0.04847">
        <ele>77</ele>
        <time>2018-09-22T12:49:47Z</time>
      </trkpt>
      <trkpt lat="48.37867" lon="-0.04843">
        <ele>75</ele>
        <time>2018-09-22T12:49:50Z</time>
      </trkpt>
      <trkpt lat="48.37865" lon="-0.04841">
        <ele>75</ele>
        <time>2018-09-22T12:49:53Z</time>
      </trkpt>
      <trkpt lat="48.37863" lon="-0.0484">
        <ele>74</ele>
        <time>2018-09-22T12:49:56Z</time>
      </trkpt>
      <trkpt lat="48.37861" lon="-0.04838">
        <ele>74</ele>
        <time>2018-09-22T12:49:59Z</time>
      </trkpt>
      <trkpt lat="48.37855" lon="-0.04835">
        <ele>74</ele>
        <time>2018-09-22T12:50:05Z</time>
      </trkpt>
      <trkpt lat="48.37852" lon="-0.04835">
        <ele>74</ele>
        <time>2018-09-22T12:50:08Z</time>
      </trkpt>
      <trkpt lat="48.3784" lon="-0.04832">
        <ele>74</ele>
        <time>2018-09-22T12:50:19Z</time>
      </trkpt>
      <trkpt lat="48.37826" lon="-0.04823">
        <ele>76</ele>
        <time>2018-09-22T12:50:34Z</time>
      </trkpt>
      <trkpt lat="48.37824" lon="-0.04823">
        <ele>76</ele>
        <time>2018-09-22T12:50:36Z</time>
      </trkpt>
      <trkpt lat="48.37822" lon="-0.04824">
        <ele>77</ele>
        <time>2018-09-22T12:50:39Z</time>
      </trkpt>
      <trkpt lat="48.37802" lon="-0.0482">
        <ele>85</ele>
        <time>2018-09-22T12:51:04Z</time>
      </trkpt>
      <trkpt lat="48.37796" lon="-0.04821">
        <ele>85</ele>
        <time>2018-09-22T12:51:10Z</time>
      </trkpt>
      <trkpt lat="48.37791" lon="-0.04817">
        <ele>84</ele>
        <time>2018-09-22T12:51:18Z</time>
      </trkpt>
      <trkpt lat="48.37787" lon="-0.04817">
        <ele>84</ele>
        <time>2018-09-22T12:51:22Z</time>
      </trkpt>
      <trkpt lat="48.3778" lon="-0.04811">
        <ele>84</ele>
        <time>2018-09-22T12:51:31Z</time>
      </trkpt>
      <trkpt lat="48.37773" lon="-0.04802">
        <ele>80</ele>
        <time>2018-09-22T12:51:41Z</time>
      </trkpt>
      <trkpt lat="48.3777" lon="-0.04794">
        <ele>78</ele>
        <time>2018-09-22T12:51:47Z</time>
      </trkpt>
      <trkpt lat="48.37759" lon="-0.04779">
        <ele>75</ele>
        <time>2018-09-22T12:52:02Z</time>
      </trkpt>
      <trkpt lat="48.37758" lon="-0.04776">
        <ele>75</ele>
        <time>2018-09-22T12:52:05Z</time>
      </trkpt>
      <trkpt lat="48.37757" lon="-0.04772">
        <ele>75</ele>
        <time>2018-09-22T12:52:07Z</time>
      </trkpt>
      <trkpt lat="48.37751" lon="-0.04757">
        <ele>80</ele>
        <time>2018-09-22T12:52:19Z</time>
      </trkpt>
      <trkpt lat="48.3775" lon="-0.0473">
        <ele>84</ele>
        <time>2018-09-22T12:52:36Z</time>
      </trkpt>
      <trkpt lat="48.37751" lon="-0.04721">
        <ele>85</ele>
        <time>2018-09-22T12:52:42Z</time>
      </trkpt>
      <trkpt lat="48.3775" lon="-0.04703">
        <ele>89</ele>
        <time>2018-09-22T12:52:54Z</time>
      </trkpt>
      <trkpt lat="48.37755" lon="-0.04655">
        <ele>92</ele>
        <time>2018-09-22T12:53:25Z</time>
      </trkpt>
      <trkpt lat="48.37757" lon="-0.04638">
        <ele>93</ele>
        <time>2018-09-22T12:53:37Z</time>
      </trkpt>
      <trkpt lat="48.37756" lon="-0.04633">
        <ele>93</ele>
        <time>2018-09-22T12:53:41Z</time>
      </trkpt>
      <trkpt lat="48.37753" lon="-0.0463">
        <ele>92</ele>
        <time>2018-09-22T12:53:43Z</time>
      </trkpt>
      <trkpt lat="48.37751" lon="-0.04628">
        <ele>92</ele>
        <time>2018-09-22T12:53:46Z</time>
      </trkpt>
      <trkpt lat="48.37749" lon="-0.04627">
        <ele>92</ele>
        <time>2018-09-22T12:53:50Z</time>
      </trkpt>
      <trkpt lat="48.37746" lon="-0.04626">
        <ele>93</ele>
        <time>2018-09-22T12:53:54Z</time>
      </trkpt>
      <trkpt lat="48.37744" lon="-0.04626">
        <ele>94</ele>
        <time>2018-09-22T12:53:57Z</time>
      </trkpt>
      <trkpt lat="48.37729" lon="-0.04634">
        <ele>95</ele>
        <time>2018-09-22T12:54:17Z</time>
      </trkpt>
      <trkpt lat="48.37726" lon="-0.04636">
        <ele>94</ele>
        <time>2018-09-22T12:54:21Z</time>
      </trkpt>
      <trkpt lat="48.37716" lon="-0.04642">
        <ele>94</ele>
        <time>2018-09-22T12:54:31Z</time>
      </trkpt>
      <trkpt lat="48.37708" lon="-0.04647">
        <ele>95</ele>
        <time>2018-09-22T12:54:40Z</time>
      </trkpt>
      <trkpt lat="48.37704" lon="-0.04649">
        <ele>96</ele>
        <time>2018-09-22T12:54:43Z</time>
      </trkpt>
      <trkpt lat="48.37685" lon="-0.04655">
        <ele>92</ele>
        <time>2018-09-22T12:54:58Z</time>
      </trkpt>
      <trkpt lat="48.37677" lon="-0.0466">
        <ele>90</ele>
        <time>2018-09-22T12:55:42Z</time>
      </trkpt>
      <trkpt lat="48.37675" lon="-0.0466">
        <ele>91</ele>
        <time>2018-09-22T12:55:46Z</time>
      </trkpt>
      <trkpt lat="48.37663" lon="-0.04667">
        <ele>90</ele>
        <time>2018-09-22T12:56:00Z</time>
      </trkpt>
      <trkpt lat="48.37634" lon="-0.0469">
        <ele>101</ele>
        <time>2018-09-22T12:56:31Z</time>
      </trkpt>
      <trkpt lat="48.37626" lon="-0.04695">
        <ele>102</ele>
        <time>2018-09-22T12:56:39Z</time>
      </trkpt>
      <trkpt lat="48.37615" lon="-0.04704">
        <ele>104</ele>
        <time>2018-09-22T12:56:51Z</time>
      </trkpt>
      <trkpt lat="48.376" lon="-0.0471">
        <ele>106</ele>
        <time>2018-09-22T12:57:05Z</time>
      </trkpt>
      <trkpt lat="48.37598" lon="-0.04713">
        <ele>107</ele>
        <time>2018-09-22T12:57:08Z</time>
      </trkpt>
      <trkpt lat="48.37592" lon="-0.04717">
        <ele>108</ele>
        <time>2018-09-22T12:57:14Z</time>
      </trkpt>
      <trkpt lat="48.37567" lon="-0.04735">
        <ele>111</ele>
        <time>2018-09-22T12:57:44Z</time>
      </trkpt>
      <trkpt lat="48.37549" lon="-0.04751">
        <ele>106</ele>
        <time>2018-09-22T12:58:08Z</time>
      </trkpt>
      <trkpt lat="48.37528" lon="-0.04761">
        <ele>101</ele>
        <time>2018-09-22T12:58:23Z</time>
      </trkpt>
      <trkpt lat="48.37526" lon="-0.04761">
        <ele>101</ele>
        <time>2018-09-22T12:58:25Z</time>
      </trkpt>
      <trkpt lat="48.37497" lon="-0.04779">
        <ele>105</ele>
        <time>2018-09-22T12:58:56Z</time>
      </trkpt>
      <trkpt lat="48.37495" lon="-0.04782">
        <ele>105</ele>
        <time>2018-09-22T12:59:00Z</time>
      </trkpt>
      <trkpt lat="48.37493" lon="-0.04785">
        <ele>106</ele>
        <time>2018-09-22T12:59:04Z</time>
      </trkpt>
      <trkpt lat="48.3749" lon="-0.04786">
        <ele>108</ele>
        <time>2018-09-22T12:59:06Z</time>
      </trkpt>
      <trkpt lat="48.37489" lon="-0.04789">
        <ele>111</ele>
        <time>2018-09-22T12:59:13Z</time>
      </trkpt>
      <trkpt lat="48.37491" lon="-0.04804">
        <ele>113</ele>
        <time>2018-09-22T13:00:38Z</time>
      </trkpt>
      <trkpt lat="48.37483" lon="-0.0482">
        <ele>109</ele>
        <time>2018-09-22T13:01:00Z</time>
      </trkpt>
      <trkpt lat="48.3748" lon="-0.04824">
        <ele>108</ele>
        <time>2018-09-22T13:01:03Z</time>
      </trkpt>
      <trkpt lat="48.37476" lon="-0.04831">
        <ele>106</ele>
        <time>2018-09-22T13:01:09Z</time>
      </trkpt>
      <trkpt lat="48.37465" lon="-0.04841">
        <ele>103</ele>
        <time>2018-09-22T13:01:28Z</time>
      </trkpt>
      <trkpt lat="48.37461" lon="-0.04847">
        <ele>101</ele>
        <time>2018-09-22T13:01:50Z</time>
      </trkpt>
      <trkpt lat="48.3746" lon="-0.04855">
        <ele>102</ele>
        <time>2018-09-22T13:01:55Z</time>
      </trkpt>
      <trkpt lat="48.37467" lon="-0.04866">
        <ele>104</ele>
        <time>2018-09-22T13:02:39Z</time>
      </trkpt>
      <trkpt lat="48.37468" lon="-0.04866">
        <ele>105</ele>
        <time>2018-09-22T13:02:49Z</time>
      </trkpt>
      <trkpt lat="48.37471" lon="-0.04868">
        <ele>104</ele>
        <time>2018-09-22T13:02:58Z</time>
      </trkpt>
      <trkpt lat="48.37473" lon="-0.04867">
        <ele>103</ele>
        <time>2018-09-22T13:03:07Z</time>
      </trkpt>
      <trkpt lat="48.37475" lon="-0.04871">
        <ele>104</ele>
        <time>2018-09-22T13:04:00Z</time>
      </trkpt>
      <trkpt lat="48.37474" lon="-0.04876">
        <ele>104</ele>
        <time>2018-09-22T13:04:05Z</time>
      </trkpt>
      <trkpt lat="48.37474" lon="-0.0488">
        <ele>106</ele>
        <time>2018-09-22T13:04:12Z</time>
      </trkpt>
      <trkpt lat="48.37475" lon="-0.049">
        <ele>109</ele>
        <time>2018-09-22T13:04:29Z</time>
      </trkpt>
      <trkpt lat="48.37472" lon="-0.04905">
        <ele>110</ele>
        <time>2018-09-22T13:04:39Z</time>
      </trkpt>
      <trkpt lat="48.37469" lon="-0.04906">
        <ele>108</ele>
        <time>2018-09-22T13:04:50Z</time>
      </trkpt>
      <trkpt lat="48.37463" lon="-0.04909">
        <ele>107</ele>
        <time>2018-09-22T13:05:05Z</time>
      </trkpt>
      <trkpt lat="48.37454" lon="-0.0492">
        <ele>106</ele>
        <time>2018-09-22T13:05:20Z</time>
      </trkpt>
      <trkpt lat="48.37446" lon="-0.04929">
        <ele>109</ele>
        <time>2018-09-22T13:05:36Z</time>
      </trkpt>
      <trkpt lat="48.3744" lon="-0.04939">
        <ele>115</ele>
        <time>2018-09-22T13:05:57Z</time>
      </trkpt>
      <trkpt lat="48.37438" lon="-0.04944">
        <ele>117</ele>
        <time>2018-09-22T13:06:02Z</time>
      </trkpt>
      <trkpt lat="48.37432" lon="-0.04954">
        <ele>115</ele>
        <time>2018-09-22T13:06:22Z</time>
      </trkpt>
      <trkpt lat="48.37428" lon="-0.04957">
        <ele>113</ele>
        <time>2018-09-22T13:06:25Z</time>
      </trkpt>
      <trkpt lat="48.37419" lon="-0.04971">
        <ele>114</ele>
        <time>2018-09-22T13:06:45Z</time>
      </trkpt>
      <trkpt lat="48.37417" lon="-0.04974">
        <ele>116</ele>
        <time>2018-09-22T13:06:49Z</time>
      </trkpt>
      <trkpt lat="48.37416" lon="-0.04979">
        <ele>121</ele>
        <time>2018-09-22T13:07:00Z</time>
      </trkpt>
      <trkpt lat="48.37415" lon="-0.04984">
        <ele>123</ele>
        <time>2018-09-22T13:07:04Z</time>
      </trkpt>
      <trkpt lat="48.37407" lon="-0.04998">
        <ele>129</ele>
        <time>2018-09-22T13:07:19Z</time>
      </trkpt>
      <trkpt lat="48.37406" lon="-0.05018">
        <ele>131</ele>
        <time>2018-09-22T13:07:37Z</time>
      </trkpt>
      <trkpt lat="48.37407" lon="-0.05023">
        <ele>130</ele>
        <time>2018-09-22T13:07:43Z</time>
      </trkpt>
      <trkpt lat="48.37404" lon="-0.05038">
        <ele>130</ele>
        <time>2018-09-22T13:07:55Z</time>
      </trkpt>
      <trkpt lat="48.37402" lon="-0.05047">
        <ele>130</ele>
        <time>2018-09-22T13:08:00Z</time>
      </trkpt>
      <trkpt lat="48.37399" lon="-0.05065">
        <ele>125</ele>
        <time>2018-09-22T13:08:13Z</time>
      </trkpt>
      <trkpt lat="48.37398" lon="-0.05083">
        <ele>127</ele>
        <time>2018-09-22T13:08:26Z</time>
      </trkpt>
      <trkpt lat="48.37391" lon="-0.05116">
        <ele>133</ele>
        <time>2018-09-22T13:08:48Z</time>
      </trkpt>
      <trkpt lat="48.37382" lon="-0.05143">
        <ele>136</ele>
        <time>2018-09-22T13:09:11Z</time>
      </trkpt>
      <trkpt lat="48.37379" lon="-0.0515">
        <ele>136</ele>
        <time>2018-09-22T13:09:18Z</time>
      </trkpt>
      <trkpt lat="48.3738" lon="-0.05152">
        <ele>136</ele>
        <time>2018-09-22T13:09:26Z</time>
      </trkpt>
      <trkpt lat="48.37375" lon="-0.05158">
        <ele>136</ele>
        <time>2018-09-22T13:09:39Z</time>
      </trkpt>
      <trkpt lat="48.37374" lon="-0.05161">
        <ele>136</ele>
        <time>2018-09-22T13:09:42Z</time>
      </trkpt>
      <trkpt lat="48.3737" lon="-0.05174">
        <ele>137</ele>
        <time>2018-09-22T13:09:55Z</time>
      </trkpt>
      <trkpt lat="48.37359" lon="-0.052">
        <ele>140</ele>
        <time>2018-09-22T13:10:18Z</time>
      </trkpt>
      <trkpt lat="48.37339" lon="-0.05226">
        <ele>138</ele>
        <time>2018-09-22T13:10:46Z</time>
      </trkpt>
      <trkpt lat="48.37329" lon="-0.05235">
        <ele>138</ele>
        <time>2018-09-22T13:10:59Z</time>
      </trkpt>
      <trkpt lat="48.37302" lon="-0.05259">
        <ele>136</ele>
        <time>2018-09-22T13:11:31Z</time>
      </trkpt>
      <trkpt lat="48.37286" lon="-0.05278">
        <ele>138</ele>
        <time>2018-09-22T13:11:49Z</time>
      </trkpt>
      <trkpt lat="48.37275" lon="-0.05289">
        <ele>139</ele>
        <time>2018-09-22T13:11:59Z</time>
      </trkpt>
      <trkpt lat="48.37261" lon="-0.05299">
        <ele>139</ele>
        <time>2018-09-22T13:12:11Z</time>
      </trkpt>
      <trkpt lat="48.3726" lon="-0.05302">
        <ele>142</ele>
        <time>2018-09-22T13:12:19Z</time>
      </trkpt>
      <trkpt lat="48.37258" lon="-0.05303">
        <ele>143</ele>
        <time>2018-09-22T13:12:29Z</time>
      </trkpt>
      <trkpt lat="48.37244" lon="-0.05306">
        <ele>146</ele>
        <time>2018-09-22T13:12:42Z</time>
      </trkpt>
      <trkpt lat="48.3724" lon="-0.05305">
        <ele>146</ele>
        <time>2018-09-22T13:12:46Z</time>
      </trkpt>
      <trkpt lat="48.37221" lon="-0.05295">
        <ele>148</ele>
        <time>2018-09-22T13:13:04Z</time>
      </trkpt>
      <trkpt lat="48.37188" lon="-0.05296">
        <ele>148</ele>
        <time>2018-09-22T13:13:34Z</time>
      </trkpt>
      <trkpt lat="48.37168" lon="-0.05296">
        <ele>149</ele>
        <time>2018-09-22T13:13:52Z</time>
      </trkpt>
      <trkpt lat="48.37165" lon="-0.05295">
        <ele>148</ele>
        <time>2018-09-22T13:13:55Z</time>
      </trkpt>
      <trkpt lat="48.37162" lon="-0.05295">
        <ele>147</ele>
        <time>2018-09-22T13:13:58Z</time>
      </trkpt>
      <trkpt lat="48.3716" lon="-0.05293">
        <ele>146</ele>
        <time>2018-09-22T13:14:01Z</time>
      </trkpt>
      <trkpt lat="48.37128" lon="-0.05285">
        <ele>144</ele>
        <time>2018-09-22T13:14:23Z</time>
      </trkpt>
      <trkpt lat="48.37126" lon="-0.05284">
        <ele>144</ele>
        <time>2018-09-22T13:14:25Z</time>
      </trkpt>
      <trkpt lat="48.37121" lon="-0.05282">
        <ele>145</ele>
        <time>2018-09-22T13:14:29Z</time>
      </trkpt>
      <trkpt lat="48.37101" lon="-0.05273">
        <ele>148</ele>
        <time>2018-09-22T13:14:47Z</time>
      </trkpt>
      <trkpt lat="48.37099" lon="-0.05272">
        <ele>148</ele>
        <time>2018-09-22T13:14:50Z</time>
      </trkpt>
      <trkpt lat="48.3709" lon="-0.05268">
        <ele>149</ele>
        <time>2018-09-22T13:14:59Z</time>
      </trkpt>
      <trkpt lat="48.37081" lon="-0.05268">
        <ele>150</ele>
        <time>2018-09-22T13:15:08Z</time>
      </trkpt>
      <trkpt lat="48.37046" lon="-0.05282">
        <ele>154</ele>
        <time>2018-09-22T13:15:38Z</time>
      </trkpt>
      <trkpt lat="48.37012" lon="-0.05292">
        <ele>158</ele>
        <time>2018-09-22T13:16:08Z</time>
      </trkpt>
      <trkpt lat="48.37007" lon="-0.05293">
        <ele>158</ele>
        <time>2018-09-22T13:16:12Z</time>
      </trkpt>
      <trkpt lat="48.3699" lon="-0.05294">
        <ele>159</ele>
        <time>2018-09-22T13:16:27Z</time>
      </trkpt>
      <trkpt lat="48.36988" lon="-0.05294">
        <ele>159</ele>
        <time>2018-09-22T13:16:29Z</time>
      </trkpt>
      <trkpt lat="48.36985" lon="-0.05294">
        <ele>159</ele>
        <time>2018-09-22T13:16:31Z</time>
      </trkpt>
      <trkpt lat="48.36983" lon="-0.05293">
        <ele>159</ele>
        <time>2018-09-22T13:16:33Z</time>
      </trkpt>
      <trkpt lat="48.36967" lon="-0.05293">
        <ele>160</ele>
        <time>2018-09-22T13:16:47Z</time>
      </trkpt>
      <trkpt lat="48.36965" lon="-0.05293">
        <ele>160</ele>
        <time>2018-09-22T13:16:49Z</time>
      </trkpt>
      <trkpt lat="48.3696" lon="-0.05293">
        <ele>161</ele>
        <time>2018-09-22T13:16:53Z</time>
      </trkpt>
      <trkpt lat="48.36946" lon="-0.05297">
        <ele>162</ele>
        <time>2018-09-22T13:17:06Z</time>
      </trkpt>
      <trkpt lat="48.36944" lon="-0.05297">
        <ele>161</ele>
        <time>2018-09-22T13:17:08Z</time>
      </trkpt>
      <trkpt lat="48.36935" lon="-0.05298">
        <ele>161</ele>
        <time>2018-09-22T13:17:16Z</time>
      </trkpt>
      <trkpt lat="48.3691" lon="-0.05297">
        <ele>161</ele>
        <time>2018-09-22T13:17:40Z</time>
      </trkpt>
      <trkpt lat="48.36907" lon="-0.05297">
        <ele>161</ele>
        <time>2018-09-22T13:17:42Z</time>
      </trkpt>
      <trkpt lat="48.36902" lon="-0.05297">
        <ele>161</ele>
        <time>2018-09-22T13:17:47Z</time>
      </trkpt>
      <trkpt lat="48.36886" lon="-0.05295">
        <ele>160</ele>
        <time>2018-09-22T13:18:02Z</time>
      </trkpt>
      <trkpt lat="48.36884" lon="-0.05295">
        <ele>160</ele>
        <time>2018-09-22T13:18:04Z</time>
      </trkpt>
      <trkpt lat="48.3687" lon="-0.05295">
        <ele>159</ele>
        <time>2018-09-22T13:18:16Z</time>
      </trkpt>
      <trkpt lat="48.36845" lon="-0.05293">
        <ele>158</ele>
        <time>2018-09-22T13:18:38Z</time>
      </trkpt>
      <trkpt lat="48.36837" lon="-0.05293">
        <ele>158</ele>
        <time>2018-09-22T13:18:44Z</time>
      </trkpt>
      <trkpt lat="48.36835" lon="-0.05293">
        <ele>158</ele>
        <time>2018-09-22T13:18:46Z</time>
      </trkpt>
      <trkpt lat="48.36798" lon="-0.05296">
        <ele>163</ele>
        <time>2018-09-22T13:19:17Z</time>
      </trkpt>
      <trkpt lat="48.36763" lon="-0.05297">
        <ele>164</ele>
        <time>2018-09-22T13:19:48Z</time>
      </trkpt>
      <trkpt lat="48.36758" lon="-0.05297">
        <ele>164</ele>
        <time>2018-09-22T13:19:52Z</time>
      </trkpt>
      <trkpt lat="48.36755" lon="-0.05296">
        <ele>164</ele>
        <time>2018-09-22T13:19:55Z</time>
      </trkpt>
      <trkpt lat="48.36745" lon="-0.05298">
        <ele>163</ele>
        <time>2018-09-22T13:20:05Z</time>
      </trkpt>
      <trkpt lat="48.36738" lon="-0.05299">
        <ele>163</ele>
        <time>2018-09-22T13:20:12Z</time>
      </trkpt>
      <trkpt lat="48.3673" lon="-0.053">
        <ele>164</ele>
        <time>2018-09-22T13:20:19Z</time>
      </trkpt>
      <trkpt lat="48.36693" lon="-0.05299">
        <ele>162</ele>
        <time>2018-09-22T13:20:51Z</time>
      </trkpt>
      <trkpt lat="48.36683" lon="-0.05299">
        <ele>163</ele>
        <time>2018-09-22T13:20:59Z</time>
      </trkpt>
      <trkpt lat="48.36668" lon="-0.05298">
        <ele>161</ele>
        <time>2018-09-22T13:21:11Z</time>
      </trkpt>
      <trkpt lat="48.36659" lon="-0.05297">
        <ele>160</ele>
        <time>2018-09-22T13:21:19Z</time>
      </trkpt>
      <trkpt lat="48.36656" lon="-0.05298">
        <ele>159</ele>
        <time>2018-09-22T13:21:21Z</time>
      </trkpt>
      <trkpt lat="48.36644" lon="-0.05299">
        <ele>158</ele>
        <time>2018-09-22T13:21:31Z</time>
      </trkpt>
      <trkpt lat="48.36642" lon="-0.05299">
        <ele>158</ele>
        <time>2018-09-22T13:21:33Z</time>
      </trkpt>
      <trkpt lat="48.36615" lon="-0.05304">
        <ele>162</ele>
        <time>2018-09-22T13:21:55Z</time>
      </trkpt>
      <trkpt lat="48.36576" lon="-0.05322">
        <ele>168</ele>
        <time>2018-09-22T13:22:25Z</time>
      </trkpt>
      <trkpt lat="48.3654" lon="-0.0534">
        <ele>165</ele>
        <time>2018-09-22T13:22:55Z</time>
      </trkpt>
      <trkpt lat="48.36537" lon="-0.0534">
        <ele>165</ele>
        <time>2018-09-22T13:22:57Z</time>
      </trkpt>
      <trkpt lat="48.36535" lon="-0.05342">
        <ele>165</ele>
        <time>2018-09-22T13:22:59Z</time>
      </trkpt>
      <trkpt lat="48.36525" lon="-0.05346">
        <ele>164</ele>
        <time>2018-09-22T13:23:07Z</time>
      </trkpt>
      <trkpt lat="48.36517" lon="-0.0535">
        <ele>165</ele>
        <time>2018-09-22T13:23:15Z</time>
      </trkpt>
      <trkpt lat="48.365" lon="-0.05357">
        <ele>167</ele>
        <time>2018-09-22T13:23:31Z</time>
      </trkpt>
      <trkpt lat="48.36482" lon="-0.05368">
        <ele>164</ele>
        <time>2018-09-22T13:23:47Z</time>
      </trkpt>
      <trkpt lat="48.3648" lon="-0.05369">
        <ele>164</ele>
        <time>2018-09-22T13:23:49Z</time>
      </trkpt>
      <trkpt lat="48.36449" lon="-0.05397">
        <ele>167</ele>
        <time>2018-09-22T13:24:19Z</time>
      </trkpt>
      <trkpt lat="48.36418" lon="-0.05426">
        <ele>169</ele>
        <time>2018-09-22T13:24:49Z</time>
      </trkpt>
      <trkpt lat="48.36412" lon="-0.05431">
        <ele>169</ele>
        <time>2018-09-22T13:24:55Z</time>
      </trkpt>
      <trkpt lat="48.3641" lon="-0.05433">
        <ele>169</ele>
        <time>2018-09-22T13:24:57Z</time>
      </trkpt>
      <trkpt lat="48.36402" lon="-0.05441">
        <ele>169</ele>
        <time>2018-09-22T13:25:05Z</time>
      </trkpt>
      <trkpt lat="48.36398" lon="-0.05444">
        <ele>170</ele>
        <time>2018-09-22T13:25:09Z</time>
      </trkpt>
      <trkpt lat="48.36397" lon="-0.05447">
        <ele>170</ele>
        <time>2018-09-22T13:25:11Z</time>
      </trkpt>
      <trkpt lat="48.36365" lon="-0.05473">
        <ele>166</ele>
        <time>2018-09-22T13:25:42Z</time>
      </trkpt>
      <trkpt lat="48.36363" lon="-0.05475">
        <ele>166</ele>
        <time>2018-09-22T13:25:44Z</time>
      </trkpt>
      <trkpt lat="48.36349" lon="-0.05485">
        <ele>164</ele>
        <time>2018-09-22T13:25:57Z</time>
      </trkpt>
      <trkpt lat="48.36346" lon="-0.05486">
        <ele>164</ele>
        <time>2018-09-22T13:26:00Z</time>
      </trkpt>
      <trkpt lat="48.3634" lon="-0.05489">
        <ele>164</ele>
        <time>2018-09-22T13:26:06Z</time>
      </trkpt>
      <trkpt lat="48.36338" lon="-0.05489">
        <ele>164</ele>
        <time>2018-09-22T13:26:08Z</time>
      </trkpt>
      <trkpt lat="48.36336" lon="-0.05491">
        <ele>164</ele>
        <time>2018-09-22T13:26:11Z</time>
      </trkpt>
      <trkpt lat="48.3633" lon="-0.05492">
        <ele>163</ele>
        <time>2018-09-22T13:26:16Z</time>
      </trkpt>
      <trkpt lat="48.36328" lon="-0.05493">
        <ele>162</ele>
        <time>2018-09-22T13:26:18Z</time>
      </trkpt>
      <trkpt lat="48.36295" lon="-0.05502">
        <ele>160</ele>
        <time>2018-09-22T13:26:46Z</time>
      </trkpt>
      <trkpt lat="48.3629" lon="-0.05501">
        <ele>160</ele>
        <time>2018-09-22T13:26:50Z</time>
      </trkpt>
      <trkpt lat="48.36287" lon="-0.05501">
        <ele>160</ele>
        <time>2018-09-22T13:26:52Z</time>
      </trkpt>
      <trkpt lat="48.36282" lon="-0.05502">
        <ele>160</ele>
        <time>2018-09-22T13:26:57Z</time>
      </trkpt>
      <trkpt lat="48.36275" lon="-0.05505">
        <ele>159</ele>
        <time>2018-09-22T13:27:03Z</time>
      </trkpt>
      <trkpt lat="48.36266" lon="-0.05507">
        <ele>158</ele>
        <time>2018-09-22T13:27:11Z</time>
      </trkpt>
      <trkpt lat="48.36263" lon="-0.05508">
        <ele>159</ele>
        <time>2018-09-22T13:27:14Z</time>
      </trkpt>
      <trkpt lat="48.36236" lon="-0.05513">
        <ele>156</ele>
        <time>2018-09-22T13:27:36Z</time>
      </trkpt>
      <trkpt lat="48.36226" lon="-0.05511">
        <ele>156</ele>
        <time>2018-09-22T13:27:44Z</time>
      </trkpt>
      <trkpt lat="48.36223" lon="-0.0551">
        <ele>157</ele>
        <time>2018-09-22T13:27:46Z</time>
      </trkpt>
      <trkpt lat="48.3621" lon="-0.05499">
        <ele>161</ele>
        <time>2018-09-22T13:27:59Z</time>
      </trkpt>
      <trkpt lat="48.36202" lon="-0.05488">
        <ele>161</ele>
        <time>2018-09-22T13:28:09Z</time>
      </trkpt>
      <trkpt lat="48.36199" lon="-0.05481">
        <ele>161</ele>
        <time>2018-09-22T13:28:14Z</time>
      </trkpt>
      <trkpt lat="48.36187" lon="-0.05462">
        <ele>161</ele>
        <time>2018-09-22T13:28:29Z</time>
      </trkpt>
      <trkpt lat="48.36178" lon="-0.0545">
        <ele>161</ele>
        <time>2018-09-22T13:28:39Z</time>
      </trkpt>
      <trkpt lat="48.36176" lon="-0.05448">
        <ele>160</ele>
        <time>2018-09-22T13:28:41Z</time>
      </trkpt>
      <trkpt lat="48.36146" lon="-0.05411">
        <ele>156</ele>
        <time>2018-09-22T13:29:11Z</time>
      </trkpt>
      <trkpt lat="48.36136" lon="-0.05397">
        <ele>157</ele>
        <time>2018-09-22T13:29:21Z</time>
      </trkpt>
      <trkpt lat="48.36135" lon="-0.05395">
        <ele>157</ele>
        <time>2018-09-22T13:29:23Z</time>
      </trkpt>
      <trkpt lat="48.36109" lon="-0.05359">
        <ele>158</ele>
        <time>2018-09-22T13:29:54Z</time>
      </trkpt>
      <trkpt lat="48.36103" lon="-0.05352">
        <ele>158</ele>
        <time>2018-09-22T13:30:00Z</time>
      </trkpt>
      <trkpt lat="48.36102" lon="-0.05349">
        <ele>158</ele>
        <time>2018-09-22T13:30:02Z</time>
      </trkpt>
      <trkpt lat="48.361" lon="-0.05347">
        <ele>157</ele>
        <time>2018-09-22T13:30:04Z</time>
      </trkpt>
      <trkpt lat="48.36099" lon="-0.05345">
        <ele>157</ele>
        <time>2018-09-22T13:30:06Z</time>
      </trkpt>
      <trkpt lat="48.36075" lon="-0.05315">
        <ele>156</ele>
        <time>2018-09-22T13:30:32Z</time>
      </trkpt>
      <trkpt lat="48.36072" lon="-0.05309">
        <ele>155</ele>
        <time>2018-09-22T13:30:36Z</time>
      </trkpt>
      <trkpt lat="48.3605" lon="-0.05278">
        <ele>154</ele>
        <time>2018-09-22T13:31:00Z</time>
      </trkpt>
      <trkpt lat="48.36047" lon="-0.05273">
        <ele>154</ele>
        <time>2018-09-22T13:31:04Z</time>
      </trkpt>
      <trkpt lat="48.36035" lon="-0.05256">
        <ele>153</ele>
        <time>2018-09-22T13:31:18Z</time>
      </trkpt>
      <trkpt lat="48.36032" lon="-0.05254">
        <ele>153</ele>
        <time>2018-09-22T13:31:20Z</time>
      </trkpt>
      <trkpt lat="48.36027" lon="-0.05252">
        <ele>152</ele>
        <time>2018-09-22T13:31:24Z</time>
      </trkpt>
      <trkpt lat="48.36022" lon="-0.05253">
        <ele>153</ele>
        <time>2018-09-22T13:31:28Z</time>
      </trkpt>
      <trkpt lat="48.3602" lon="-0.05253">
        <ele>153</ele>
        <time>2018-09-22T13:31:31Z</time>
      </trkpt>
      <trkpt lat="48.36018" lon="-0.05254">
        <ele>153</ele>
        <time>2018-09-22T13:31:35Z</time>
      </trkpt>
      <trkpt lat="48.36015" lon="-0.05256">
        <ele>155</ele>
        <time>2018-09-22T13:33:08Z</time>
      </trkpt>
      <trkpt lat="48.36012" lon="-0.0526">
        <ele>158</ele>
        <time>2018-09-22T13:33:14Z</time>
      </trkpt>
      <trkpt lat="48.35991" lon="-0.05299">
        <ele>161</ele>
        <time>2018-09-22T13:33:44Z</time>
      </trkpt>
      <trkpt lat="48.35989" lon="-0.05302">
        <ele>161</ele>
        <time>2018-09-22T13:33:46Z</time>
      </trkpt>
      <trkpt lat="48.35988" lon="-0.05304">
        <ele>160</ele>
        <time>2018-09-22T13:33:48Z</time>
      </trkpt>
      <trkpt lat="48.35984" lon="-0.05315">
        <ele>159</ele>
        <time>2018-09-22T13:33:55Z</time>
      </trkpt>
      <trkpt lat="48.35982" lon="-0.05318">
        <ele>159</ele>
        <time>2018-09-22T13:33:57Z</time>
      </trkpt>
      <trkpt lat="48.3598" lon="-0.05321">
        <ele>158</ele>
        <time>2018-09-22T13:33:59Z</time>
      </trkpt>
      <trkpt lat="48.35973" lon="-0.05331">
        <ele>156</ele>
        <time>2018-09-22T13:34:07Z</time>
      </trkpt>
      <trkpt lat="48.35962" lon="-0.05353">
        <ele>153</ele>
        <time>2018-09-22T13:34:22Z</time>
      </trkpt>
      <trkpt lat="48.35947" lon="-0.05372">
        <ele>146</ele>
        <time>2018-09-22T13:34:43Z</time>
      </trkpt>
      <trkpt lat="48.35943" lon="-0.05379">
        <ele>148</ele>
        <time>2018-09-22T13:34:50Z</time>
      </trkpt>
      <trkpt lat="48.35935" lon="-0.05394">
        <ele>151</ele>
        <time>2018-09-22T13:35:02Z</time>
      </trkpt>
      <trkpt lat="48.35925" lon="-0.0541">
        <ele>151</ele>
        <time>2018-09-22T13:35:17Z</time>
      </trkpt>
      <trkpt lat="48.35924" lon="-0.05415">
        <ele>150</ele>
        <time>2018-09-22T13:35:21Z</time>
      </trkpt>
      <trkpt lat="48.35925" lon="-0.05418">
        <ele>149</ele>
        <time>2018-09-22T13:35:33Z</time>
      </trkpt>
      <trkpt lat="48.35926" lon="-0.0542">
        <ele>149</ele>
        <time>2018-09-22T13:36:06Z</time>
      </trkpt>
      <trkpt lat="48.35927" lon="-0.05427">
        <ele>147</ele>
        <time>2018-09-22T13:41:08Z</time>
      </trkpt>
      <trkpt lat="48.35928" lon="-0.05433">
        <ele>145</ele>
        <time>2018-09-22T13:41:14Z</time>
      </trkpt>
      <trkpt lat="48.3593" lon="-0.05433">
        <ele>145</ele>
        <time>2018-09-22T13:41:24Z</time>
      </trkpt>
      <trkpt lat="48.35929" lon="-0.05436">
        <ele>145</ele>
        <time>2018-09-22T13:41:28Z</time>
      </trkpt>
      <trkpt lat="48.35947" lon="-0.05459">
        <ele>147</ele>
        <time>2018-09-22T13:41:51Z</time>
      </trkpt>
      <trkpt lat="48.35967" lon="-0.05476">
        <ele>148</ele>
        <time>2018-09-22T13:42:14Z</time>
      </trkpt>
      <trkpt lat="48.3597" lon="-0.05478">
        <ele>149</ele>
        <time>2018-09-22T13:42:17Z</time>
      </trkpt>
      <trkpt lat="48.35976" lon="-0.05483">
        <ele>150</ele>
        <time>2018-09-22T13:42:24Z</time>
      </trkpt>
      <trkpt lat="48.35978" lon="-0.05487">
        <ele>150</ele>
        <time>2018-09-22T13:42:27Z</time>
      </trkpt>
      <trkpt lat="48.35982" lon="-0.05495">
        <ele>151</ele>
        <time>2018-09-22T13:42:33Z</time>
      </trkpt>
      <trkpt lat="48.35987" lon="-0.05507">
        <ele>151</ele>
        <time>2018-09-22T13:42:41Z</time>
      </trkpt>
      <trkpt lat="48.35999" lon="-0.05556">
        <ele>149</ele>
        <time>2018-09-22T13:43:11Z</time>
      </trkpt>
      <trkpt lat="48.36" lon="-0.05564">
        <ele>148</ele>
        <time>2018-09-22T13:43:15Z</time>
      </trkpt>
      <trkpt lat="48.36002" lon="-0.05574">
        <ele>148</ele>
        <time>2018-09-22T13:43:21Z</time>
      </trkpt>
      <trkpt lat="48.36006" lon="-0.05589">
        <ele>149</ele>
        <time>2018-09-22T13:43:29Z</time>
      </trkpt>
      <trkpt lat="48.36008" lon="-0.0561">
        <ele>151</ele>
        <time>2018-09-22T13:43:41Z</time>
      </trkpt>
      <trkpt lat="48.36006" lon="-0.0562">
        <ele>152</ele>
        <time>2018-09-22T13:43:47Z</time>
      </trkpt>
      <trkpt lat="48.36001" lon="-0.0563">
        <ele>153</ele>
        <time>2018-09-22T13:43:55Z</time>
      </trkpt>
      <trkpt lat="48.35996" lon="-0.0564">
        <ele>153</ele>
        <time>2018-09-22T13:44:03Z</time>
      </trkpt>
      <trkpt lat="48.3599" lon="-0.05653">
        <ele>154</ele>
        <time>2018-09-22T13:44:17Z</time>
      </trkpt>
      <trkpt lat="48.3599" lon="-0.05655">
        <ele>154</ele>
        <time>2018-09-22T13:44:19Z</time>
      </trkpt>
      <trkpt lat="48.35989" lon="-0.05662">
        <ele>154</ele>
        <time>2018-09-22T13:44:24Z</time>
      </trkpt>
      <trkpt lat="48.35986" lon="-0.05671">
        <ele>155</ele>
        <time>2018-09-22T13:44:30Z</time>
      </trkpt>
      <trkpt lat="48.35986" lon="-0.05677">
        <ele>156</ele>
        <time>2018-09-22T13:44:35Z</time>
      </trkpt>
      <trkpt lat="48.35987" lon="-0.05713">
        <ele>158</ele>
        <time>2018-09-22T13:44:55Z</time>
      </trkpt>
      <trkpt lat="48.35986" lon="-0.0572">
        <ele>158</ele>
        <time>2018-09-22T13:44:59Z</time>
      </trkpt>
      <trkpt lat="48.35985" lon="-0.05723">
        <ele>159</ele>
        <time>2018-09-22T13:45:01Z</time>
      </trkpt>
      <trkpt lat="48.35981" lon="-0.05741">
        <ele>158</ele>
        <time>2018-09-22T13:45:11Z</time>
      </trkpt>
      <trkpt lat="48.35963" lon="-0.05779">
        <ele>159</ele>
        <time>2018-09-22T13:45:36Z</time>
      </trkpt>
      <trkpt lat="48.3596" lon="-0.05784">
        <ele>160</ele>
        <time>2018-09-22T13:45:40Z</time>
      </trkpt>
      <trkpt lat="48.35939" lon="-0.05827">
        <ele>163</ele>
        <time>2018-09-22T13:46:10Z</time>
      </trkpt>
      <trkpt lat="48.35935" lon="-0.05841">
        <ele>164</ele>
        <time>2018-09-22T13:46:18Z</time>
      </trkpt>
      <trkpt lat="48.35926" lon="-0.05875">
        <ele>165</ele>
        <time>2018-09-22T13:46:38Z</time>
      </trkpt>
      <trkpt lat="48.35924" lon="-0.05879">
        <ele>166</ele>
        <time>2018-09-22T13:46:40Z</time>
      </trkpt>
      <trkpt lat="48.35924" lon="-0.05882">
        <ele>166</ele>
        <time>2018-09-22T13:46:42Z</time>
      </trkpt>
      <trkpt lat="48.35923" lon="-0.05889">
        <ele>166</ele>
        <time>2018-09-22T13:46:46Z</time>
      </trkpt>
      <trkpt lat="48.35919" lon="-0.05903">
        <ele>166</ele>
        <time>2018-09-22T13:46:54Z</time>
      </trkpt>
      <trkpt lat="48.35914" lon="-0.05925">
        <ele>166</ele>
        <time>2018-09-22T13:47:08Z</time>
      </trkpt>
      <trkpt lat="48.35913" lon="-0.05929">
        <ele>166</ele>
        <time>2018-09-22T13:47:10Z</time>
      </trkpt>
      <trkpt lat="48.35902" lon="-0.05971">
        <ele>166</ele>
        <time>2018-09-22T13:47:34Z</time>
      </trkpt>
      <trkpt lat="48.35895" lon="-0.05991">
        <ele>165</ele>
        <time>2018-09-22T13:47:46Z</time>
      </trkpt>
      <trkpt lat="48.35894" lon="-0.05994">
        <ele>164</ele>
        <time>2018-09-22T13:47:49Z</time>
      </trkpt>
      <trkpt lat="48.35877" lon="-0.06036">
        <ele>164</ele>
        <time>2018-09-22T13:48:20Z</time>
      </trkpt>
      <trkpt lat="48.35866" lon="-0.0607">
        <ele>165</ele>
        <time>2018-09-22T13:48:38Z</time>
      </trkpt>
      <trkpt lat="48.35865" lon="-0.06073">
        <ele>164</ele>
        <time>2018-09-22T13:48:40Z</time>
      </trkpt>
      <trkpt lat="48.3586" lon="-0.06091">
        <ele>163</ele>
        <time>2018-09-22T13:48:50Z</time>
      </trkpt>
      <trkpt lat="48.35858" lon="-0.06097">
        <ele>162</ele>
        <time>2018-09-22T13:48:54Z</time>
      </trkpt>
      <trkpt lat="48.35857" lon="-0.06104">
        <ele>162</ele>
        <time>2018-09-22T13:48:58Z</time>
      </trkpt>
      <trkpt lat="48.35855" lon="-0.0611">
        <ele>163</ele>
        <time>2018-09-22T13:49:02Z</time>
      </trkpt>
      <trkpt lat="48.35855" lon="-0.06116">
        <ele>163</ele>
        <time>2018-09-22T13:49:17Z</time>
      </trkpt>
      <trkpt lat="48.35857" lon="-0.06119">
        <ele>163</ele>
        <time>2018-09-22T13:50:00Z</time>
      </trkpt>
      <trkpt lat="48.3587" lon="-0.06137">
        <ele>159</ele>
        <time>2018-09-22T13:50:19Z</time>
      </trkpt>
      <trkpt lat="48.35897" lon="-0.06155">
        <ele>153</ele>
        <time>2018-09-22T13:50:49Z</time>
      </trkpt>
      <trkpt lat="48.35917" lon="-0.06152">
        <ele>151</ele>
        <time>2018-09-22T13:51:08Z</time>
      </trkpt>
      <trkpt lat="48.35928" lon="-0.06151">
        <ele>153</ele>
        <time>2018-09-22T13:51:19Z</time>
      </trkpt>
      <trkpt lat="48.3596" lon="-0.06139">
        <ele>153</ele>
        <time>2018-09-22T13:51:49Z</time>
      </trkpt>
      <trkpt lat="48.35963" lon="-0.06138">
        <ele>153</ele>
        <time>2018-09-22T13:51:52Z</time>
      </trkpt>
      <trkpt lat="48.35966" lon="-0.06137">
        <ele>154</ele>
        <time>2018-09-22T13:51:55Z</time>
      </trkpt>
      <trkpt lat="48.35969" lon="-0.06136">
        <ele>154</ele>
        <time>2018-09-22T13:51:59Z</time>
      </trkpt>
      <trkpt lat="48.35976" lon="-0.06138">
        <ele>152</ele>
        <time>2018-09-22T13:52:06Z</time>
      </trkpt>
      <trkpt lat="48.36014" lon="-0.06124">
        <ele>153</ele>
        <time>2018-09-22T13:52:38Z</time>
      </trkpt>
      <trkpt lat="48.36024" lon="-0.06117">
        <ele>156</ele>
        <time>2018-09-22T13:52:49Z</time>
      </trkpt>
      <trkpt lat="48.36032" lon="-0.06117">
        <ele>159</ele>
        <time>2018-09-22T13:52:56Z</time>
      </trkpt>
      <trkpt lat="48.36039" lon="-0.06121">
        <ele>160</ele>
        <time>2018-09-22T13:53:04Z</time>
      </trkpt>
      <trkpt lat="48.36041" lon="-0.06123">
        <ele>160</ele>
        <time>2018-09-22T13:53:07Z</time>
      </trkpt>
      <trkpt lat="48.36043" lon="-0.06124">
        <ele>161</ele>
        <time>2018-09-22T13:53:11Z</time>
      </trkpt>
      <trkpt lat="48.36044" lon="-0.06126">
        <ele>162</ele>
        <time>2018-09-22T13:53:20Z</time>
      </trkpt>
      <trkpt lat="48.36049" lon="-0.0612">
        <ele>163</ele>
        <time>2018-09-22T13:55:31Z</time>
      </trkpt>
      <trkpt lat="48.3606" lon="-0.06108">
        <ele>163</ele>
        <time>2018-09-22T13:55:46Z</time>
      </trkpt>
      <trkpt lat="48.36062" lon="-0.06106">
        <ele>163</ele>
        <time>2018-09-22T13:55:49Z</time>
      </trkpt>
      <trkpt lat="48.36077" lon="-0.06093">
        <ele>163</ele>
        <time>2018-09-22T13:56:04Z</time>
      </trkpt>
      <trkpt lat="48.36111" lon="-0.06077">
        <ele>164</ele>
        <time>2018-09-22T13:56:34Z</time>
      </trkpt>
      <trkpt lat="48.36145" lon="-0.06069">
        <ele>165</ele>
        <time>2018-09-22T13:57:04Z</time>
      </trkpt>
      <trkpt lat="48.36155" lon="-0.06069">
        <ele>165</ele>
        <time>2018-09-22T13:57:12Z</time>
      </trkpt>
      <trkpt lat="48.36157" lon="-0.06069">
        <ele>165</ele>
        <time>2018-09-22T13:57:14Z</time>
      </trkpt>
      <trkpt lat="48.36178" lon="-0.06071">
        <ele>166</ele>
        <time>2018-09-22T13:57:32Z</time>
      </trkpt>
      <trkpt lat="48.3618" lon="-0.06072">
        <ele>166</ele>
        <time>2018-09-22T13:57:34Z</time>
      </trkpt>
      <trkpt lat="48.36182" lon="-0.06072">
        <ele>166</ele>
        <time>2018-09-22T13:57:36Z</time>
      </trkpt>
      <trkpt lat="48.36209" lon="-0.06076">
        <ele>168</ele>
        <time>2018-09-22T13:58:00Z</time>
      </trkpt>
      <trkpt lat="48.36223" lon="-0.06077">
        <ele>168</ele>
        <time>2018-09-22T13:58:12Z</time>
      </trkpt>
      <trkpt lat="48.36225" lon="-0.06078">
        <ele>168</ele>
        <time>2018-09-22T13:58:14Z</time>
      </trkpt>
      <trkpt lat="48.36259" lon="-0.06084">
        <ele>170</ele>
        <time>2018-09-22T13:58:44Z</time>
      </trkpt>
      <trkpt lat="48.36277" lon="-0.06088">
        <ele>171</ele>
        <time>2018-09-22T13:59:00Z</time>
      </trkpt>
      <trkpt lat="48.36279" lon="-0.06089">
        <ele>171</ele>
        <time>2018-09-22T13:59:02Z</time>
      </trkpt>
      <trkpt lat="48.36284" lon="-0.0609">
        <ele>172</ele>
        <time>2018-09-22T13:59:06Z</time>
      </trkpt>
      <trkpt lat="48.3629" lon="-0.06094">
        <ele>172</ele>
        <time>2018-09-22T13:59:12Z</time>
      </trkpt>
      <trkpt lat="48.36293" lon="-0.06099">
        <ele>172</ele>
        <time>2018-09-22T13:59:16Z</time>
      </trkpt>
      <trkpt lat="48.36295" lon="-0.06101">
        <ele>171</ele>
        <time>2018-09-22T13:59:18Z</time>
      </trkpt>
      <trkpt lat="48.36296" lon="-0.06109">
        <ele>172</ele>
        <time>2018-09-22T13:59:24Z</time>
      </trkpt>
      <trkpt lat="48.36294" lon="-0.06115">
        <ele>173</ele>
        <time>2018-09-22T13:59:30Z</time>
      </trkpt>
      <trkpt lat="48.36294" lon="-0.06122">
        <ele>173</ele>
        <time>2018-09-22T13:59:34Z</time>
      </trkpt>
      <trkpt lat="48.36286" lon="-0.06162">
        <ele>176</ele>
        <time>2018-09-22T14:00:00Z</time>
      </trkpt>
      <trkpt lat="48.36283" lon="-0.062">
        <ele>177</ele>
        <time>2018-09-22T14:00:22Z</time>
      </trkpt>
      <trkpt lat="48.36283" lon="-0.06204">
        <ele>176</ele>
        <time>2018-09-22T14:00:24Z</time>
      </trkpt>
      <trkpt lat="48.36281" lon="-0.06256">
        <ele>175</ele>
        <time>2018-09-22T14:00:54Z</time>
      </trkpt>
      <trkpt lat="48.36278" lon="-0.06273">
        <ele>177</ele>
        <time>2018-09-22T14:01:04Z</time>
      </trkpt>
      <trkpt lat="48.36275" lon="-0.06281">
        <ele>177</ele>
        <time>2018-09-22T14:01:10Z</time>
      </trkpt>
      <trkpt lat="48.36272" lon="-0.06286">
        <ele>177</ele>
        <time>2018-09-22T14:01:14Z</time>
      </trkpt>
      <trkpt lat="48.3627" lon="-0.06288">
        <ele>177</ele>
        <time>2018-09-22T14:01:16Z</time>
      </trkpt>
      <trkpt lat="48.36267" lon="-0.06293">
        <ele>177</ele>
        <time>2018-09-22T14:01:20Z</time>
      </trkpt>
      <trkpt lat="48.36248" lon="-0.0631">
        <ele>173</ele>
        <time>2018-09-22T14:01:40Z</time>
      </trkpt>
      <trkpt lat="48.36247" lon="-0.06312">
        <ele>173</ele>
        <time>2018-09-22T14:01:42Z</time>
      </trkpt>
      <trkpt lat="48.36245" lon="-0.06314">
        <ele>172</ele>
        <time>2018-09-22T14:01:44Z</time>
      </trkpt>
      <trkpt lat="48.36241" lon="-0.06317">
        <ele>172</ele>
        <time>2018-09-22T14:01:48Z</time>
      </trkpt>
      <trkpt lat="48.36239" lon="-0.06319">
        <ele>172</ele>
        <time>2018-09-22T14:01:50Z</time>
      </trkpt>
      <trkpt lat="48.36232" lon="-0.06323">
        <ele>172</ele>
        <time>2018-09-22T14:01:56Z</time>
      </trkpt>
      <trkpt lat="48.36226" lon="-0.06329">
        <ele>172</ele>
        <time>2018-09-22T14:02:02Z</time>
      </trkpt>
      <trkpt lat="48.36225" lon="-0.06332">
        <ele>172</ele>
        <time>2018-09-22T14:02:04Z</time>
      </trkpt>
      <trkpt lat="48.36222" lon="-0.06334">
        <ele>171</ele>
        <time>2018-09-22T14:02:06Z</time>
      </trkpt>
      <trkpt lat="48.36216" lon="-0.06339">
        <ele>172</ele>
        <time>2018-09-22T14:02:12Z</time>
      </trkpt>
      <trkpt lat="48.36203" lon="-0.06354">
        <ele>171</ele>
        <time>2018-09-22T14:02:26Z</time>
      </trkpt>
      <trkpt lat="48.36201" lon="-0.06357">
        <ele>171</ele>
        <time>2018-09-22T14:02:28Z</time>
      </trkpt>
      <trkpt lat="48.36186" lon="-0.06379">
        <ele>172</ele>
        <time>2018-09-22T14:02:45Z</time>
      </trkpt>
      <trkpt lat="48.36185" lon="-0.06381">
        <ele>172</ele>
        <time>2018-09-22T14:02:47Z</time>
      </trkpt>
      <trkpt lat="48.36183" lon="-0.06385">
        <ele>172</ele>
        <time>2018-09-22T14:02:50Z</time>
      </trkpt>
      <trkpt lat="48.36181" lon="-0.06388">
        <ele>172</ele>
        <time>2018-09-22T14:02:52Z</time>
      </trkpt>
      <trkpt lat="48.36176" lon="-0.06396">
        <ele>172</ele>
        <time>2018-09-22T14:02:59Z</time>
      </trkpt>
      <trkpt lat="48.36172" lon="-0.06406">
        <ele>171</ele>
        <time>2018-09-22T14:03:05Z</time>
      </trkpt>
      <trkpt lat="48.36168" lon="-0.06414">
        <ele>170</ele>
        <time>2018-09-22T14:03:11Z</time>
      </trkpt>
      <trkpt lat="48.36164" lon="-0.06427">
        <ele>168</ele>
        <time>2018-09-22T14:03:19Z</time>
      </trkpt>
      <trkpt lat="48.36159" lon="-0.06447">
        <ele>168</ele>
        <time>2018-09-22T14:03:32Z</time>
      </trkpt>
      <trkpt lat="48.36155" lon="-0.06478">
        <ele>169</ele>
        <time>2018-09-22T14:03:49Z</time>
      </trkpt>
      <trkpt lat="48.36155" lon="-0.06482">
        <ele>169</ele>
        <time>2018-09-22T14:03:51Z</time>
      </trkpt>
      <trkpt lat="48.36156" lon="-0.06542">
        <ele>170</ele>
        <time>2018-09-22T14:04:21Z</time>
      </trkpt>
      <trkpt lat="48.36162" lon="-0.06594">
        <ele>169</ele>
        <time>2018-09-22T14:04:51Z</time>
      </trkpt>
      <trkpt lat="48.36166" lon="-0.06635">
        <ele>169</ele>
        <time>2018-09-22T14:05:15Z</time>
      </trkpt>
      <trkpt lat="48.36167" lon="-0.06638">
        <ele>169</ele>
        <time>2018-09-22T14:05:17Z</time>
      </trkpt>
      <trkpt lat="48.3617" lon="-0.06659">
        <ele>168</ele>
        <time>2018-09-22T14:05:29Z</time>
      </trkpt>
      <trkpt lat="48.36178" lon="-0.06708">
        <ele>167</ele>
        <time>2018-09-22T14:05:57Z</time>
      </trkpt>
      <trkpt lat="48.36179" lon="-0.06719">
        <ele>168</ele>
        <time>2018-09-22T14:06:03Z</time>
      </trkpt>
      <trkpt lat="48.36182" lon="-0.06732">
        <ele>167</ele>
        <time>2018-09-22T14:06:11Z</time>
      </trkpt>
      <trkpt lat="48.36181" lon="-0.06746">
        <ele>166</ele>
        <time>2018-09-22T14:06:19Z</time>
      </trkpt>
      <trkpt lat="48.36184" lon="-0.06759">
        <ele>165</ele>
        <time>2018-09-22T14:06:27Z</time>
      </trkpt>
      <trkpt lat="48.36184" lon="-0.06763">
        <ele>165</ele>
        <time>2018-09-22T14:06:29Z</time>
      </trkpt>
      <trkpt lat="48.36185" lon="-0.06769">
        <ele>165</ele>
        <time>2018-09-22T14:06:33Z</time>
      </trkpt>
      <trkpt lat="48.36186" lon="-0.06773">
        <ele>164</ele>
        <time>2018-09-22T14:06:35Z</time>
      </trkpt>
      <trkpt lat="48.36196" lon="-0.06823">
        <ele>164</ele>
        <time>2018-09-22T14:07:05Z</time>
      </trkpt>
      <trkpt lat="48.36198" lon="-0.06833">
        <ele>162</ele>
        <time>2018-09-22T14:07:11Z</time>
      </trkpt>
      <trkpt lat="48.36199" lon="-0.06844">
        <ele>162</ele>
        <time>2018-09-22T14:07:17Z</time>
      </trkpt>
      <trkpt lat="48.362" lon="-0.06851">
        <ele>162</ele>
        <time>2018-09-22T14:07:21Z</time>
      </trkpt>
      <trkpt lat="48.36202" lon="-0.06861">
        <ele>161</ele>
        <time>2018-09-22T14:07:27Z</time>
      </trkpt>
      <trkpt lat="48.36203" lon="-0.06864">
        <ele>161</ele>
        <time>2018-09-22T14:07:29Z</time>
      </trkpt>
      <trkpt lat="48.36204" lon="-0.06871">
        <ele>160</ele>
        <time>2018-09-22T14:07:33Z</time>
      </trkpt>
      <trkpt lat="48.36204" lon="-0.06874">
        <ele>160</ele>
        <time>2018-09-22T14:07:35Z</time>
      </trkpt>
      <trkpt lat="48.36214" lon="-0.06897">
        <ele>160</ele>
        <time>2018-09-22T14:07:51Z</time>
      </trkpt>
      <trkpt lat="48.3622" lon="-0.06906">
        <ele>161</ele>
        <time>2018-09-22T14:07:57Z</time>
      </trkpt>
      <trkpt lat="48.36246" lon="-0.06936">
        <ele>163</ele>
        <time>2018-09-22T14:08:25Z</time>
      </trkpt>
      <trkpt lat="48.36248" lon="-0.06938">
        <ele>163</ele>
        <time>2018-09-22T14:08:27Z</time>
      </trkpt>
      <trkpt lat="48.36265" lon="-0.06962">
        <ele>162</ele>
        <time>2018-09-22T14:08:49Z</time>
      </trkpt>
      <trkpt lat="48.36267" lon="-0.06964">
        <ele>162</ele>
        <time>2018-09-22T14:08:51Z</time>
      </trkpt>
      <trkpt lat="48.3627" lon="-0.06968">
        <ele>161</ele>
        <time>2018-09-22T14:08:55Z</time>
      </trkpt>
      <trkpt lat="48.36282" lon="-0.0698">
        <ele>162</ele>
        <time>2018-09-22T14:09:11Z</time>
      </trkpt>
      <trkpt lat="48.36284" lon="-0.06982">
        <ele>161</ele>
        <time>2018-09-22T14:09:14Z</time>
      </trkpt>
      <trkpt lat="48.36284" lon="-0.06986">
        <ele>161</ele>
        <time>2018-09-22T14:09:24Z</time>
      </trkpt>
      <trkpt lat="48.36286" lon="-0.06987">
        <ele>160</ele>
        <time>2018-09-22T14:09:30Z</time>
      </trkpt>
      <trkpt lat="48.36287" lon="-0.06988">
        <ele>160</ele>
        <time>2018-09-22T14:10:09Z</time>
      </trkpt>
      <trkpt lat="48.36285" lon="-0.06993">
        <ele>160</ele>
        <time>2018-09-22T14:11:45Z</time>
      </trkpt>
      <trkpt lat="48.36277" lon="-0.06999">
        <ele>157</ele>
        <time>2018-09-22T14:12:01Z</time>
      </trkpt>
      <trkpt lat="48.36275" lon="-0.07001">
        <ele>156</ele>
        <time>2018-09-22T14:12:05Z</time>
      </trkpt>
      <trkpt lat="48.36254" lon="-0.0703">
        <ele>155</ele>
        <time>2018-09-22T14:12:35Z</time>
      </trkpt>
      <trkpt lat="48.36228" lon="-0.07054">
        <ele>155</ele>
        <time>2018-09-22T14:13:07Z</time>
      </trkpt>
      <trkpt lat="48.36203" lon="-0.07086">
        <ele>153</ele>
        <time>2018-09-22T14:13:37Z</time>
      </trkpt>
      <trkpt lat="48.36181" lon="-0.07118">
        <ele>147</ele>
        <time>2018-09-22T14:14:09Z</time>
      </trkpt>
      <trkpt lat="48.36169" lon="-0.07131">
        <ele>144</ele>
        <time>2018-09-22T14:14:22Z</time>
      </trkpt>
      <trkpt lat="48.36159" lon="-0.07137">
        <ele>144</ele>
        <time>2018-09-22T14:14:32Z</time>
      </trkpt>
      <trkpt lat="48.36147" lon="-0.07144">
        <ele>144</ele>
        <time>2018-09-22T14:14:43Z</time>
      </trkpt>
      <trkpt lat="48.36139" lon="-0.07151">
        <ele>144</ele>
        <time>2018-09-22T14:14:52Z</time>
      </trkpt>
      <trkpt lat="48.36134" lon="-0.07154">
        <ele>145</ele>
        <time>2018-09-22T14:14:57Z</time>
      </trkpt>
      <trkpt lat="48.36129" lon="-0.07159">
        <ele>147</ele>
        <time>2018-09-22T14:15:03Z</time>
      </trkpt>
      <trkpt lat="48.36123" lon="-0.07168">
        <ele>147</ele>
        <time>2018-09-22T14:15:13Z</time>
      </trkpt>
      <trkpt lat="48.36121" lon="-0.0717">
        <ele>147</ele>
        <time>2018-09-22T14:15:16Z</time>
      </trkpt>
      <trkpt lat="48.36113" lon="-0.07178">
        <ele>148</ele>
        <time>2018-09-22T14:15:25Z</time>
      </trkpt>
      <trkpt lat="48.36098" lon="-0.07191">
        <ele>147</ele>
        <time>2018-09-22T14:15:42Z</time>
      </trkpt>
      <trkpt lat="48.36092" lon="-0.07196">
        <ele>146</ele>
        <time>2018-09-22T14:16:13Z</time>
      </trkpt>
      <trkpt lat="48.36085" lon="-0.07197">
        <ele>145</ele>
        <time>2018-09-22T14:16:39Z</time>
      </trkpt>
      <trkpt lat="48.36082" lon="-0.07197">
        <ele>144</ele>
        <time>2018-09-22T14:16:48Z</time>
      </trkpt>
      <trkpt lat="48.3608" lon="-0.07196">
        <ele>142</ele>
        <time>2018-09-22T14:16:51Z</time>
      </trkpt>
      <trkpt lat="48.36079" lon="-0.07194">
        <ele>142</ele>
        <time>2018-09-22T14:16:54Z</time>
      </trkpt>
      <trkpt lat="48.36077" lon="-0.07192">
        <ele>141</ele>
        <time>2018-09-22T14:16:57Z</time>
      </trkpt>
      <trkpt lat="48.36076" lon="-0.07191">
        <ele>140</ele>
        <time>2018-09-22T14:17:12Z</time>
      </trkpt>
      <trkpt lat="48.36071" lon="-0.07192">
        <ele>139</ele>
        <time>2018-09-22T14:17:25Z</time>
      </trkpt>
      <trkpt lat="48.3607" lon="-0.07195">
        <ele>138</ele>
        <time>2018-09-22T14:17:29Z</time>
      </trkpt>
      <trkpt lat="48.36067" lon="-0.07196">
        <ele>138</ele>
        <time>2018-09-22T14:17:34Z</time>
      </trkpt>
      <trkpt lat="48.36065" lon="-0.07197">
        <ele>138</ele>
        <time>2018-09-22T14:17:38Z</time>
      </trkpt>
      <trkpt lat="48.36062" lon="-0.07198">
        <ele>138</ele>
        <time>2018-09-22T14:17:42Z</time>
      </trkpt>
      <trkpt lat="48.36057" lon="-0.07197">
        <ele>138</ele>
        <time>2018-09-22T14:17:48Z</time>
      </trkpt>
      <trkpt lat="48.36055" lon="-0.07198">
        <ele>138</ele>
        <time>2018-09-22T14:17:52Z</time>
      </trkpt>
      <trkpt lat="48.36049" lon="-0.07198">
        <ele>138</ele>
        <time>2018-09-22T14:18:01Z</time>
      </trkpt>
      <trkpt lat="48.36046" lon="-0.07199">
        <ele>138</ele>
        <time>2018-09-22T14:18:08Z</time>
      </trkpt>
      <trkpt lat="48.36033" lon="-0.07198">
        <ele>134</ele>
        <time>2018-09-22T14:18:24Z</time>
      </trkpt>
      <trkpt lat="48.36026" lon="-0.07196">
        <ele>133</ele>
        <time>2018-09-22T14:18:33Z</time>
      </trkpt>
      <trkpt lat="48.36024" lon="-0.07197">
        <ele>132</ele>
        <time>2018-09-22T14:18:36Z</time>
      </trkpt>
      <trkpt lat="48.36019" lon="-0.07198">
        <ele>131</ele>
        <time>2018-09-22T14:18:42Z</time>
      </trkpt>
      <trkpt lat="48.36016" lon="-0.07197">
        <ele>130</ele>
        <time>2018-09-22T14:18:46Z</time>
      </trkpt>
      <trkpt lat="48.36013" lon="-0.07197">
        <ele>130</ele>
        <time>2018-09-22T14:18:49Z</time>
      </trkpt>
      <trkpt lat="48.36008" lon="-0.07198">
        <ele>129</ele>
        <time>2018-09-22T14:18:56Z</time>
      </trkpt>
      <trkpt lat="48.35996" lon="-0.07211">
        <ele>125</ele>
        <time>2018-09-22T14:19:20Z</time>
      </trkpt>
      <trkpt lat="48.3599" lon="-0.07218">
        <ele>124</ele>
        <time>2018-09-22T14:19:29Z</time>
      </trkpt>
      <trkpt lat="48.35986" lon="-0.07223">
        <ele>122</ele>
        <time>2018-09-22T14:19:34Z</time>
      </trkpt>
      <trkpt lat="48.35983" lon="-0.07225">
        <ele>121</ele>
        <time>2018-09-22T14:19:38Z</time>
      </trkpt>
      <trkpt lat="48.35978" lon="-0.07228">
        <ele>121</ele>
        <time>2018-09-22T14:19:44Z</time>
      </trkpt>
      <trkpt lat="48.35976" lon="-0.0723">
        <ele>121</ele>
        <time>2018-09-22T14:19:48Z</time>
      </trkpt>
      <trkpt lat="48.35974" lon="-0.07232">
        <ele>120</ele>
        <time>2018-09-22T14:19:52Z</time>
      </trkpt>
      <trkpt lat="48.3597" lon="-0.07235">
        <ele>119</ele>
        <time>2018-09-22T14:19:58Z</time>
      </trkpt>
      <trkpt lat="48.35967" lon="-0.07241">
        <ele>117</ele>
        <time>2018-09-22T14:20:07Z</time>
      </trkpt>
      <trkpt lat="48.35966" lon="-0.07245">
        <ele>116</ele>
        <time>2018-09-22T14:20:11Z</time>
      </trkpt>
      <trkpt lat="48.35961" lon="-0.07259">
        <ele>110</ele>
        <time>2018-09-22T14:20:28Z</time>
      </trkpt>
      <trkpt lat="48.35958" lon="-0.07272">
        <ele>108</ele>
        <time>2018-09-22T14:20:40Z</time>
      </trkpt>
      <trkpt lat="48.35951" lon="-0.07292">
        <ele>107</ele>
        <time>2018-09-22T14:20:57Z</time>
      </trkpt>
      <trkpt lat="48.35949" lon="-0.07295">
        <ele>106</ele>
        <time>2018-09-22T14:21:00Z</time>
      </trkpt>
      <trkpt lat="48.35941" lon="-0.07315">
        <ele>104</ele>
        <time>2018-09-22T14:21:18Z</time>
      </trkpt>
      <trkpt lat="48.3594" lon="-0.0732">
        <ele>103</ele>
        <time>2018-09-22T14:21:22Z</time>
      </trkpt>
      <trkpt lat="48.3594" lon="-0.07333">
        <ele>103</ele>
        <time>2018-09-22T14:21:34Z</time>
      </trkpt>
      <trkpt lat="48.35942" lon="-0.07336">
        <ele>103</ele>
        <time>2018-09-22T14:21:37Z</time>
      </trkpt>
      <trkpt lat="48.35941" lon="-0.0734">
        <ele>105</ele>
        <time>2018-09-22T14:21:42Z</time>
      </trkpt>
      <trkpt lat="48.35939" lon="-0.07342">
        <ele>105</ele>
        <time>2018-09-22T14:21:46Z</time>
      </trkpt>
      <trkpt lat="48.35938" lon="-0.07345">
        <ele>105</ele>
        <time>2018-09-22T14:21:50Z</time>
      </trkpt>
      <trkpt lat="48.35939" lon="-0.07349">
        <ele>106</ele>
        <time>2018-09-22T14:21:56Z</time>
      </trkpt>
      <trkpt lat="48.35942" lon="-0.07356">
        <ele>105</ele>
        <time>2018-09-22T14:22:04Z</time>
      </trkpt>
      <trkpt lat="48.35944" lon="-0.07361">
        <ele>106</ele>
        <time>2018-09-22T14:22:08Z</time>
      </trkpt>
      <trkpt lat="48.35945" lon="-0.07365">
        <ele>106</ele>
        <time>2018-09-22T14:22:11Z</time>
      </trkpt>
      <trkpt lat="48.35946" lon="-0.07372">
        <ele>107</ele>
        <time>2018-09-22T14:22:19Z</time>
      </trkpt>
      <trkpt lat="48.35945" lon="-0.0738">
        <ele>110</ele>
        <time>2018-09-22T14:22:53Z</time>
      </trkpt>
      <trkpt lat="48.35943" lon="-0.07378">
        <ele>111</ele>
        <time>2018-09-22T14:23:26Z</time>
      </trkpt>
      <trkpt lat="48.35941" lon="-0.07375">
        <ele>107</ele>
        <time>2018-09-22T14:23:31Z</time>
      </trkpt>
      <trkpt lat="48.35938" lon="-0.07373">
        <ele>105</ele>
        <time>2018-09-22T14:23:35Z</time>
      </trkpt>
      <trkpt lat="48.35935" lon="-0.07373">
        <ele>104</ele>
        <time>2018-09-22T14:23:38Z</time>
      </trkpt>
      <trkpt lat="48.35928" lon="-0.07384">
        <ele>101</ele>
        <time>2018-09-22T14:23:56Z</time>
      </trkpt>
      <trkpt lat="48.35927" lon="-0.07386">
        <ele>101</ele>
        <time>2018-09-22T14:23:59Z</time>
      </trkpt>
      <trkpt lat="48.35928" lon="-0.07389">
        <ele>101</ele>
        <time>2018-09-22T14:24:02Z</time>
      </trkpt>
      <trkpt lat="48.35927" lon="-0.07392">
        <ele>100</ele>
        <time>2018-09-22T14:24:07Z</time>
      </trkpt>
      <trkpt lat="48.35926" lon="-0.07403">
        <ele>98</ele>
        <time>2018-09-22T14:25:42Z</time>
      </trkpt>
      <trkpt lat="48.35926" lon="-0.07407">
        <ele>97</ele>
        <time>2018-09-22T14:25:47Z</time>
      </trkpt>
      <trkpt lat="48.35922" lon="-0.07426">
        <ele>95</ele>
        <time>2018-09-22T14:26:04Z</time>
      </trkpt>
      <trkpt lat="48.3592" lon="-0.07433">
        <ele>93</ele>
        <time>2018-09-22T14:26:10Z</time>
      </trkpt>
      <trkpt lat="48.35919" lon="-0.07438">
        <ele>93</ele>
        <time>2018-09-22T14:26:13Z</time>
      </trkpt>
      <trkpt lat="48.35917" lon="-0.07445">
        <ele>93</ele>
        <time>2018-09-22T14:26:19Z</time>
      </trkpt>
      <trkpt lat="48.35914" lon="-0.07456">
        <ele>91</ele>
        <time>2018-09-22T14:26:27Z</time>
      </trkpt>
      <trkpt lat="48.35913" lon="-0.0746">
        <ele>90</ele>
        <time>2018-09-22T14:26:31Z</time>
      </trkpt>
      <trkpt lat="48.35912" lon="-0.07462">
        <ele>90</ele>
        <time>2018-09-22T14:26:34Z</time>
      </trkpt>
      <trkpt lat="48.35909" lon="-0.07472">
        <ele>91</ele>
        <time>2018-09-22T14:26:50Z</time>
      </trkpt>
      <trkpt lat="48.35907" lon="-0.07491">
        <ele>93</ele>
        <time>2018-09-22T14:27:06Z</time>
      </trkpt>
      <trkpt lat="48.35908" lon="-0.07507">
        <ele>96</ele>
        <time>2018-09-22T14:27:21Z</time>
      </trkpt>
      <trkpt lat="48.3591" lon="-0.07515">
        <ele>98</ele>
        <time>2018-09-22T14:27:29Z</time>
      </trkpt>
      <trkpt lat="48.35909" lon="-0.07525">
        <ele>98</ele>
        <time>2018-09-22T14:27:34Z</time>
      </trkpt>
      <trkpt lat="48.35911" lon="-0.07559">
        <ele>98</ele>
        <time>2018-09-22T14:27:53Z</time>
      </trkpt>
      <trkpt lat="48.35911" lon="-0.0761">
        <ele>92</ele>
        <time>2018-09-22T14:28:25Z</time>
      </trkpt>
      <trkpt lat="48.35911" lon="-0.07613">
        <ele>93</ele>
        <time>2018-09-22T14:28:28Z</time>
      </trkpt>
      <trkpt lat="48.3591" lon="-0.07625">
        <ele>92</ele>
        <time>2018-09-22T14:28:37Z</time>
      </trkpt>
      <trkpt lat="48.35908" lon="-0.07654">
        <ele>89</ele>
        <time>2018-09-22T14:28:52Z</time>
      </trkpt>
      <trkpt lat="48.35907" lon="-0.07663">
        <ele>88</ele>
        <time>2018-09-22T14:28:58Z</time>
      </trkpt>
      <trkpt lat="48.35905" lon="-0.07678">
        <ele>87</ele>
        <time>2018-09-22T14:29:06Z</time>
      </trkpt>
      <trkpt lat="48.35905" lon="-0.07692">
        <ele>87</ele>
        <time>2018-09-22T14:29:14Z</time>
      </trkpt>
      <trkpt lat="48.35902" lon="-0.0773">
        <ele>83</ele>
        <time>2018-09-22T14:29:33Z</time>
      </trkpt>
      <trkpt lat="48.35899" lon="-0.07743">
        <ele>82</ele>
        <time>2018-09-22T14:29:39Z</time>
      </trkpt>
      <trkpt lat="48.35898" lon="-0.07756">
        <ele>82</ele>
        <time>2018-09-22T14:29:45Z</time>
      </trkpt>
      <trkpt lat="48.35897" lon="-0.07763">
        <ele>80</ele>
        <time>2018-09-22T14:29:49Z</time>
      </trkpt>
      <trkpt lat="48.35894" lon="-0.07783">
        <ele>77</ele>
        <time>2018-09-22T14:30:01Z</time>
      </trkpt>
      <trkpt lat="48.35894" lon="-0.07786">
        <ele>77</ele>
        <time>2018-09-22T14:30:03Z</time>
      </trkpt>
      <trkpt lat="48.3589" lon="-0.0781">
        <ele>77</ele>
        <time>2018-09-22T14:30:16Z</time>
      </trkpt>
      <trkpt lat="48.3589" lon="-0.07815">
        <ele>77</ele>
        <time>2018-09-22T14:30:18Z</time>
      </trkpt>
      <trkpt lat="48.35888" lon="-0.07826">
        <ele>76</ele>
        <time>2018-09-22T14:30:24Z</time>
      </trkpt>
      <trkpt lat="48.35887" lon="-0.07831">
        <ele>75</ele>
        <time>2018-09-22T14:30:27Z</time>
      </trkpt>
      <trkpt lat="48.35885" lon="-0.0785">
        <ele>76</ele>
        <time>2018-09-22T14:30:38Z</time>
      </trkpt>
      <trkpt lat="48.35882" lon="-0.07856">
        <ele>78</ele>
        <time>2018-09-22T14:30:42Z</time>
      </trkpt>
      <trkpt lat="48.35875" lon="-0.07875">
        <ele>82</ele>
        <time>2018-09-22T14:30:52Z</time>
      </trkpt>
      <trkpt lat="48.35869" lon="-0.07885">
        <ele>83</ele>
        <time>2018-09-22T14:31:01Z</time>
      </trkpt>
      <trkpt lat="48.35868" lon="-0.07886">
        <ele>82</ele>
        <time>2018-09-22T14:31:12Z</time>
      </trkpt>
      <trkpt lat="48.35869" lon="-0.07896">
        <ele>83</ele>
        <time>2018-09-22T14:32:32Z</time>
      </trkpt>
      <trkpt lat="48.35868" lon="-0.07895">
        <ele>84</ele>
        <time>2018-09-22T14:32:40Z</time>
      </trkpt>
      <trkpt lat="48.35867" lon="-0.07895">
        <ele>85</ele>
        <time>2018-09-22T14:32:55Z</time>
      </trkpt>
      <trkpt lat="48.35863" lon="-0.07894">
        <ele>85</ele>
        <time>2018-09-22T14:32:59Z</time>
      </trkpt>
      <trkpt lat="48.35859" lon="-0.07895">
        <ele>85</ele>
        <time>2018-09-22T14:33:03Z</time>
      </trkpt>
      <trkpt lat="48.35846" lon="-0.07905">
        <ele>86</ele>
        <time>2018-09-22T14:33:17Z</time>
      </trkpt>
      <trkpt lat="48.35844" lon="-0.07906">
        <ele>87</ele>
        <time>2018-09-22T14:33:19Z</time>
      </trkpt>
      <trkpt lat="48.35842" lon="-0.07907">
        <ele>87</ele>
        <time>2018-09-22T14:33:21Z</time>
      </trkpt>
      <trkpt lat="48.3584" lon="-0.07907">
        <ele>87</ele>
        <time>2018-09-22T14:33:23Z</time>
      </trkpt>
      <trkpt lat="48.35831" lon="-0.07914">
        <ele>87</ele>
        <time>2018-09-22T14:33:32Z</time>
      </trkpt>
      <trkpt lat="48.35829" lon="-0.07915">
        <ele>87</ele>
        <time>2018-09-22T14:33:34Z</time>
      </trkpt>
      <trkpt lat="48.35827" lon="-0.07916">
        <ele>87</ele>
        <time>2018-09-22T14:33:36Z</time>
      </trkpt>
      <trkpt lat="48.35823" lon="-0.07915">
        <ele>88</ele>
        <time>2018-09-22T14:33:40Z</time>
      </trkpt>
      <trkpt lat="48.35821" lon="-0.07915">
        <ele>89</ele>
        <time>2018-09-22T14:33:42Z</time>
      </trkpt>
      <trkpt lat="48.35818" lon="-0.07913">
        <ele>90</ele>
        <time>2018-09-22T14:33:45Z</time>
      </trkpt>
      <trkpt lat="48.35817" lon="-0.0791">
        <ele>90</ele>
        <time>2018-09-22T14:33:48Z</time>
      </trkpt>
      <trkpt lat="48.35817" lon="-0.07907">
        <ele>92</ele>
        <time>2018-09-22T14:33:51Z</time>
      </trkpt>
      <trkpt lat="48.35815" lon="-0.07894">
        <ele>93</ele>
        <time>2018-09-22T14:34:03Z</time>
      </trkpt>
      <trkpt lat="48.35816" lon="-0.07878">
        <ele>91</ele>
        <time>2018-09-22T14:34:15Z</time>
      </trkpt>
      <trkpt lat="48.35816" lon="-0.07871">
        <ele>90</ele>
        <time>2018-09-22T14:34:22Z</time>
      </trkpt>
      <trkpt lat="48.35816" lon="-0.07866">
        <ele>90</ele>
        <time>2018-09-22T14:34:25Z</time>
      </trkpt>
      <trkpt lat="48.35816" lon="-0.07862">
        <ele>90</ele>
        <time>2018-09-22T14:34:29Z</time>
      </trkpt>
      <trkpt lat="48.35818" lon="-0.07859">
        <ele>90</ele>
        <time>2018-09-22T14:34:33Z</time>
      </trkpt>
      <trkpt lat="48.35817" lon="-0.07851">
        <ele>94</ele>
        <time>2018-09-22T14:34:42Z</time>
      </trkpt>
      <trkpt lat="48.35818" lon="-0.07843">
        <ele>98</ele>
        <time>2018-09-22T14:34:49Z</time>
      </trkpt>
      <trkpt lat="48.35816" lon="-0.07841">
        <ele>100</ele>
        <time>2018-09-22T14:35:00Z</time>
      </trkpt>
      <trkpt lat="48.35814" lon="-0.07842">
        <ele>102</ele>
        <time>2018-09-22T14:35:03Z</time>
      </trkpt>
      <trkpt lat="48.35811" lon="-0.07842">
        <ele>103</ele>
        <time>2018-09-22T14:35:07Z</time>
      </trkpt>
      <trkpt lat="48.35804" lon="-0.07844">
        <ele>107</ele>
        <time>2018-09-22T14:35:22Z</time>
      </trkpt>
      <trkpt lat="48.35801" lon="-0.07844">
        <ele>109</ele>
        <time>2018-09-22T14:35:25Z</time>
      </trkpt>
      <trkpt lat="48.35799" lon="-0.07844">
        <ele>109</ele>
        <time>2018-09-22T14:35:27Z</time>
      </trkpt>
      <trkpt lat="48.35795" lon="-0.07847">
        <ele>108</ele>
        <time>2018-09-22T14:35:34Z</time>
      </trkpt>
      <trkpt lat="48.35789" lon="-0.07857">
        <ele>108</ele>
        <time>2018-09-22T14:35:44Z</time>
      </trkpt>
      <trkpt lat="48.35787" lon="-0.07858">
        <ele>107</ele>
        <time>2018-09-22T14:35:46Z</time>
      </trkpt>
      <trkpt lat="48.35783" lon="-0.07862">
        <ele>105</ele>
        <time>2018-09-22T14:35:50Z</time>
      </trkpt>
      <trkpt lat="48.35771" lon="-0.07869">
        <ele>103</ele>
        <time>2018-09-22T14:36:02Z</time>
      </trkpt>
      <trkpt lat="48.35763" lon="-0.07874">
        <ele>101</ele>
        <time>2018-09-22T14:36:10Z</time>
      </trkpt>
      <trkpt lat="48.35761" lon="-0.07875">
        <ele>102</ele>
        <time>2018-09-22T14:36:12Z</time>
      </trkpt>
      <trkpt lat="48.35759" lon="-0.07875">
        <ele>102</ele>
        <time>2018-09-22T14:36:14Z</time>
      </trkpt>
      <trkpt lat="48.35754" lon="-0.07876">
        <ele>102</ele>
        <time>2018-09-22T14:36:19Z</time>
      </trkpt>
      <trkpt lat="48.35736" lon="-0.07887">
        <ele>99</ele>
        <time>2018-09-22T14:36:39Z</time>
      </trkpt>
      <trkpt lat="48.35735" lon="-0.07888">
        <ele>98</ele>
        <time>2018-09-22T14:36:42Z</time>
      </trkpt>
      <trkpt lat="48.35732" lon="-0.0789">
        <ele>98</ele>
        <time>2018-09-22T14:36:45Z</time>
      </trkpt>
      <trkpt lat="48.35727" lon="-0.07891">
        <ele>99</ele>
        <time>2018-09-22T14:36:51Z</time>
      </trkpt>
      <trkpt lat="48.35723" lon="-0.07894">
        <ele>100</ele>
        <time>2018-09-22T14:36:57Z</time>
      </trkpt>
      <trkpt lat="48.35721" lon="-0.07895">
        <ele>100</ele>
        <time>2018-09-22T14:36:59Z</time>
      </trkpt>
      <trkpt lat="48.35719" lon="-0.07896">
        <ele>101</ele>
        <time>2018-09-22T14:37:02Z</time>
      </trkpt>
      <trkpt lat="48.35717" lon="-0.07896">
        <ele>101</ele>
        <time>2018-09-22T14:37:06Z</time>
      </trkpt>
      <trkpt lat="48.35711" lon="-0.07903">
        <ele>102</ele>
        <time>2018-09-22T14:37:15Z</time>
      </trkpt>
      <trkpt lat="48.35699" lon="-0.07908">
        <ele>103</ele>
        <time>2018-09-22T14:37:30Z</time>
      </trkpt>
      <trkpt lat="48.35697" lon="-0.0791">
        <ele>103</ele>
        <time>2018-09-22T14:37:33Z</time>
      </trkpt>
      <trkpt lat="48.35691" lon="-0.07916">
        <ele>104</ele>
        <time>2018-09-22T14:37:45Z</time>
      </trkpt>
      <trkpt lat="48.35679" lon="-0.07919">
        <ele>103</ele>
        <time>2018-09-22T14:38:06Z</time>
      </trkpt>
      <trkpt lat="48.35673" lon="-0.07917">
        <ele>101</ele>
        <time>2018-09-22T14:38:15Z</time>
      </trkpt>
      <trkpt lat="48.35668" lon="-0.07913">
        <ele>97</ele>
        <time>2018-09-22T14:38:21Z</time>
      </trkpt>
      <trkpt lat="48.35659" lon="-0.07913">
        <ele>93</ele>
        <time>2018-09-22T14:38:31Z</time>
      </trkpt>
      <trkpt lat="48.35656" lon="-0.07914">
        <ele>93</ele>
        <time>2018-09-22T14:38:34Z</time>
      </trkpt>
      <trkpt lat="48.35655" lon="-0.07916">
        <ele>93</ele>
        <time>2018-09-22T14:38:37Z</time>
      </trkpt>
      <trkpt lat="48.35654" lon="-0.07926">
        <ele>89</ele>
        <time>2018-09-22T14:38:52Z</time>
      </trkpt>
      <trkpt lat="48.35653" lon="-0.07931">
        <ele>89</ele>
        <time>2018-09-22T14:38:56Z</time>
      </trkpt>
      <trkpt lat="48.35652" lon="-0.07935">
        <ele>89</ele>
        <time>2018-09-22T14:39:01Z</time>
      </trkpt>
      <trkpt lat="48.3565" lon="-0.0794">
        <ele>88</ele>
        <time>2018-09-22T14:39:08Z</time>
      </trkpt>
      <trkpt lat="48.35639" lon="-0.07943">
        <ele>86</ele>
        <time>2018-09-22T14:39:20Z</time>
      </trkpt>
      <trkpt lat="48.35637" lon="-0.07944">
        <ele>85</ele>
        <time>2018-09-22T14:39:22Z</time>
      </trkpt>
      <trkpt lat="48.35635" lon="-0.07944">
        <ele>85</ele>
        <time>2018-09-22T14:39:24Z</time>
      </trkpt>
      <trkpt lat="48.35633" lon="-0.07943">
        <ele>85</ele>
        <time>2018-09-22T14:39:26Z</time>
      </trkpt>
      <trkpt lat="48.35631" lon="-0.07943">
        <ele>85</ele>
        <time>2018-09-22T14:39:28Z</time>
      </trkpt>
      <trkpt lat="48.35629" lon="-0.07942">
        <ele>84</ele>
        <time>2018-09-22T14:39:30Z</time>
      </trkpt>
      <trkpt lat="48.35627" lon="-0.07941">
        <ele>84</ele>
        <time>2018-09-22T14:39:32Z</time>
      </trkpt>
      <trkpt lat="48.35617" lon="-0.07934">
        <ele>82</ele>
        <time>2018-09-22T14:39:44Z</time>
      </trkpt>
      <trkpt lat="48.35615" lon="-0.07933">
        <ele>81</ele>
        <time>2018-09-22T14:39:46Z</time>
      </trkpt>
      <trkpt lat="48.35602" lon="-0.07921">
        <ele>76</ele>
        <time>2018-09-22T14:40:01Z</time>
      </trkpt>
      <trkpt lat="48.35599" lon="-0.07919">
        <ele>75</ele>
        <time>2018-09-22T14:40:05Z</time>
      </trkpt>
      <trkpt lat="48.35594" lon="-0.07914">
        <ele>73</ele>
        <time>2018-09-22T14:40:11Z</time>
      </trkpt>
      <trkpt lat="48.3559" lon="-0.07912">
        <ele>73</ele>
        <time>2018-09-22T14:40:15Z</time>
      </trkpt>
      <trkpt lat="48.35586" lon="-0.07908">
        <ele>72</ele>
        <time>2018-09-22T14:40:20Z</time>
      </trkpt>
      <trkpt lat="48.35585" lon="-0.07907">
        <ele>72</ele>
        <time>2018-09-22T14:40:22Z</time>
      </trkpt>
      <trkpt lat="48.35579" lon="-0.07901">
        <ele>71</ele>
        <time>2018-09-22T14:40:29Z</time>
      </trkpt>
      <trkpt lat="48.35577" lon="-0.079">
        <ele>71</ele>
        <time>2018-09-22T14:40:31Z</time>
      </trkpt>
      <trkpt lat="48.35576" lon="-0.07899">
        <ele>70</ele>
        <time>2018-09-22T14:40:33Z</time>
      </trkpt>
      <trkpt lat="48.35562" lon="-0.0789">
        <ele>69</ele>
        <time>2018-09-22T14:40:48Z</time>
      </trkpt>
      <trkpt lat="48.35559" lon="-0.07889">
        <ele>70</ele>
        <time>2018-09-22T14:40:55Z</time>
      </trkpt>
      <trkpt lat="48.3554" lon="-0.07879">
        <ele>68</ele>
        <time>2018-09-22T14:41:14Z</time>
      </trkpt>
      <trkpt lat="48.35538" lon="-0.07878">
        <ele>68</ele>
        <time>2018-09-22T14:41:16Z</time>
      </trkpt>
      <trkpt lat="48.35525" lon="-0.07868">
        <ele>68</ele>
        <time>2018-09-22T14:41:30Z</time>
      </trkpt>
      <trkpt lat="48.35523" lon="-0.07867">
        <ele>68</ele>
        <time>2018-09-22T14:41:32Z</time>
      </trkpt>
      <trkpt lat="48.35522" lon="-0.07865">
        <ele>68</ele>
        <time>2018-09-22T14:41:34Z</time>
      </trkpt>
      <trkpt lat="48.3552" lon="-0.07863">
        <ele>68</ele>
        <time>2018-09-22T14:41:36Z</time>
      </trkpt>
      <trkpt lat="48.35518" lon="-0.07862">
        <ele>68</ele>
        <time>2018-09-22T14:41:38Z</time>
      </trkpt>
      <trkpt lat="48.35516" lon="-0.0786">
        <ele>68</ele>
        <time>2018-09-22T14:41:40Z</time>
      </trkpt>
      <trkpt lat="48.35511" lon="-0.07858">
        <ele>67</ele>
        <time>2018-09-22T14:41:44Z</time>
      </trkpt>
      <trkpt lat="48.35504" lon="-0.07852">
        <ele>65</ele>
        <time>2018-09-22T14:41:53Z</time>
      </trkpt>
      <trkpt lat="48.35501" lon="-0.07853">
        <ele>63</ele>
        <time>2018-09-22T14:42:03Z</time>
      </trkpt>
      <trkpt lat="48.35495" lon="-0.0785">
        <ele>61</ele>
        <time>2018-09-22T14:42:11Z</time>
      </trkpt>
      <trkpt lat="48.35493" lon="-0.07848">
        <ele>61</ele>
        <time>2018-09-22T14:42:14Z</time>
      </trkpt>
      <trkpt lat="48.35492" lon="-0.07846">
        <ele>61</ele>
        <time>2018-09-22T14:42:16Z</time>
      </trkpt>
      <trkpt lat="48.3549" lon="-0.07841">
        <ele>61</ele>
        <time>2018-09-22T14:42:20Z</time>
      </trkpt>
      <trkpt lat="48.35488" lon="-0.07834">
        <ele>60</ele>
        <time>2018-09-22T14:42:24Z</time>
      </trkpt>
      <trkpt lat="48.35483" lon="-0.07819">
        <ele>60</ele>
        <time>2018-09-22T14:42:34Z</time>
      </trkpt>
      <trkpt lat="48.35474" lon="-0.0779">
        <ele>60</ele>
        <time>2018-09-22T14:42:52Z</time>
      </trkpt>
      <trkpt lat="48.35472" lon="-0.07788">
        <ele>60</ele>
        <time>2018-09-22T14:42:54Z</time>
      </trkpt>
      <trkpt lat="48.3547" lon="-0.07783">
        <ele>60</ele>
        <time>2018-09-22T14:42:58Z</time>
      </trkpt>
      <trkpt lat="48.35461" lon="-0.0777">
        <ele>58</ele>
        <time>2018-09-22T14:43:10Z</time>
      </trkpt>
      <trkpt lat="48.35445" lon="-0.07758">
        <ele>52</ele>
        <time>2018-09-22T14:43:26Z</time>
      </trkpt>
      <trkpt lat="48.35443" lon="-0.07757">
        <ele>52</ele>
        <time>2018-09-22T14:43:28Z</time>
      </trkpt>
      <trkpt lat="48.35441" lon="-0.07757">
        <ele>52</ele>
        <time>2018-09-22T14:43:30Z</time>
      </trkpt>
      <trkpt lat="48.35439" lon="-0.07757">
        <ele>52</ele>
        <time>2018-09-22T14:43:32Z</time>
      </trkpt>
      <trkpt lat="48.35436" lon="-0.07756">
        <ele>52</ele>
        <time>2018-09-22T14:43:34Z</time>
      </trkpt>
      <trkpt lat="48.35426" lon="-0.07753">
        <ele>52</ele>
        <time>2018-09-22T14:43:42Z</time>
      </trkpt>
      <trkpt lat="48.35421" lon="-0.07752">
        <ele>53</ele>
        <time>2018-09-22T14:43:46Z</time>
      </trkpt>
      <trkpt lat="48.35418" lon="-0.07751">
        <ele>53</ele>
        <time>2018-09-22T14:43:48Z</time>
      </trkpt>
      <trkpt lat="48.35399" lon="-0.07746">
        <ele>51</ele>
        <time>2018-09-22T14:44:05Z</time>
      </trkpt>
      <trkpt lat="48.35397" lon="-0.07745">
        <ele>51</ele>
        <time>2018-09-22T14:44:07Z</time>
      </trkpt>
      <trkpt lat="48.35395" lon="-0.07739">
        <ele>51</ele>
        <time>2018-09-22T14:44:11Z</time>
      </trkpt>
      <trkpt lat="48.3539" lon="-0.07735">
        <ele>51</ele>
        <time>2018-09-22T14:44:15Z</time>
      </trkpt>
      <trkpt lat="48.35387" lon="-0.07734">
        <ele>52</ele>
        <time>2018-09-22T14:44:17Z</time>
      </trkpt>
      <trkpt lat="48.35383" lon="-0.07733">
        <ele>53</ele>
        <time>2018-09-22T14:44:21Z</time>
      </trkpt>
      <trkpt lat="48.35376" lon="-0.07731">
        <ele>54</ele>
        <time>2018-09-22T14:44:27Z</time>
      </trkpt>
      <trkpt lat="48.35371" lon="-0.07731">
        <ele>55</ele>
        <time>2018-09-22T14:44:31Z</time>
      </trkpt>
      <trkpt lat="48.3536" lon="-0.07727">
        <ele>58</ele>
        <time>2018-09-22T14:44:41Z</time>
      </trkpt>
      <trkpt lat="48.3535" lon="-0.07725">
        <ele>59</ele>
        <time>2018-09-22T14:44:49Z</time>
      </trkpt>
      <trkpt lat="48.35347" lon="-0.07724">
        <ele>60</ele>
        <time>2018-09-22T14:44:51Z</time>
      </trkpt>
      <trkpt lat="48.35337" lon="-0.07722">
        <ele>63</ele>
        <time>2018-09-22T14:45:01Z</time>
      </trkpt>
      <trkpt lat="48.35334" lon="-0.07722">
        <ele>63</ele>
        <time>2018-09-22T14:45:03Z</time>
      </trkpt>
      <trkpt lat="48.35332" lon="-0.07722">
        <ele>64</ele>
        <time>2018-09-22T14:45:05Z</time>
      </trkpt>
      <trkpt lat="48.35328" lon="-0.0772">
        <ele>64</ele>
        <time>2018-09-22T14:45:09Z</time>
      </trkpt>
      <trkpt lat="48.35326" lon="-0.0772">
        <ele>64</ele>
        <time>2018-09-22T14:45:11Z</time>
      </trkpt>
      <trkpt lat="48.35324" lon="-0.0772">
        <ele>64</ele>
        <time>2018-09-22T14:45:13Z</time>
      </trkpt>
      <trkpt lat="48.35316" lon="-0.07719">
        <ele>67</ele>
        <time>2018-09-22T14:45:19Z</time>
      </trkpt>
      <trkpt lat="48.35312" lon="-0.07719">
        <ele>69</ele>
        <time>2018-09-22T14:45:23Z</time>
      </trkpt>
      <trkpt lat="48.3531" lon="-0.07718">
        <ele>69</ele>
        <time>2018-09-22T14:45:25Z</time>
      </trkpt>
      <trkpt lat="48.35308" lon="-0.07717">
        <ele>69</ele>
        <time>2018-09-22T14:45:27Z</time>
      </trkpt>
      <trkpt lat="48.35306" lon="-0.07716">
        <ele>69</ele>
        <time>2018-09-22T14:45:29Z</time>
      </trkpt>
      <trkpt lat="48.35304" lon="-0.07715">
        <ele>69</ele>
        <time>2018-09-22T14:45:31Z</time>
      </trkpt>
      <trkpt lat="48.35302" lon="-0.07714">
        <ele>69</ele>
        <time>2018-09-22T14:45:33Z</time>
      </trkpt>
      <trkpt lat="48.353" lon="-0.07714">
        <ele>69</ele>
        <time>2018-09-22T14:45:35Z</time>
      </trkpt>
      <trkpt lat="48.35292" lon="-0.07712">
        <ele>70</ele>
        <time>2018-09-22T14:45:43Z</time>
      </trkpt>
      <trkpt lat="48.35283" lon="-0.0771">
        <ele>69</ele>
        <time>2018-09-22T14:45:51Z</time>
      </trkpt>
      <trkpt lat="48.35281" lon="-0.07709">
        <ele>69</ele>
        <time>2018-09-22T14:45:53Z</time>
      </trkpt>
      <trkpt lat="48.35279" lon="-0.07709">
        <ele>69</ele>
        <time>2018-09-22T14:45:55Z</time>
      </trkpt>
      <trkpt lat="48.3527" lon="-0.07707">
        <ele>66</ele>
        <time>2018-09-22T14:46:03Z</time>
      </trkpt>
      <trkpt lat="48.35268" lon="-0.07708">
        <ele>66</ele>
        <time>2018-09-22T14:46:05Z</time>
      </trkpt>
      <trkpt lat="48.35262" lon="-0.07707">
        <ele>67</ele>
        <time>2018-09-22T14:46:11Z</time>
      </trkpt>
      <trkpt lat="48.35252" lon="-0.07704">
        <ele>68</ele>
        <time>2018-09-22T14:46:19Z</time>
      </trkpt>
      <trkpt lat="48.3525" lon="-0.07703">
        <ele>67</ele>
        <time>2018-09-22T14:46:21Z</time>
      </trkpt>
      <trkpt lat="48.35245" lon="-0.07703">
        <ele>67</ele>
        <time>2018-09-22T14:46:25Z</time>
      </trkpt>
      <trkpt lat="48.35238" lon="-0.07701">
        <ele>67</ele>
        <time>2018-09-22T14:46:31Z</time>
      </trkpt>
      <trkpt lat="48.35229" lon="-0.07701">
        <ele>69</ele>
        <time>2018-09-22T14:46:39Z</time>
      </trkpt>
      <trkpt lat="48.35226" lon="-0.077">
        <ele>69</ele>
        <time>2018-09-22T14:46:41Z</time>
      </trkpt>
      <trkpt lat="48.35217" lon="-0.077">
        <ele>69</ele>
        <time>2018-09-22T14:46:49Z</time>
      </trkpt>
      <trkpt lat="48.35215" lon="-0.07699">
        <ele>69</ele>
        <time>2018-09-22T14:46:52Z</time>
      </trkpt>
      <trkpt lat="48.35212" lon="-0.07701">
        <ele>68</ele>
        <time>2018-09-22T14:46:55Z</time>
      </trkpt>
      <trkpt lat="48.35211" lon="-0.07704">
        <ele>68</ele>
        <time>2018-09-22T14:46:57Z</time>
      </trkpt>
      <trkpt lat="48.35209" lon="-0.07711">
        <ele>68</ele>
        <time>2018-09-22T14:47:01Z</time>
      </trkpt>
      <trkpt lat="48.35209" lon="-0.07715">
        <ele>66</ele>
        <time>2018-09-22T14:47:04Z</time>
      </trkpt>
      <trkpt lat="48.35211" lon="-0.07721">
        <ele>63</ele>
        <time>2018-09-22T14:47:16Z</time>
      </trkpt>
      <trkpt lat="48.35211" lon="-0.07724">
        <ele>62</ele>
        <time>2018-09-22T14:47:19Z</time>
      </trkpt>
      <trkpt lat="48.35209" lon="-0.07727">
        <ele>61</ele>
        <time>2018-09-22T14:47:22Z</time>
      </trkpt>
      <trkpt lat="48.35204" lon="-0.07733">
        <ele>61</ele>
        <time>2018-09-22T14:47:29Z</time>
      </trkpt>
      <trkpt lat="48.35202" lon="-0.07735">
        <ele>61</ele>
        <time>2018-09-22T14:47:31Z</time>
      </trkpt>
      <trkpt lat="48.35195" lon="-0.07743">
        <ele>60</ele>
        <time>2018-09-22T14:47:39Z</time>
      </trkpt>
      <trkpt lat="48.35193" lon="-0.07745">
        <ele>59</ele>
        <time>2018-09-22T14:47:41Z</time>
      </trkpt>
      <trkpt lat="48.35191" lon="-0.07747">
        <ele>58</ele>
        <time>2018-09-22T14:47:44Z</time>
      </trkpt>
      <trkpt lat="48.3519" lon="-0.07748">
        <ele>58</ele>
        <time>2018-09-22T14:47:46Z</time>
      </trkpt>
      <trkpt lat="48.35188" lon="-0.07748">
        <ele>57</ele>
        <time>2018-09-22T14:47:48Z</time>
      </trkpt>
      <trkpt lat="48.35185" lon="-0.07749">
        <ele>57</ele>
        <time>2018-09-22T14:47:50Z</time>
      </trkpt>
      <trkpt lat="48.35184" lon="-0.07749">
        <ele>58</ele>
        <time>2018-09-22T14:47:52Z</time>
      </trkpt>
      <trkpt lat="48.3518" lon="-0.0775">
        <ele>58</ele>
        <time>2018-09-22T14:47:59Z</time>
      </trkpt>
      <trkpt lat="48.35183" lon="-0.07754">
        <ele>58</ele>
        <time>2018-09-22T14:48:54Z</time>
      </trkpt>
      <trkpt lat="48.35184" lon="-0.07755">
        <ele>57</ele>
        <time>2018-09-22T14:49:14Z</time>
      </trkpt>
    </trkseg>
  </trk>
</gpx>